ECMWFNIL_925_thetae_000.txt.gz
Theta_e
361 360 359 358 357 356 354 354 353 353 352 352 351 349 348 347 346 344 343 342 342 342 341 340 339 337 336 337 337 337 337 337 336 337 338 337 336 336 336 336 335 336
361 361 360 358 357 357 356 354 354 353 352 352 351 349 348 347 345 344 343 343 342 341 341 340 339 338 337 336 336 337 337 337 337 337 338 339 338 337 336 336 336 336
363 362 360 358 356 356 355 354 355 354 352 353 352 350 349 346 345 344 343 342 342 342 341 340 339 338 337 336 337 336 336 337 337 337 338 339 338 337 336 336 336 336
365 362 361 358 356 355 355 354 355 355 352 353 353 352 349 347 345 345 344 342 342 342 341 340 339 338 338 337 337 336 336 336 336 335 336 337 338 337 336 335 335 335
366 364 362 360 357 356 356 355 356 355 353 353 354 352 349 348 345 344 344 344 343 343 341 340 339 338 338 338 337 337 336 335 335 335 336 336 335 335 335 335 335 334
367 366 364 362 360 359 358 357 356 354 353 354 354 351 349 349 346 344 344 344 343 342 341 340 340 339 338 338 338 337 337 336 335 335 336 336 335 334 334 334 334 334
367 366 365 364 363 361 359 358 355 352 353 354 353 349 348 348 346 344 345 345 343 342 341 340 340 339 337 337 337 337 337 337 336 336 336 336 336 335 334 334 334 334
368 367 365 363 364 362 361 358 353 350 352 353 350 347 345 344 341 341 343 344 343 343 342 341 340 339 336 335 335 336 337 337 336 336 336 336 335 335 335 334 334 334
368 367 364 363 364 361 359 355 352 352 352 350 346 343 341 338 336 338 341 341 341 341 341 341 340 338 336 335 336 337 338 337 336 336 336 335 335 335 335 334 334 334
366 365 363 363 361 359 357 353 351 352 349 344 340 338 336 336 337 339 339 338 337 337 337 338 339 339 337 335 336 338 338 337 337 337 336 335 335 335 334 333 333 333
366 364 362 360 358 356 355 350 350 351 347 342 338 334 334 335 333 331 330 328 329 331 333 335 336 337 338 337 337 338 338 337 337 337 336 335 336 336 335 334 333 333
364 361 359 357 355 355 352 345 347 349 346 343 339 334 334 334 328 323 321 323 323 324 329 332 333 336 338 339 338 337 338 337 337 337 336 336 336 336 335 334 334 333
362 358 357 354 352 353 347 339 340 341 341 342 340 336 334 331 326 321 320 323 323 323 326 330 333 337 339 340 339 337 337 338 337 337 337 336 336 336 335 334 333 332
359 356 354 351 351 350 344 336 332 330 334 340 339 336 335 331 329 323 320 322 325 327 329 330 334 338 340 340 340 338 338 338 337 337 337 336 335 336 335 334 332 331
356 353 351 349 349 348 340 333 330 330 336 341 339 337 335 333 333 327 321 322 326 330 333 333 335 339 340 339 338 338 339 339 337 337 337 336 334 334 336 336 334 333
353 350 348 348 348 347 340 335 335 337 340 340 337 336 334 333 333 327 322 324 328 333 337 337 337 339 339 337 335 336 337 338 338 337 336 336 335 335 336 336 334 334
349 347 347 347 347 346 343 341 342 340 337 334 332 332 332 334 334 328 326 331 335 337 339 338 338 337 337 336 334 333 334 336 337 337 336 336 335 334 334 335 335 335
347 345 345 345 345 345 345 346 344 338 332 329 329 329 331 333 331 328 330 335 339 339 338 338 337 337 337 335 333 333 334 335 336 337 337 336 335 335 336 337 338 336
346 343 343 343 343 344 346 347 342 336 333 329 329 330 331 331 331 333 336 339 340 339 337 337 338 338 336 334 333 334 335 335 335 335 335 334 335 337 338 339 340 338
347 344 342 342 342 341 343 345 341 337 333 331 332 334 334 334 336 338 340 340 340 339 338 338 339 338 336 334 335 335 335 336 335 333 332 332 334 335 335 336 338 338
349 346 343 342 342 341 342 343 342 339 335 335 337 338 337 338 340 340 340 340 340 338 338 340 339 337 335 334 334 332 332 335 336 334 333 333 333 334 333 333 334 334
349 347 345 344 342 342 342 342 343 341 340 340 341 340 339 339 339 340 340 340 339 337 338 340 338 335 335 334 332 330 331 335 336 335 334 333 335 336 334 333 333 332
348 346 345 344 344 343 344 344 344 344 344 344 342 340 340 340 339 340 340 340 339 338 338 339 337 335 334 333 333 332 333 335 335 335 335 334 336 335 332 331 330 329
347 345 344 345 345 345 345 345 345 345 345 345 343 341 340 340 340 340 340 340 339 338 338 337 336 335 332 331 331 330 331 334 335 334 334 332 333 334 333 330 328 327
346 345 344 345 345 346 345 345 345 345 344 344 343 343 342 340 340 339 339 339 337 337 337 335 335 334 331 328 327 326 327 332 332 331 330 328 329 332 333 331 330 329
348 347 345 345 345 344 344 343 343 343 343 343 343 342 341 339 338 338 338 338 336 335 335 333 333 333 330 327 327 327 329 331 330 328 327 328 330 332 333 333 331 329

ECMWFNIL_925_thetae_003.txt.gz
Theta_e
361 361 360 358 358 358 358 356 356 355 353 353 353 351 350 349 347 345 343 342 342 342 342 342 342 340 339 339 338 338 339 338 337 336 337 337 338 336 336 336 336 337
360 361 360 359 358 359 358 356 355 354 352 352 351 349 349 348 346 344 343 343 342 342 342 342 342 340 339 339 338 338 338 338 337 336 337 338 339 339 338 337 337 337
361 361 360 359 358 358 357 355 354 353 351 350 350 349 349 347 346 345 344 344 343 342 342 342 340 340 339 338 338 338 337 337 337 337 337 339 340 340 339 337 337 336
361 361 360 359 358 356 356 355 353 353 351 349 349 349 349 347 346 346 346 345 344 343 342 341 340 339 339 339 338 338 337 337 337 337 336 337 339 339 339 338 338 337
361 361 360 359 358 356 355 353 351 351 350 348 349 350 350 348 346 346 346 344 344 343 342 340 340 339 339 339 338 338 338 337 337 336 335 336 336 337 337 336 337 337
361 361 361 359 357 356 354 351 350 351 350 349 352 352 351 349 345 344 345 344 343 343 342 341 340 340 339 339 339 338 338 337 337 336 336 336 335 335 335 335 335 336
361 361 361 360 358 356 354 352 352 350 349 352 354 354 352 348 342 341 342 343 343 343 343 342 341 341 340 339 339 339 339 338 338 337 336 337 337 337 337 336 336 336
362 361 362 360 357 356 354 354 354 351 351 353 352 351 350 345 340 339 339 339 340 342 343 343 343 342 341 340 339 339 340 339 339 338 337 338 338 338 337 336 336 336
363 362 361 359 357 357 357 357 356 355 352 351 347 345 347 345 340 338 337 335 336 339 342 343 343 342 341 340 339 338 338 338 339 338 338 338 338 338 337 336 336 337
365 363 361 359 358 358 358 359 359 356 352 348 342 338 341 342 339 337 335 332 333 339 343 344 343 343 342 339 337 336 337 338 339 339 338 338 338 338 337 336 336 336
366 364 362 361 358 356 358 359 358 355 350 346 338 333 338 341 338 336 334 331 332 338 342 344 343 343 342 338 336 336 337 338 339 339 338 338 338 338 337 336 336 336
366 364 364 363 358 356 358 359 356 352 348 345 335 330 338 342 338 336 334 332 332 333 337 342 343 342 340 337 336 337 337 339 339 339 338 338 339 338 337 337 336 336
366 364 365 363 359 359 360 357 354 350 346 342 331 328 335 339 338 337 333 331 331 328 330 337 339 338 336 335 336 338 338 339 339 338 337 338 338 338 338 337 336 335
366 364 363 362 361 361 359 356 353 348 343 337 329 327 332 333 334 336 333 332 331 330 330 331 333 335 335 334 336 338 339 339 339 338 337 338 338 338 337 336 335 334
367 365 364 364 363 361 357 354 352 348 342 334 329 329 331 331 332 334 334 334 333 333 333 333 334 336 336 334 336 338 340 340 339 339 339 338 338 338 337 336 335 335
369 366 365 364 362 360 356 354 351 347 341 332 329 331 333 333 334 337 338 337 337 337 336 336 336 335 334 334 336 338 341 341 340 339 339 338 338 338 337 336 334 335
367 365 364 362 360 358 355 353 351 346 338 332 332 335 335 336 338 340 341 339 338 339 339 338 337 335 335 336 336 338 341 342 341 339 338 338 338 337 336 335 335 335
364 363 362 359 358 357 355 353 350 344 339 340 343 341 340 341 341 341 341 338 338 339 340 339 337 335 336 337 337 337 338 340 341 340 339 339 337 336 336 336 336 336
363 363 361 358 358 356 354 353 350 346 345 347 349 348 346 346 344 342 341 340 340 341 339 338 337 336 337 337 335 336 337 338 339 340 339 339 337 336 335 335 337 338
363 362 361 360 358 356 355 354 351 348 347 348 350 350 349 348 345 344 343 342 341 341 339 337 337 337 338 336 333 333 336 337 337 339 339 339 339 339 336 336 338 339
363 362 360 360 359 358 357 356 353 351 349 348 348 348 348 348 345 344 344 342 342 342 340 339 337 336 337 336 332 331 335 336 337 339 339 338 338 337 336 337 339 339
362 361 361 360 360 359 358 357 356 354 352 349 348 347 347 347 345 343 342 343 342 342 341 340 338 335 336 335 332 333 336 336 336 339 339 338 338 337 336 339 339 337
360 360 360 359 359 359 358 357 357 356 354 352 349 347 345 345 344 343 343 344 343 342 341 340 338 336 336 335 333 334 336 335 336 339 339 339 340 340 337 337 337 335
359 358 358 357 357 357 356 356 355 354 354 352 350 347 345 343 343 343 343 343 343 342 342 340 339 338 337 335 334 335 335 336 337 338 337 338 340 339 335 333 334 334
357 357 356 356 355 355 354 353 352 352 351 350 348 348 346 343 342 342 342 341 341 341 341 340 340 341 339 336 335 334 334 336 337 337 337 338 339 338 335 333 334 334
358 357 357 356 355 354 353 352 351 349 348 348 347 346 345 344 343 342 342 342 341 341 341 340 339 341 339 336 335 334 333 334 336 337 336 336 336 335 334 334 334 334

ECMWFNIL_925_thetae_006.txt.gz
Theta_e
362 362 361 359 358 356 357 358 357 355 355 356 354 353 352 350 349 348 345 343 342 342 342 342 341 340 341 340 338 339 339 338 338 337 336 337 337 337 337 336 336 336
362 362 361 360 359 357 357 358 357 355 354 355 354 353 352 349 348 347 344 342 342 342 342 342 342 341 340 340 339 338 339 339 338 337 337 337 337 338 338 337 337 337
362 363 362 361 360 358 357 357 356 355 354 354 354 352 351 349 347 346 344 343 342 342 343 342 342 342 340 339 339 338 338 338 338 337 338 338 338 339 339 339 339 338
362 363 362 361 360 359 358 357 356 355 354 353 352 350 349 349 347 346 344 343 343 342 342 342 343 342 340 339 340 339 338 338 338 338 338 338 339 339 339 339 338 338
362 363 363 361 360 359 358 357 356 355 353 353 352 349 349 349 348 346 344 344 344 343 342 342 342 342 340 339 339 339 339 338 338 338 337 337 338 339 339 339 337 336
363 363 362 360 360 359 358 357 356 355 353 352 351 350 350 349 348 347 346 345 344 343 343 342 342 341 340 339 339 339 339 338 338 338 337 337 336 337 338 338 338 337
362 363 362 360 360 359 358 357 355 355 353 351 350 349 350 349 348 347 347 346 344 344 343 343 342 341 341 341 340 339 339 338 338 338 337 337 336 336 336 336 337 337
363 363 363 361 360 359 358 356 355 355 353 351 350 350 350 349 348 348 347 346 345 344 344 343 341 341 341 341 341 340 339 339 338 338 338 338 337 338 337 337 337 336
363 363 363 362 360 359 357 356 355 354 352 351 350 350 350 350 349 348 346 345 344 344 344 343 342 341 340 340 341 340 340 339 339 339 339 338 338 338 338 338 338 338
363 363 363 362 361 359 357 355 354 353 352 351 350 351 351 351 351 349 345 344 344 344 344 343 342 342 341 341 340 341 340 340 340 340 339 339 339 339 339 338 338 338
363 363 363 362 361 359 357 355 354 353 352 352 352 353 353 353 353 350 346 344 344 344 344 343 343 344 343 342 341 341 340 340 339 339 339 339 340 339 339 339 339 338
363 363 363 362 362 359 357 356 354 353 354 354 354 354 355 354 353 351 348 344 342 341 342 343 344 344 343 342 341 339 338 338 338 339 339 340 339 339 339 339 338 338
363 363 363 363 361 360 358 356 354 353 355 356 354 353 354 354 353 351 348 345 342 339 339 341 343 344 343 342 341 338 336 336 337 338 339 340 340 339 339 339 338 338
364 363 363 362 361 360 358 356 354 354 356 357 355 353 353 354 352 351 349 346 343 341 339 340 343 344 343 342 340 336 335 336 337 338 339 340 339 339 339 338 337 337
365 364 364 363 361 359 358 356 355 355 357 358 356 353 354 354 352 351 349 347 345 344 343 343 343 343 342 340 337 333 334 337 338 339 340 340 339 338 338 337 337 337
366 367 365 364 362 359 358 358 357 357 359 359 356 353 354 354 352 350 348 346 346 346 345 345 343 341 340 338 334 330 331 336 339 339 340 340 339 338 338 338 338 338
367 368 367 366 364 361 360 359 359 359 358 358 356 354 354 352 350 349 347 344 345 346 345 344 342 340 338 336 331 328 330 335 338 339 340 340 340 339 339 338 338 337
368 369 369 367 366 364 362 360 360 359 359 359 357 357 355 352 348 347 344 342 344 345 343 342 340 337 336 334 330 328 330 335 338 340 340 340 340 340 339 338 338 337
368 369 369 368 367 366 364 364 362 361 360 360 359 357 354 351 347 344 342 341 342 343 341 339 338 336 335 333 330 329 330 334 339 341 341 341 340 340 339 339 338 338
369 370 370 368 368 368 366 365 363 361 360 359 358 356 354 352 348 345 344 343 343 343 341 340 339 338 336 334 331 329 328 330 336 341 341 340 340 340 339 338 337 336
369 370 370 369 369 368 367 365 362 361 360 358 357 355 354 352 350 348 347 344 343 343 342 341 341 340 338 335 332 330 328 327 333 339 340 340 340 340 338 337 336 335
370 370 370 369 368 367 366 364 362 361 359 358 356 354 354 353 350 349 348 345 343 343 342 342 341 339 338 335 333 332 331 330 334 339 340 341 341 339 337 338 338 338
370 369 369 367 366 365 365 363 362 361 359 357 355 353 352 351 350 349 347 345 344 343 343 342 341 339 337 337 336 334 332 331 334 339 340 340 339 338 338 339 340 339
369 368 367 366 365 364 363 362 362 361 359 358 355 352 350 349 349 348 346 345 344 344 343 341 341 339 337 337 337 336 334 332 333 337 339 339 338 339 339 339 340 339
368 367 366 365 364 363 363 362 361 361 360 358 356 354 351 350 349 347 345 345 346 345 343 341 341 340 338 337 337 336 334 333 334 338 340 339 338 337 337 338 340 339
367 366 365 364 364 363 362 361 361 360 359 358 356 355 353 351 349 346 345 345 345 344 343 342 342 342 340 337 336 335 334 334 336 339 340 338 337 337 338 340 340 339

ECMWFNIL_925_thetae_009.txt.gz
Theta_e
360 360 360 359 357 356 356 355 354 353 353 353 354 354 355 354 353 353 351 349 347 344 342 340 338 338 338 339 338 339 338 335 332 331 333 335 335 337 337 336 336 336
361 361 360 359 357 356 356 354 353 353 353 354 353 354 354 354 353 352 351 349 344 342 341 340 339 338 339 339 338 339 338 336 336 335 335 335 334 335 336 335 335 336
361 361 360 360 358 357 356 355 353 353 354 354 353 353 354 353 353 352 350 348 344 342 342 341 340 340 340 340 338 339 338 337 337 338 336 336 336 336 336 336 337 337
361 361 361 360 359 358 357 356 354 354 354 354 353 353 353 353 352 352 350 348 344 342 341 340 339 338 339 340 339 338 338 337 337 337 337 336 336 337 337 338 338 339
361 361 361 360 359 359 358 357 356 355 355 354 354 353 352 351 351 351 350 346 343 341 340 340 339 338 338 340 339 337 337 337 338 337 337 338 337 337 337 337 337 338
362 361 361 360 360 359 359 358 356 355 355 355 354 353 352 351 350 350 348 345 342 341 341 340 341 340 339 339 339 337 336 336 337 336 336 337 338 338 338 338 336 335
362 362 361 360 360 359 359 358 357 356 355 355 355 354 353 352 350 349 346 344 342 342 342 341 341 341 340 339 339 339 338 337 336 335 336 337 337 338 338 338 337 336
362 362 361 361 360 360 359 358 357 356 355 355 355 354 354 352 350 349 347 344 343 342 342 342 341 341 340 339 338 339 340 339 338 337 338 338 337 337 337 337 337 338
361 362 362 361 361 360 360 358 357 357 355 355 354 353 353 351 350 349 347 345 344 343 342 342 341 341 341 340 338 338 339 339 338 338 338 338 337 336 335 336 336 337
362 362 361 361 361 360 359 359 358 357 356 355 354 353 352 351 349 349 348 346 344 344 343 342 342 341 341 341 340 338 338 338 338 338 338 338 337 337 337 337 337 337
362 362 361 362 361 360 360 359 358 357 356 355 354 353 352 351 350 349 348 346 345 344 343 342 342 341 341 341 340 340 339 338 338 338 338 338 338 338 338 337 337 337
362 361 361 361 361 361 360 359 358 357 356 355 354 353 352 351 351 349 349 347 346 345 344 343 342 342 341 341 341 340 340 339 339 338 337 338 338 337 336 336 336 336
362 361 361 361 361 361 360 359 358 357 356 355 354 353 352 351 351 350 349 348 347 346 344 343 342 342 342 341 341 341 341 340 340 338 338 338 338 338 338 338 338 338
363 362 361 361 361 361 360 359 358 356 356 355 354 353 352 351 351 351 350 348 347 346 345 343 342 343 343 341 341 340 340 340 340 340 339 339 339 339 339 339 339 339
363 362 361 361 361 361 360 359 358 356 356 355 354 353 352 351 352 351 351 349 347 346 345 343 343 343 343 342 341 340 340 340 340 340 340 339 339 339 339 339 339 338
363 362 362 361 361 361 360 359 358 356 355 354 354 353 353 353 353 353 353 350 348 346 345 344 344 343 343 342 342 341 340 340 340 339 339 338 338 338 339 339 338 338
362 362 362 361 361 361 361 360 358 357 355 353 353 353 353 353 354 355 354 352 349 347 345 345 344 344 343 343 343 342 340 340 339 336 335 336 338 339 339 339 339 338
362 362 362 361 362 361 361 361 359 358 355 354 354 354 353 354 354 355 355 353 351 348 346 345 344 343 343 343 344 343 341 339 337 334 333 335 338 339 339 339 339 338
361 362 362 362 362 361 361 361 360 358 356 355 355 355 355 354 354 355 355 353 351 349 346 345 343 342 342 343 343 343 341 338 335 333 335 337 338 339 340 339 338 338
362 363 362 362 363 362 361 361 360 359 358 356 356 358 357 355 354 355 354 353 351 349 348 346 345 344 343 343 343 343 342 338 334 333 336 338 339 339 340 340 339 338
362 363 362 363 363 362 362 361 360 359 359 357 358 358 357 356 355 354 353 352 351 349 348 347 346 345 345 343 343 342 340 337 334 332 335 338 339 340 340 340 340 339
362 363 363 364 364 364 363 362 361 360 359 359 359 358 358 357 355 353 351 350 349 347 346 345 344 344 343 342 341 340 338 336 333 332 336 340 340 341 341 340 339 339
360 363 364 365 365 365 365 363 363 362 360 360 359 358 357 357 354 351 350 349 347 345 344 343 342 342 341 340 339 337 335 334 331 332 338 341 341 341 341 340 339 339
359 362 365 366 366 366 366 365 364 363 361 361 359 357 357 355 353 351 350 349 346 344 343 343 342 341 340 339 338 337 335 333 331 332 336 339 341 341 340 340 339 338
360 363 365 366 367 367 366 365 364 363 362 360 358 356 355 353 352 352 350 349 347 345 344 343 343 342 340 340 339 337 336 334 332 332 334 338 340 341 340 339 338 337
362 365 366 367 367 367 366 365 364 362 361 359 356 354 353 352 352 351 350 349 347 346 344 343 343 342 340 340 339 337 335 334 332 332 334 337 340 340 339 339 338 337

ECMWFNIL_925_thetae_012.txt.gz
Theta_e
358 357 357 356 356 355 354 353 353 354 354 355 355 356 356 356 357 356 356 355 351 349 348 348 346 342 341 342 342 340 336 333 336 338 336 336 336 337 336 335 335 335
358 358 357 357 356 355 355 354 353 354 354 355 354 355 355 355 355 355 356 355 351 349 349 348 344 342 342 342 341 340 336 335 337 337 336 335 336 337 336 336 336 337
358 358 357 357 356 356 355 354 354 354 355 355 354 354 354 353 354 355 355 355 351 349 348 347 344 342 342 341 340 339 337 337 337 335 334 333 335 337 337 336 336 336
358 358 358 357 357 356 356 356 355 355 355 355 354 353 352 353 354 354 354 353 351 349 348 347 344 342 341 340 339 338 337 338 336 332 332 333 333 335 336 336 336 336
358 358 358 358 358 357 356 357 356 356 355 354 354 353 352 353 353 353 354 352 351 350 348 347 344 341 339 339 338 338 337 338 336 333 335 335 333 334 334 335 336 336
358 358 358 358 358 358 357 357 356 356 355 354 353 353 352 352 353 353 353 352 351 350 348 346 344 340 338 338 338 338 338 338 336 335 337 337 335 335 335 336 336 337
359 359 359 359 358 358 358 357 357 356 355 354 353 352 352 352 353 353 353 352 351 350 347 344 342 340 339 339 338 338 338 338 337 336 337 337 336 335 336 336 337 337
359 359 359 359 359 359 358 357 357 356 355 354 353 352 353 353 353 353 352 352 351 349 345 342 341 341 340 339 339 339 338 338 337 336 336 337 337 337 337 337 337 337
360 360 359 360 360 359 359 358 357 356 355 354 353 353 353 353 353 353 352 351 351 349 345 343 342 341 340 339 339 339 339 338 337 336 336 336 336 337 337 337 338 338
360 360 360 360 360 359 359 359 357 357 356 355 354 353 353 353 353 352 352 351 350 349 346 344 342 341 340 339 338 337 338 337 335 335 336 335 335 336 337 337 337 337
360 360 360 360 360 360 359 359 358 357 356 355 355 354 354 353 352 352 351 351 350 348 346 344 342 341 340 339 339 337 337 336 335 336 336 334 333 334 336 337 337 337
360 360 360 360 360 360 359 359 358 357 357 356 355 354 354 353 352 351 350 350 350 348 347 344 342 341 340 340 340 338 337 336 336 337 338 336 335 335 336 337 337 336
360 360 360 360 360 360 359 359 358 357 357 356 355 354 354 354 353 352 350 350 349 348 346 344 342 342 341 341 340 339 338 336 336 337 339 338 337 337 337 337 337 336
360 360 360 360 360 360 359 359 359 358 357 356 356 354 354 353 353 352 351 350 348 347 345 343 342 342 342 341 341 340 338 336 335 337 338 338 337 337 337 338 338 337
361 360 360 360 360 360 360 359 359 358 357 356 356 354 354 353 352 352 351 350 349 347 345 344 343 342 342 342 341 340 339 338 336 336 337 337 337 336 336 337 337 337
361 360 360 360 360 359 360 359 359 358 357 356 356 355 353 353 352 351 351 350 349 347 346 344 343 343 342 342 341 340 339 339 338 337 338 337 337 337 336 336 336 337
361 361 360 360 360 359 359 359 359 358 357 357 356 355 354 353 352 351 350 350 349 348 346 345 344 343 343 342 342 341 339 339 339 338 338 339 338 337 337 337 337 337
361 361 361 360 360 359 359 359 359 358 358 357 356 355 354 353 352 351 351 350 349 348 347 346 345 344 343 343 342 341 340 339 339 338 339 339 339 338 337 338 338 338
360 361 361 360 360 359 359 359 359 358 357 356 356 355 354 353 352 351 351 351 350 349 348 347 346 345 344 343 343 341 340 340 339 338 338 338 338 338 338 338 338 338
361 361 360 360 360 360 359 359 359 358 357 356 355 355 353 353 353 352 352 351 350 350 348 347 347 346 345 344 343 342 341 340 339 339 338 338 339 339 339 338 337 336
361 361 360 360 360 360 360 359 359 358 357 356 355 354 353 353 353 352 352 352 351 350 349 348 347 346 346 344 343 343 341 340 340 339 337 336 337 338 338 337 335 335
361 361 360 360 360 360 360 359 359 359 358 357 355 354 353 353 352 353 353 352 352 351 350 349 348 346 346 345 344 343 342 340 339 337 335 333 334 336 336 335 335 335
361 361 360 360 360 360 360 359 360 359 358 358 355 354 354 353 352 353 353 353 353 352 351 350 348 347 346 345 344 344 342 340 339 337 334 332 333 334 335 336 336 337
360 360 360 360 359 360 360 359 359 359 359 358 356 355 355 354 353 353 353 352 353 352 352 351 349 348 347 345 344 344 343 341 338 336 335 333 333 335 336 337 337 338
360 361 360 360 360 360 359 360 360 359 359 358 357 356 355 354 354 353 352 353 353 352 352 350 349 348 347 346 344 343 343 341 339 337 336 334 334 336 336 337 338 339
359 360 360 360 360 360 360 360 360 359 359 358 357 357 356 355 354 353 353 353 352 352 351 350 349 348 346 346 345 344 344 342 340 339 336 334 335 337 338 339 340 340

ECMWFNIL_925_thetae_015.txt.gz
Theta_e
354 354 354 354 354 353 353 352 352 353 353 354 354 353 353 353 352 352 352 353 354 355 355 355 351 347 345 344 344 345 342 339 340 341 340 338 336 337 338 338 338 337
355 355 355 355 355 354 354 353 353 354 354 354 353 351 352 352 352 352 353 354 355 355 356 355 351 346 344 344 344 344 342 339 340 341 338 336 334 335 337 337 337 335
355 356 356 355 355 354 354 354 353 353 354 353 352 352 352 352 353 354 354 355 355 356 356 355 351 346 344 344 344 343 342 340 341 340 337 335 335 335 336 337 336 335
356 355 356 355 355 355 354 354 354 354 353 353 353 352 353 353 353 354 355 355 355 356 356 354 351 347 345 345 344 342 341 341 342 339 335 335 336 335 335 336 335 335
356 356 356 355 355 355 355 354 354 354 353 353 353 353 353 353 353 354 354 355 355 356 355 355 352 348 346 346 345 343 341 341 342 338 335 336 336 335 335 335 336 336
355 356 355 355 355 355 355 355 354 354 354 353 353 353 353 353 353 353 354 355 355 355 355 355 352 349 347 347 347 344 341 341 342 338 336 336 335 334 334 335 336 336
355 355 355 356 355 356 355 355 355 354 354 354 353 353 353 353 354 354 354 354 354 355 355 354 353 349 347 348 346 344 341 342 341 339 337 336 334 332 333 334 336 336
355 355 355 356 356 356 356 356 355 355 354 354 354 354 353 353 354 354 354 354 353 353 354 354 353 350 348 348 346 343 341 341 340 338 337 336 333 332 333 333 334 334
356 356 356 356 356 356 356 356 355 355 355 354 354 354 354 354 354 354 353 353 353 353 353 353 353 350 348 348 346 343 341 340 339 338 337 337 334 334 335 334 334 335
356 356 356 356 356 356 356 356 356 355 355 355 355 354 354 354 353 353 353 353 352 352 352 352 352 350 348 347 346 343 341 339 338 337 337 337 336 334 335 335 335 335
356 357 356 356 356 356 356 356 356 356 355 355 355 354 354 354 353 353 352 352 352 352 352 351 351 350 348 347 345 343 341 338 338 337 337 337 337 335 335 336 336 336
357 357 357 357 357 356 357 357 356 356 356 355 355 355 354 353 353 352 352 352 351 351 351 351 350 349 348 346 345 343 341 339 338 338 338 337 337 336 336 336 336 336
357 357 357 357 357 357 357 357 357 356 356 356 355 355 354 353 353 352 352 352 351 351 351 350 350 349 348 346 344 342 340 339 339 338 338 338 337 337 337 336 336 335
357 358 358 357 357 357 357 357 357 357 357 356 355 355 354 354 353 352 352 352 351 351 351 350 349 348 347 345 343 341 340 340 339 339 338 338 337 336 336 336 336 335
358 358 358 358 358 358 358 358 357 357 357 356 356 355 355 354 353 353 352 351 351 351 350 349 349 348 347 345 343 341 341 340 340 339 338 337 337 336 336 336 335 335
359 359 358 359 358 358 358 358 358 357 357 357 356 356 355 354 354 353 352 351 351 350 350 349 348 348 347 346 344 343 342 340 340 339 338 338 337 336 335 335 335 336
359 359 359 359 358 359 358 358 358 358 357 357 356 356 355 355 354 353 352 352 351 350 349 349 348 348 347 346 345 344 343 341 340 339 339 338 336 333 331 330 331 335
359 359 359 359 359 359 359 358 358 358 358 357 356 356 355 355 354 354 353 352 351 350 349 348 348 348 347 346 345 344 343 341 340 339 339 338 337 334 332 330 329 333
360 360 359 359 359 359 358 359 358 358 358 357 356 356 355 354 354 353 353 352 351 350 349 348 348 348 347 346 345 344 342 340 340 340 340 339 337 336 335 334 333 334
360 360 360 359 359 359 358 359 358 358 358 357 356 356 355 354 354 353 353 352 351 351 350 349 349 348 347 346 345 344 342 340 340 341 340 339 338 336 335 336 337 337
360 360 360 360 359 358 359 358 358 358 358 357 357 356 355 355 353 353 352 352 351 351 350 350 349 349 348 347 346 344 341 340 340 340 339 339 338 337 336 337 338 338
360 360 360 360 359 359 359 358 358 358 357 357 357 355 355 355 353 353 352 352 351 351 350 350 349 349 349 348 346 344 341 340 339 339 338 338 338 337 336 335 337 338
360 360 360 360 359 359 358 358 358 358 357 357 356 355 355 355 353 353 352 352 352 351 350 350 350 349 349 348 347 344 340 339 340 339 339 338 338 337 336 335 336 337
360 360 360 359 359 359 359 358 358 358 357 357 356 355 355 355 354 353 353 352 352 351 351 351 350 350 350 348 347 344 341 340 340 340 339 338 337 337 337 337 336 335
359 360 360 360 359 359 359 359 358 358 358 357 356 356 355 354 354 353 353 352 352 352 352 351 350 350 350 349 347 344 341 339 339 339 339 338 337 337 337 337 335 333
359 360 360 360 359 359 359 359 359 358 357 357 356 356 355 354 353 353 353 352 352 352 352 351 351 350 350 349 347 345 342 339 338 338 338 338 338 337 336 335 334 334

ECMWFNIL_925_thetae_018.txt.gz
Theta_e
351 351 351 351 351 351 351 351 351 351 351 351 351 351 351 351 350 351 352 353 353 354 353 352 351 352 352 354 355 353 348 344 342 342 341 340 340 340 340 338 337 337
351 351 351 351 351 351 351 351 351 351 351 351 351 351 351 350 349 351 352 353 353 353 353 352 351 352 353 354 354 351 346 343 342 342 341 339 339 340 340 338 337 336
351 351 351 351 351 351 351 351 351 351 351 351 351 350 350 349 349 351 353 353 353 353 353 352 351 352 354 354 353 349 345 343 342 342 342 340 339 340 340 337 335 335
351 351 351 351 352 351 352 352 351 351 351 351 351 351 350 350 350 351 353 353 353 352 352 351 352 353 354 354 353 349 345 343 343 342 342 340 339 340 339 335 333 334
352 352 352 352 352 352 352 352 352 352 352 352 352 352 351 351 351 352 353 353 352 352 352 351 352 354 354 355 354 349 344 343 343 342 342 340 339 340 338 335 333 334
352 352 352 352 353 353 353 353 353 352 352 353 352 352 352 351 352 353 352 352 352 352 352 352 353 354 354 355 354 350 345 342 343 342 342 340 340 340 338 335 334 334
353 353 353 353 353 353 353 353 353 353 353 353 353 352 352 352 352 352 352 352 352 352 352 352 353 354 354 355 354 351 346 343 343 343 342 341 341 341 338 335 335 334
354 354 353 354 353 353 354 353 353 353 353 353 353 353 353 352 352 352 352 352 352 352 353 353 353 354 354 354 354 352 347 345 344 344 343 341 341 341 339 336 335 335
353 354 354 354 354 354 354 354 354 354 353 353 353 353 353 352 352 353 352 352 352 352 353 353 353 353 353 354 353 352 349 346 345 345 344 342 340 341 339 336 335 334
353 353 354 354 354 354 354 354 354 354 354 353 353 353 353 352 353 353 352 352 352 352 353 353 353 353 353 353 353 352 351 347 346 346 345 343 341 341 340 337 336 333
353 354 353 354 354 354 354 354 354 354 353 353 353 353 353 353 353 352 353 353 352 352 353 353 352 352 352 352 352 352 351 349 347 346 346 344 342 340 340 338 336 334
354 354 354 354 354 354 354 354 354 354 354 353 353 353 353 353 353 353 353 352 352 352 352 353 353 352 352 351 352 352 351 349 347 346 346 344 342 340 340 338 337 336
354 354 354 354 354 354 354 354 354 355 354 354 354 354 353 353 353 353 352 352 352 352 352 352 352 352 351 351 351 351 350 349 347 346 345 343 342 341 339 338 337 336
354 355 354 354 354 354 354 355 354 355 354 354 354 354 353 353 353 353 352 352 352 352 352 352 352 351 351 350 350 350 349 349 347 345 343 342 342 340 338 337 337 337
354 354 354 355 355 354 355 355 355 355 354 354 354 354 354 353 353 353 352 352 352 352 352 352 351 350 350 350 350 349 349 348 346 345 343 342 341 339 338 337 337 337
354 354 355 355 355 355 355 355 355 355 355 355 354 354 354 354 353 353 352 352 352 352 351 351 351 350 350 350 349 349 349 348 346 344 342 341 341 339 338 337 337 337
354 354 355 355 355 355 355 355 355 355 355 355 355 355 354 354 353 353 352 352 351 351 351 351 350 350 350 350 349 349 348 348 346 344 342 341 341 340 338 338 338 338
354 354 355 355 355 355 355 355 356 355 355 355 355 355 354 354 354 353 353 352 352 351 351 350 350 350 350 350 348 348 348 348 347 345 342 341 341 340 340 339 339 338
355 355 355 355 356 356 356 356 356 355 356 356 355 355 355 354 354 353 353 352 352 351 351 351 350 350 350 349 348 348 347 348 348 345 342 343 343 341 341 340 338 337
355 356 355 356 356 356 356 356 356 356 356 356 356 355 355 355 354 354 353 352 352 351 351 350 350 350 349 349 348 347 347 347 348 346 343 343 344 342 341 340 338 338
356 356 356 356 356 356 357 356 356 357 356 356 356 356 355 355 354 354 354 353 352 352 351 350 350 349 349 348 347 347 347 347 347 345 342 342 343 341 340 339 338 338
357 357 357 357 357 357 357 357 356 357 356 356 356 356 355 355 355 354 354 353 353 352 351 351 350 349 348 347 347 347 346 346 346 345 342 341 341 339 339 338 338 338
357 357 357 357 357 357 357 357 357 357 357 357 356 356 356 355 355 354 354 353 353 352 351 351 350 349 348 347 347 347 346 344 345 345 342 341 341 340 339 339 338 339
357 358 358 358 358 358 357 357 357 357 357 357 357 356 356 355 355 355 354 354 353 352 352 352 351 350 349 347 347 346 345 344 343 344 342 342 343 342 340 339 339 338
357 358 358 358 358 358 358 358 358 357 357 357 357 357 356 356 356 355 354 354 353 352 352 351 351 350 349 348 347 346 344 344 343 342 341 341 343 343 341 339 339 338
358 358 358 359 359 358 358 358 358 358 357 357 357 357 356 356 356 355 354 354 353 352 352 351 351 350 349 348 348 346 345 344 343 342 341 341 340 340 339 338 338 338

ECMWFNIL_925_thetae_021.txt.gz
Theta_e
354 353 353 352 353 352 352 352 351 351 351 351 352 351 350 350 350 350 351 352 352 351 352 352 352 352 353 353 352 351 351 352 354 353 351 347 343 340 341 340 340 341
354 354 353 353 353 352 351 351 350 350 350 349 350 350 350 350 350 350 351 352 352 352 351 351 351 351 352 353 352 352 352 353 353 352 349 346 342 341 341 340 340 340
354 354 353 353 353 352 352 352 351 350 350 350 349 350 350 350 351 351 351 351 351 351 351 350 351 351 352 353 353 352 352 352 353 351 347 344 342 341 341 340 340 340
353 354 354 353 354 353 353 353 352 351 351 351 350 350 351 351 351 351 351 351 351 351 351 350 351 352 352 353 353 352 352 352 353 351 347 343 342 341 340 339 340 340
353 353 354 354 354 354 354 353 352 352 352 352 351 350 350 351 351 351 351 351 351 351 350 350 352 352 352 353 353 352 352 353 353 351 347 344 342 342 341 339 339 340
353 353 353 353 354 354 354 353 352 352 352 352 352 351 351 351 351 351 351 351 351 351 351 352 352 352 351 352 353 352 352 353 354 351 348 344 342 342 341 340 339 340
354 353 352 353 354 353 353 353 353 352 352 352 352 351 351 351 351 351 351 351 352 352 352 352 352 351 351 351 352 352 352 353 354 352 348 344 342 342 341 340 340 339
354 354 353 354 354 354 354 354 353 353 352 352 352 352 351 351 351 351 351 351 352 352 352 352 352 351 350 351 351 352 353 353 354 353 350 345 342 342 341 340 340 340
354 355 354 354 354 354 355 354 354 354 352 352 353 353 352 351 351 351 351 352 352 352 352 352 352 351 351 351 351 351 353 354 354 354 351 346 343 341 341 340 340 340
355 355 355 355 355 355 355 355 355 355 354 353 353 354 353 352 351 352 352 352 352 353 353 352 352 352 351 351 351 351 352 353 354 354 352 348 344 342 341 340 340 340
356 356 355 355 355 355 355 355 355 356 355 354 354 355 355 353 352 352 353 353 353 353 353 352 352 352 352 351 351 351 352 352 353 353 352 350 346 344 342 341 340 340
356 356 355 356 356 355 356 356 355 356 356 356 355 355 355 354 353 353 353 353 353 353 353 353 352 352 352 351 351 351 352 352 353 352 352 351 349 346 344 342 341 341
356 356 356 356 356 356 356 356 356 356 356 356 356 355 356 355 355 354 353 353 353 353 353 353 352 352 352 352 352 352 352 352 353 352 352 351 350 348 346 344 342 342
356 356 356 357 357 357 357 357 357 357 356 357 356 356 356 356 355 355 354 354 354 353 354 353 353 353 352 352 352 352 352 352 352 352 351 350 350 349 347 345 344 343
357 357 357 357 357 357 358 357 357 357 357 357 357 356 356 356 356 355 355 355 355 354 354 354 354 353 352 352 352 352 352 352 351 351 351 350 349 349 347 346 345 344
356 357 358 357 356 357 357 357 358 358 358 357 357 356 356 356 356 356 356 356 356 355 355 355 355 354 353 352 352 351 351 351 351 351 350 349 349 348 347 346 345 344
355 356 357 357 357 357 357 357 358 358 358 358 357 357 357 356 356 356 356 356 356 356 356 356 355 354 353 352 352 351 351 351 351 350 350 349 348 347 347 346 344 343
355 356 357 357 358 358 357 357 358 358 358 358 358 358 357 357 357 357 357 356 356 356 355 355 355 355 353 352 352 351 351 351 350 350 349 348 348 347 347 346 344 342
356 357 358 358 358 358 358 358 358 358 359 358 359 358 358 357 357 357 357 356 356 356 356 355 355 354 353 352 352 351 351 351 350 349 349 348 348 347 347 346 343 341
356 357 358 359 359 359 359 359 359 359 359 359 359 359 358 358 358 357 357 357 356 356 356 356 355 354 353 352 352 351 351 350 349 349 349 349 348 347 347 346 344 342
357 358 358 359 359 359 359 359 359 359 359 359 359 359 358 358 357 358 357 357 357 356 356 355 355 354 353 352 352 351 351 349 348 348 348 348 348 347 346 345 344 342
357 359 359 359 359 359 360 359 360 360 360 360 359 359 358 358 358 358 357 357 357 356 356 355 355 354 353 352 351 351 350 349 348 348 348 347 347 347 346 345 344 343
358 359 360 359 359 360 360 360 360 360 360 360 360 359 359 358 358 357 358 357 357 357 356 356 355 354 353 352 352 351 350 348 347 347 348 347 347 346 346 345 344 343
359 359 360 360 360 360 360 360 360 360 360 360 359 360 359 358 358 358 357 357 357 357 356 356 355 354 353 352 351 350 350 348 347 347 347 347 346 346 345 345 345 343
358 359 360 360 360 360 360 360 360 360 360 360 360 360 359 359 358 358 358 358 357 357 357 356 356 355 353 352 351 350 350 348 347 347 348 347 347 346 345 344 344 343
358 359 360 360 360 360 360 360 361 360 360 360 360 360 359 359 359 358 358 358 358 357 357 356 356 355 354 352 351 350 350 348 347 348 348 348 348 346 345 344 342 341

ECMWFNIL_925_thetae_024.txt.gz
Theta_e
361 362 362 362 362 361 360 361 360 360 359 358 359 359 359 359 359 359 359 361 362 361 360 359 359 359 358 358 357 356 356 356 355 354 354 353 352 351 348 346 345 344
361 361 361 361 362 361 361 361 361 361 360 359 358 358 359 360 360 360 360 361 362 361 360 360 359 359 358 357 357 357 357 357 356 354 354 353 353 352 349 347 347 346
361 361 361 362 362 362 361 361 361 361 360 359 359 358 358 359 361 361 361 361 361 360 360 360 359 359 359 358 358 358 357 357 357 355 354 354 353 352 349 347 347 346
361 361 361 362 362 361 361 361 361 361 360 360 359 359 358 359 361 362 362 361 360 360 360 360 360 359 359 359 359 358 357 358 357 356 355 355 354 353 350 348 346 345
361 361 362 362 361 361 361 361 360 361 360 359 360 360 360 360 360 361 362 362 361 360 360 360 360 360 359 360 360 359 358 358 358 357 356 355 355 353 350 348 347 345
362 362 362 363 362 361 361 361 361 360 360 360 360 360 360 360 360 360 360 362 361 360 360 360 361 360 360 360 360 360 358 358 358 357 357 356 355 353 351 349 348 347
362 362 362 362 362 361 361 361 361 360 360 360 360 360 360 361 361 360 360 361 361 361 360 360 361 361 360 361 361 360 360 360 358 357 357 357 355 354 351 349 350 348
362 362 362 362 361 361 361 361 361 361 360 360 360 360 361 361 361 361 361 361 361 361 361 361 362 362 362 361 361 361 361 360 359 357 357 357 355 355 353 351 350 349
361 361 361 361 361 361 360 360 361 361 361 360 360 360 361 361 361 362 361 362 361 361 362 361 362 364 362 361 362 362 362 360 359 358 359 358 356 355 355 352 350 350
361 361 361 361 360 360 360 360 360 361 361 361 360 359 360 361 361 361 362 363 362 362 363 362 363 364 364 362 362 363 362 360 359 359 359 359 357 356 355 353 351 350
360 360 360 360 360 359 359 359 359 360 360 360 360 360 359 361 361 362 362 363 363 362 363 363 363 364 364 363 362 362 361 360 360 360 360 359 359 357 355 354 352 351
360 360 359 360 360 359 359 358 358 358 359 360 360 360 359 360 361 362 362 363 364 363 363 363 363 364 364 363 362 361 361 360 360 360 360 359 358 357 356 354 353 351
360 360 360 359 359 359 358 358 358 358 358 359 360 360 360 360 361 362 362 362 364 364 363 363 363 363 364 364 362 361 361 361 360 360 360 359 358 357 356 355 354 352
360 360 360 359 359 360 359 359 358 358 358 358 360 360 360 360 360 362 363 362 363 364 363 363 363 363 364 364 363 361 361 361 360 360 360 360 359 357 356 355 354 353
360 361 361 361 360 360 360 360 360 360 359 359 360 361 361 361 360 361 363 363 363 363 364 363 363 364 363 363 363 362 361 361 361 360 360 360 359 358 356 355 355 354
361 361 361 362 362 361 362 361 360 360 360 360 361 361 362 361 361 361 363 363 363 363 364 363 363 363 362 360 361 362 361 361 361 360 360 360 359 359 357 356 355 354
363 363 363 363 363 362 363 363 362 362 362 361 361 362 363 362 362 362 362 363 363 363 363 363 362 361 361 359 358 359 360 361 361 361 360 360 359 359 358 357 355 354
364 364 364 364 364 364 363 364 364 363 363 363 363 363 363 363 363 362 363 362 363 363 363 363 362 360 359 359 358 357 357 359 361 361 360 360 359 359 358 357 356 355
366 365 365 365 366 365 364 365 365 364 364 364 364 364 364 364 363 363 362 362 362 363 363 363 362 360 358 357 358 357 356 357 359 360 360 360 359 359 359 357 357 355
367 366 366 366 366 366 365 366 365 365 365 364 364 364 364 363 363 362 362 362 361 362 362 362 362 361 359 357 357 357 356 355 357 359 360 359 359 359 358 358 357 356
367 367 366 366 367 366 366 366 365 365 365 364 364 364 363 362 362 361 361 361 360 361 360 361 362 361 359 358 356 356 356 355 355 357 359 359 359 359 358 357 357 356
367 366 366 366 366 366 366 366 365 365 365 364 364 364 363 362 361 361 361 360 360 360 360 360 361 360 359 358 357 356 356 355 354 356 358 359 358 359 358 358 357 357
367 366 366 365 365 366 366 366 366 366 365 365 364 364 363 362 362 361 360 360 360 359 360 360 360 359 358 357 356 356 356 355 354 355 356 358 358 358 357 356 356 357
365 365 365 365 365 367 366 366 366 366 365 365 365 364 364 363 362 362 361 360 360 359 360 360 359 360 359 357 356 356 355 355 354 354 356 357 357 357 355 355 355 355
364 364 365 365 365 366 366 366 366 365 365 365 365 364 364 363 362 362 361 361 360 359 359 359 359 359 359 358 357 356 355 355 354 354 355 356 357 357 355 355 355 355
364 364 365 365 366 366 365 365 365 365 364 365 365 364 364 363 362 361 361 361 360 360 360 359 359 359 359 358 357 356 356 354 354 355 355 356 357 356 355 356 356 355

ECMWFNIL_925_thetae_027.txt.gz
Theta_e
362 362 361 360 360 360 360 360 362 364 363 360 359 360 361 359 357 355 356 358 361 361 360 359 360 361 361 361 360 359 358 358 357 357 357 356 353 350 349 350 347 343
362 363 363 362 362 361 361 360 361 363 363 361 358 358 360 360 359 357 358 359 361 362 362 361 360 362 361 359 359 360 359 358 358 357 357 355 352 351 350 350 348 345
364 364 363 363 362 362 361 360 361 362 363 362 360 358 358 360 362 360 359 359 361 362 363 362 361 362 362 359 359 359 359 359 358 357 357 355 353 352 351 351 349 347
364 365 364 363 363 363 362 361 362 362 363 363 362 360 358 358 361 362 362 360 361 362 363 361 360 360 361 360 360 360 359 359 360 358 357 356 354 353 352 351 350 348
365 365 365 364 363 364 363 362 362 363 363 363 363 362 359 358 360 363 363 363 362 363 362 361 361 360 360 362 360 360 359 359 359 358 358 358 356 354 352 352 351 350
364 365 364 364 365 363 364 363 363 364 364 362 362 362 361 361 360 361 363 363 363 362 360 360 361 360 360 361 361 361 360 359 358 359 359 359 357 354 353 353 352 350
364 365 365 365 365 364 364 365 365 364 364 363 362 361 362 362 362 361 362 364 364 363 360 359 361 361 361 361 362 362 362 360 358 359 360 360 358 355 353 352 353 351
364 365 365 365 365 365 365 366 365 365 364 363 362 361 361 363 364 364 363 363 364 364 362 360 361 363 362 361 362 363 363 362 360 359 361 361 359 356 355 353 353 353
365 365 366 365 365 364 364 364 365 365 365 363 362 362 363 363 363 364 364 364 364 364 364 362 361 363 363 361 361 363 364 362 362 361 361 361 359 357 356 354 353 354
365 365 366 365 364 363 363 364 363 365 365 364 363 361 362 363 364 364 366 366 364 364 365 364 363 363 364 363 362 363 364 363 362 361 361 360 359 358 357 356 354 355
365 365 364 365 364 363 363 363 362 362 363 364 364 361 359 362 364 365 366 367 366 365 364 365 364 364 365 365 363 363 364 364 363 362 361 361 360 359 357 356 356 355
365 364 363 365 365 363 362 362 360 359 360 363 364 361 359 360 364 365 365 367 367 366 365 366 366 365 365 365 364 363 364 364 363 363 362 361 362 360 359 358 358 356
365 364 364 364 365 363 361 361 359 358 358 361 362 363 362 359 362 365 366 367 368 367 365 366 367 366 366 366 365 363 364 364 363 363 362 362 362 361 360 359 359 358
365 365 364 364 364 364 362 360 361 359 357 358 362 363 363 361 361 364 365 366 367 368 367 367 367 367 366 367 366 365 364 365 364 363 362 362 362 362 360 359 359 359
365 366 366 365 363 363 364 362 360 359 358 358 361 364 364 362 362 362 365 367 367 368 368 367 367 367 367 367 367 366 364 364 365 364 362 361 362 362 360 359 358 358
366 366 367 366 364 364 365 364 362 360 360 360 361 362 363 364 363 363 364 366 367 368 368 367 367 367 366 365 366 367 365 364 364 364 363 361 362 362 361 360 358 357
367 367 368 368 366 365 367 367 364 363 362 361 361 362 363 364 364 363 364 365 366 367 367 368 367 367 366 365 364 364 365 365 364 364 364 362 362 362 362 361 359 358
368 368 368 369 368 367 367 368 367 365 364 363 363 363 363 364 365 365 364 363 365 366 367 367 368 367 365 364 363 361 361 364 364 364 364 363 362 362 362 362 359 359
369 369 369 369 370 369 368 369 368 366 365 365 365 364 364 365 365 366 365 364 365 366 366 367 367 367 365 364 363 361 359 360 363 364 364 364 363 362 363 362 361 359
371 370 370 371 371 370 369 368 368 367 366 365 366 365 364 366 366 367 366 366 365 366 367 367 367 367 367 364 362 361 359 359 360 363 364 364 364 363 363 362 361 360
372 372 371 371 372 371 370 369 369 369 368 366 366 366 365 366 367 367 367 366 366 366 366 366 366 365 366 365 363 361 360 358 359 361 363 363 364 364 363 362 362 361
372 373 373 372 372 372 371 370 370 371 369 367 367 366 367 367 367 367 367 366 367 366 364 364 364 364 365 365 365 362 360 359 359 361 362 363 364 364 363 363 363 362
371 372 373 372 372 373 372 370 371 371 370 369 367 367 367 367 366 366 365 365 365 365 364 362 363 363 363 363 364 363 362 360 359 361 362 363 363 364 364 363 363 363
372 372 373 373 372 373 373 371 370 371 371 370 368 367 367 366 366 366 364 364 364 364 363 364 363 363 362 362 362 362 362 359 359 361 362 362 362 364 364 363 362 362
372 373 373 373 373 373 372 372 371 370 371 370 369 368 366 366 366 366 366 366 365 364 363 363 363 363 363 362 362 362 362 360 359 361 362 362 362 363 362 363 362 362
371 372 373 373 373 373 372 372 371 370 370 370 369 368 366 366 366 366 365 366 365 364 363 362 363 363 362 362 361 361 361 360 360 361 361 362 362 361 360 361 360 361

ECMWFNIL_925_thetae_030.txt.gz
Theta_e
360 361 360 360 359 357 355 357 359 361 360 360 361 361 360 360 359 358 357 357 357 358 359 358 358 359 360 361 360 359 358 357 357 357 357 357 355 353 351 348 346 345
360 360 360 360 360 358 356 356 357 360 362 361 361 361 361 360 359 358 357 357 357 358 359 359 358 358 359 361 361 360 359 358 358 358 357 357 356 354 352 350 349 347
360 360 361 360 360 359 357 356 356 359 362 362 361 361 361 361 359 358 357 357 358 359 360 360 359 359 359 361 362 360 359 359 358 358 357 357 357 355 352 350 350 349
360 360 361 360 359 359 357 356 356 358 360 362 362 361 360 360 360 359 358 358 358 359 360 361 361 360 360 360 361 361 361 360 359 358 358 357 357 356 352 350 351 350
361 360 360 360 359 358 357 357 357 358 359 361 363 362 359 358 360 361 359 358 357 359 361 362 362 361 361 361 361 360 360 360 360 359 358 357 357 356 353 352 351 351
361 360 359 360 359 359 359 357 357 358 359 360 362 363 361 357 358 361 361 359 358 359 361 363 363 362 361 362 361 359 359 360 361 360 359 358 357 356 354 353 352 351
363 361 360 360 360 359 360 359 358 358 358 360 360 361 362 360 357 358 361 362 360 360 361 363 363 362 361 362 362 360 360 360 360 360 360 360 358 357 356 354 353 352
364 363 360 360 360 360 360 360 361 360 359 360 361 360 361 361 358 357 359 363 363 361 361 362 363 362 361 362 362 361 360 360 360 360 360 360 359 359 357 355 353 353
364 363 362 361 361 362 361 360 361 362 359 360 362 362 362 361 360 358 358 361 363 363 362 362 362 362 360 361 362 362 361 360 360 360 360 361 360 360 358 355 354 354
364 364 364 364 364 364 363 361 362 362 361 360 361 363 363 361 361 361 359 359 361 363 364 362 361 361 361 361 361 362 361 361 361 360 360 360 360 361 360 357 355 354
364 365 365 365 364 363 363 362 362 362 362 362 362 363 363 362 361 361 361 360 360 362 364 363 362 361 361 361 361 362 362 361 361 360 360 360 360 361 361 358 356 355
365 364 364 365 364 362 362 362 361 362 363 365 364 362 362 362 361 361 362 362 361 361 363 364 362 362 362 361 361 362 362 362 362 361 360 361 361 361 361 360 358 356
366 363 362 363 363 361 360 361 361 361 363 364 365 364 362 361 361 361 361 363 362 361 361 363 363 362 362 361 362 362 363 362 363 362 361 361 361 361 361 360 359 357
365 364 362 361 362 361 360 360 360 360 361 362 364 365 363 361 362 362 361 362 363 363 362 362 363 363 362 362 362 362 363 363 363 363 362 362 362 361 361 361 359 358
365 365 362 361 361 361 360 359 359 360 360 360 363 364 364 361 361 362 363 362 363 364 364 363 363 363 363 363 362 362 363 363 363 363 363 363 362 361 361 361 360 358
366 365 363 362 361 361 361 360 359 360 360 360 361 362 363 363 361 361 363 364 364 364 365 365 364 364 363 362 362 362 362 362 362 362 363 363 363 362 362 362 361 359
366 365 365 363 361 361 362 360 360 360 361 360 360 360 362 363 362 361 361 364 365 366 367 367 366 364 364 363 362 361 360 361 361 362 364 363 362 362 362 362 361 360
367 367 366 365 364 363 362 362 362 361 361 361 360 360 361 362 363 362 361 362 365 367 368 368 367 366 364 365 364 362 361 360 360 361 363 364 363 362 362 362 362 361
368 368 367 367 366 364 363 364 363 362 362 362 361 360 360 362 363 363 362 361 363 366 367 368 368 368 366 366 366 364 362 361 360 360 362 363 363 363 361 361 361 361
369 369 369 368 368 366 365 365 365 364 363 362 362 362 361 362 364 364 364 362 362 364 367 368 368 368 368 367 366 365 364 362 361 360 361 361 362 363 362 361 360 361
370 370 370 369 369 369 368 366 366 366 365 363 363 363 362 362 363 364 364 364 363 363 365 367 367 367 368 368 367 366 365 363 362 361 361 361 362 362 362 361 360 360
371 371 371 371 370 370 370 368 368 367 367 366 364 363 363 362 363 364 365 364 365 364 364 365 366 366 367 368 367 367 366 365 363 362 362 362 362 362 362 362 361 361
371 371 372 371 371 372 372 370 369 369 369 368 366 364 365 364 364 364 364 364 365 365 365 364 364 365 366 366 367 367 366 366 364 363 362 362 361 362 362 363 363 362
370 371 373 373 373 374 374 372 371 370 370 369 367 366 365 365 365 364 364 364 365 366 367 366 364 365 365 365 366 367 367 366 365 364 363 363 362 361 362 363 363 362
369 371 373 374 374 375 375 374 372 371 371 370 369 367 365 364 365 366 365 366 365 366 367 367 366 365 364 365 366 366 367 366 365 364 364 364 363 362 361 362 362 362
369 371 373 375 375 375 375 374 372 371 371 371 370 368 366 365 365 366 367 367 367 367 367 367 367 367 365 366 366 365 365 365 364 364 364 364 364 363 363 363 362 362

ECMWFNIL_925_thetae_033.txt.gz
Theta_e
356 357 357 356 355 354 355 355 354 354 356 357 356 356 356 355 355 355 356 356 356 357 359 359 360 361 359 359 359 359 358 358 357 356 355 354 355 352 349 348 345 345
357 357 358 357 356 356 357 357 356 355 355 356 356 356 357 357 357 356 356 357 357 357 359 360 360 360 360 359 359 359 359 358 357 357 355 355 355 354 351 350 347 344
358 358 358 358 357 357 358 358 358 356 355 355 356 356 357 357 359 359 358 357 358 358 359 359 360 359 359 359 359 360 359 358 357 356 356 355 356 355 352 351 350 345
358 358 358 358 358 357 357 358 359 358 356 356 355 357 357 357 359 359 359 358 357 358 358 359 359 359 359 358 358 360 360 359 357 356 357 356 356 356 354 352 351 349
358 359 358 358 358 358 357 356 357 358 359 358 357 357 358 359 358 359 359 358 357 358 358 358 357 358 358 357 357 359 360 360 359 357 357 357 356 356 355 352 352 352
359 359 358 358 358 358 358 356 355 356 357 359 359 359 359 360 360 359 359 359 357 357 357 357 357 357 358 358 357 358 359 360 359 358 357 357 357 357 356 354 352 351
359 359 358 358 358 358 358 357 355 354 354 356 358 359 360 360 361 361 359 359 358 358 358 357 357 357 358 359 359 359 360 360 360 359 358 357 357 357 356 355 353 352
359 359 358 358 358 358 358 356 356 355 354 354 356 359 360 359 360 361 361 360 358 358 358 358 358 359 359 359 360 359 360 361 360 359 358 358 358 358 357 355 355 354
360 359 359 359 359 358 358 357 356 355 355 355 355 357 359 360 359 360 360 360 359 358 359 359 359 359 359 360 360 360 360 360 360 359 359 358 358 358 357 356 356 355
360 360 359 359 358 358 358 357 356 356 355 355 355 355 358 360 360 359 358 360 361 359 358 358 359 360 360 361 361 361 360 360 359 359 358 358 358 358 358 357 356 355
361 361 360 359 359 358 358 357 357 357 356 355 355 356 357 359 361 361 358 359 361 361 360 358 359 360 361 361 361 361 361 360 359 359 358 359 358 357 358 357 357 356
362 361 361 360 359 358 358 358 357 357 357 356 356 356 357 358 360 361 360 358 359 360 361 360 359 359 360 361 361 361 361 360 360 359 358 359 359 358 358 358 357 357
362 362 361 360 359 358 357 357 357 357 357 358 357 356 358 358 359 360 360 359 358 358 360 361 360 359 360 361 362 361 361 361 360 359 358 358 359 359 359 358 357 357
362 362 361 360 359 358 357 356 356 356 356 357 358 357 357 358 359 360 361 360 359 358 358 360 361 361 360 361 362 361 361 361 360 360 360 359 359 359 359 359 358 358
362 362 361 360 360 359 358 357 356 356 356 356 358 358 358 358 359 360 361 361 360 359 358 359 361 362 361 361 361 361 361 360 360 360 360 360 359 359 359 358 358 358
363 362 361 360 361 360 359 358 357 358 358 357 357 358 358 358 358 359 360 361 361 360 359 359 359 361 361 361 361 360 360 360 360 360 360 360 360 360 359 359 359 359
363 362 361 361 361 361 360 359 359 358 358 358 358 359 359 359 359 359 360 361 361 361 361 360 360 360 361 361 361 360 360 360 360 361 360 360 360 360 359 360 359 359
364 362 362 361 360 361 361 360 359 359 358 358 358 359 361 361 360 360 360 360 360 360 361 361 361 360 360 360 361 361 361 360 360 360 361 361 361 360 360 359 359 360
366 364 363 363 361 360 360 360 360 358 358 358 358 360 361 362 362 361 360 360 360 361 361 361 361 361 361 360 360 361 361 361 360 360 360 361 361 361 361 360 360 360
367 366 364 364 363 361 360 360 360 359 358 358 359 359 360 362 363 362 361 361 361 361 361 361 361 361 361 361 361 361 361 361 361 360 360 360 361 361 361 361 360 360
367 367 365 365 364 363 362 361 361 361 359 359 359 359 360 361 362 362 362 361 360 361 361 362 361 361 362 362 362 362 361 362 361 361 360 360 360 360 361 361 361 360
367 367 366 366 365 364 364 362 361 362 361 360 360 359 359 359 360 361 362 362 361 361 361 361 362 362 363 363 363 363 363 363 362 361 360 360 360 359 359 360 360 360
368 367 366 366 366 366 365 364 362 362 362 361 361 360 360 360 360 360 361 362 362 362 361 361 361 362 364 364 365 365 365 364 363 361 361 360 360 359 359 359 360 360
368 368 367 367 366 366 366 365 364 363 363 363 362 361 361 360 360 360 360 361 361 362 362 362 361 361 362 364 365 366 366 366 364 363 362 361 361 361 360 360 360 360
368 368 368 368 368 367 367 367 366 365 364 364 364 363 362 361 361 361 361 361 361 361 362 362 362 362 361 362 364 365 367 367 366 364 362 362 362 362 362 361 361 361
368 369 369 369 368 368 368 368 368 367 366 366 366 365 364 363 362 361 362 361 361 361 362 362 363 363 362 362 363 364 365 366 366 364 363 362 363 363 363 362 362 361

ECMWFNIL_925_thetae_036.txt.gz
Theta_e
353 353 353 353 353 354 354 353 352 352 351 351 350 350 351 352 352 352 353 354 355 355 355 354 354 355 356 358 358 357 358 358 359 358 355 353 352 351 350 348 347 346
353 353 353 354 353 353 353 353 352 352 351 351 351 350 350 352 352 353 353 353 354 355 355 355 354 355 356 359 360 358 358 359 358 358 357 355 354 353 351 350 348 347
353 352 353 353 354 354 353 353 352 352 352 352 352 351 351 351 352 352 353 353 354 355 355 355 355 354 355 358 360 359 358 359 358 357 357 357 355 354 352 351 350 347
353 353 353 353 354 354 354 353 352 352 352 352 352 352 351 352 352 352 353 353 353 354 355 355 355 354 355 357 359 360 358 358 359 358 358 357 356 355 354 353 351 348
353 353 353 353 353 354 354 354 353 352 352 351 351 352 353 354 354 353 354 354 353 354 354 355 356 355 356 356 358 360 360 358 359 359 358 357 356 356 354 354 353 350
354 353 354 354 354 353 355 354 354 353 353 352 352 352 354 355 355 355 354 355 354 355 355 355 356 356 356 357 358 359 360 359 359 359 359 357 356 356 355 355 355 352
354 355 354 355 354 354 355 354 354 354 353 353 352 352 354 356 356 356 355 355 355 355 356 356 356 356 357 357 358 359 359 359 359 359 359 358 357 356 355 355 355 354
354 355 354 355 355 356 356 355 355 355 355 355 355 354 354 354 356 356 356 356 356 357 357 357 357 357 356 358 358 359 359 358 358 359 359 359 357 356 356 356 356 355
355 356 356 356 356 356 356 356 355 355 356 357 357 356 355 354 354 355 355 356 357 357 357 357 357 356 356 357 357 358 357 358 357 358 358 359 358 357 356 356 356 356
356 356 356 356 357 356 356 356 356 356 355 356 357 357 357 355 354 355 355 356 357 357 357 357 357 357 356 357 357 356 357 356 356 357 357 359 358 358 358 356 356 356
356 357 357 356 356 356 357 356 356 356 355 355 355 356 357 358 357 356 357 357 357 357 357 358 358 358 357 357 357 356 357 356 356 356 357 357 358 358 358 357 356 356
356 356 357 357 357 356 356 357 356 356 355 355 354 354 355 356 357 358 358 358 358 357 358 358 358 358 357 357 357 357 357 357 357 356 357 357 357 357 358 357 356 356
357 357 357 356 357 356 357 357 356 356 356 355 355 354 354 354 355 357 357 357 358 357 358 359 358 358 358 357 357 357 358 358 358 357 357 357 357 357 357 357 356 356
357 358 357 357 357 357 357 356 356 356 356 355 355 354 354 354 353 355 356 357 357 357 357 358 359 359 359 358 358 358 358 358 358 358 358 357 357 357 357 357 356 356
358 358 357 357 358 357 357 356 356 356 356 355 355 354 354 354 353 353 355 356 357 357 356 357 358 359 358 358 358 358 359 359 358 358 359 359 358 358 357 357 356 356
359 359 359 358 358 358 357 357 356 356 356 356 355 355 354 354 354 353 354 355 356 357 358 357 358 358 358 358 358 358 358 359 359 359 359 359 359 358 358 357 357 357
360 359 359 359 359 358 358 358 357 357 356 356 356 355 355 355 354 354 354 355 355 356 357 357 358 357 357 357 358 358 358 358 359 359 359 359 359 359 358 358 357 357
360 360 360 359 359 359 359 358 358 357 356 356 355 355 355 355 355 354 354 354 356 356 357 357 357 357 357 357 357 358 358 358 358 359 359 359 359 359 359 358 358 357
362 361 361 360 360 359 359 359 358 357 356 355 355 355 355 355 355 356 355 355 355 356 357 357 357 357 357 357 357 357 358 359 358 358 359 359 359 359 359 359 358 358
363 363 361 361 361 360 359 359 359 358 357 356 355 355 355 355 355 356 356 356 355 355 357 357 357 358 357 357 358 357 358 359 359 359 358 358 359 359 359 359 358 359
365 364 362 362 361 360 360 359 359 358 357 357 356 355 355 355 355 356 356 356 356 356 356 356 357 357 357 358 358 358 358 358 359 359 359 358 359 358 358 359 359 359
365 365 363 363 362 361 360 359 359 359 358 358 357 356 356 356 356 356 356 356 357 357 356 357 357 357 358 358 359 359 359 359 359 359 359 358 358 359 358 358 359 359
366 366 364 363 362 361 360 360 359 359 359 358 358 357 357 356 356 357 357 357 358 358 357 358 357 357 358 358 358 359 359 360 359 359 358 359 358 358 359 358 359 359
366 366 366 364 363 362 361 360 360 359 359 358 358 357 357 356 356 356 357 357 359 359 359 359 358 358 358 359 359 360 359 360 360 359 359 358 359 358 359 359 359 359
365 366 366 365 365 363 363 362 361 359 359 359 358 358 358 357 357 356 356 358 358 358 359 360 360 359 359 359 359 360 360 360 361 359 358 358 359 359 359 359 359 359
364 366 365 365 366 364 364 363 362 361 360 360 359 359 358 358 357 357 357 357 357 358 359 359 360 360 360 360 359 359 360 360 361 361 359 359 359 359 359 360 360 359

ECMWFNIL_925_thetae_039.txt.gz
Theta_e
353 353 353 353 353 352 352 352 352 351 351 351 351 351 351 350 350 349 349 349 349 350 350 351 350 349 348 350 352 353 355 355 356 356 356 357 357 355 353 350 351 350
353 353 353 353 352 352 352 352 352 351 350 350 350 350 351 351 350 349 349 349 349 349 350 351 351 350 350 351 351 353 354 356 357 357 357 357 357 357 354 352 351 351
354 353 353 353 353 352 353 352 352 352 351 350 350 350 350 351 350 350 350 349 349 349 350 351 351 351 350 351 351 352 353 355 357 357 357 357 357 358 356 354 352 351
354 353 353 353 353 353 352 352 352 352 352 351 350 350 350 350 350 350 350 350 350 349 350 350 351 351 352 352 352 352 352 353 356 357 358 357 357 358 357 355 354 353
354 354 353 353 353 352 352 352 352 352 352 352 351 350 350 350 349 350 350 350 350 350 350 350 351 352 352 352 353 353 353 353 354 357 359 358 357 358 358 357 356 355
354 353 353 353 353 353 352 352 352 352 352 352 352 351 350 350 349 349 350 350 350 350 350 351 352 351 352 353 353 353 354 354 353 356 358 358 358 358 358 357 357 356
353 353 353 353 353 352 352 352 352 352 352 352 352 351 352 350 350 350 350 350 350 350 351 351 351 352 352 353 353 354 354 354 354 355 357 358 359 358 358 358 357 356
353 353 352 352 352 352 352 352 352 352 352 352 352 351 352 351 351 351 351 351 351 351 352 351 351 352 352 353 354 355 355 355 355 356 357 358 359 358 358 358 358 357
352 353 352 352 352 352 352 352 352 352 352 353 352 352 352 351 352 351 351 351 352 352 352 353 352 352 352 353 354 354 355 355 355 356 357 358 358 358 358 358 358 357
352 352 353 352 352 352 352 352 352 352 352 353 353 352 353 352 352 352 352 352 353 353 353 353 354 353 353 353 353 355 355 355 356 356 357 357 358 357 358 357 357 357
353 352 352 352 352 352 352 352 353 353 353 352 353 353 353 352 352 352 353 353 353 353 354 354 354 354 354 353 354 354 356 355 355 357 356 356 356 357 357 357 356 357
353 353 352 352 353 353 353 353 353 353 353 353 353 353 353 353 353 353 353 354 353 353 354 355 355 355 354 354 354 354 356 356 356 356 356 356 356 356 356 356 356 356
354 353 353 353 353 353 353 353 353 353 353 353 353 353 353 354 354 354 353 354 354 354 354 355 355 355 355 355 355 355 356 356 355 356 356 356 356 356 356 356 356 355
354 354 353 353 354 353 354 354 354 354 354 353 354 353 353 353 354 354 355 355 355 354 354 355 355 355 355 354 355 355 355 356 356 356 356 356 356 356 356 355 355 356
354 354 355 354 355 354 354 354 354 354 354 354 354 354 353 353 353 353 354 355 356 355 355 355 355 355 355 354 355 355 355 355 356 356 356 356 356 356 356 356 355 355
354 354 355 355 355 355 355 355 354 355 355 354 354 354 354 354 353 353 353 353 355 355 355 356 356 355 355 355 355 355 355 355 356 356 356 356 356 356 356 356 356 355
355 355 355 355 355 355 355 355 355 355 355 354 355 354 354 354 354 353 352 352 353 353 354 355 355 355 355 355 355 355 355 356 356 356 356 357 357 356 356 356 356 356
356 356 356 355 355 356 355 355 355 355 355 355 354 354 354 354 353 353 353 352 352 352 352 353 353 354 353 354 354 355 356 356 356 356 357 357 357 356 357 357 356 357
357 356 356 356 356 355 356 355 355 355 355 355 355 355 355 354 354 354 353 353 353 352 352 352 352 352 352 353 354 354 355 356 356 356 356 357 357 357 357 357 357 357
357 357 357 357 357 356 356 356 355 356 356 355 355 355 354 354 354 354 354 353 353 352 353 352 352 352 353 353 353 354 355 355 355 356 356 356 356 357 356 357 357 357
358 358 357 358 357 357 357 357 357 356 356 356 355 355 355 354 354 354 354 353 353 353 353 353 352 352 352 352 353 354 354 355 355 356 356 356 356 357 356 357 357 357
359 359 358 358 358 358 358 357 357 357 356 357 356 355 355 355 354 355 354 354 354 353 353 353 353 353 353 353 353 354 354 356 356 356 356 356 356 356 356 357 357 357
360 360 360 359 359 358 358 358 358 358 357 357 356 356 356 355 355 354 354 354 354 353 354 354 353 353 353 353 353 354 355 356 356 356 356 356 355 356 356 356 356 356
361 362 361 360 360 360 359 359 358 359 358 358 357 357 356 356 355 355 354 354 354 354 354 353 353 353 354 354 354 354 354 355 356 356 356 356 356 356 356 356 356 357
362 362 362 362 361 360 360 360 359 359 359 358 358 357 357 356 356 355 355 355 354 354 354 353 354 354 354 354 354 354 355 355 356 356 356 355 355 356 356 356 356 357
364 364 363 363 363 362 361 361 360 360 360 359 359 358 358 357 356 356 355 355 355 354 354 354 355 354 355 355 355 355 355 355 356 356 355 355 355 355 356 356 356 356

ECMWFNIL_925_thetae_042.txt.gz
Theta_e
352 352 352 352 352 352 351 351 351 351 351 351 351 350 351 351 351 350 349 350 349 349 349 348 348 349 349 350 350 348 347 348 351 352 353 354 354 354 355 355 353 352
353 352 352 352 352 352 352 352 351 351 351 351 351 350 351 351 351 350 349 350 350 349 349 348 348 348 349 350 350 350 349 349 350 352 353 354 355 355 356 356 356 355
353 353 352 352 352 352 351 351 351 351 351 351 351 351 350 351 350 350 350 350 350 350 348 348 348 348 349 350 351 351 350 349 350 351 353 354 355 356 355 356 356 357
353 353 353 352 352 352 351 352 351 352 352 351 351 351 350 350 350 349 350 350 350 349 349 348 348 348 348 349 350 351 351 350 350 351 352 353 355 356 356 356 357 357
353 353 353 352 352 352 352 352 352 352 352 351 351 351 350 350 349 349 349 349 350 350 349 349 349 348 348 348 350 351 352 351 351 351 352 352 353 354 355 356 356 357
353 353 352 353 352 352 352 351 352 352 352 351 351 351 351 350 350 349 348 348 349 349 350 349 349 349 349 349 350 351 351 352 352 352 353 352 352 352 353 355 356 356
353 353 352 352 352 352 352 352 352 351 351 352 351 351 351 351 350 349 348 348 348 349 349 348 349 348 349 349 350 351 352 352 352 353 353 353 352 352 352 353 355 356
353 353 353 353 353 352 352 352 352 352 351 351 351 351 351 351 350 350 349 349 348 348 348 348 348 348 349 349 350 351 352 352 352 353 353 353 354 353 353 353 354 355
353 353 353 353 352 352 352 352 352 352 352 352 351 351 351 351 351 350 350 350 349 349 348 348 348 348 349 349 349 351 351 351 352 352 353 354 353 353 354 354 355 354
353 353 353 352 353 352 352 352 352 352 352 351 351 351 351 350 351 350 351 351 351 350 350 348 349 349 349 349 349 350 351 351 351 352 352 352 353 353 354 354 355 355
353 353 353 353 353 352 352 352 352 352 352 352 352 351 351 351 350 351 351 351 351 351 351 349 349 350 350 350 350 350 351 351 352 352 352 352 352 353 353 354 354 355
353 353 352 352 352 352 352 352 352 352 352 352 351 351 351 351 351 351 351 351 351 351 351 350 350 350 350 350 351 351 352 352 352 352 352 352 353 353 354 354 355 354
352 353 352 352 352 352 352 352 352 352 351 351 352 351 352 351 351 352 351 351 351 351 351 351 350 351 350 350 351 351 352 352 353 353 353 353 353 353 354 354 354 354
351 352 352 352 352 352 352 351 352 352 351 351 351 351 351 351 351 351 352 351 352 351 351 351 351 351 351 351 351 352 352 352 353 353 353 353 353 353 353 354 355 354
352 352 352 351 352 351 351 351 351 351 351 351 351 351 351 351 351 351 351 352 352 352 352 351 352 352 352 352 352 352 352 353 353 353 353 353 353 353 353 353 354 354
351 352 351 352 351 351 351 351 351 352 351 351 352 352 351 352 352 352 352 352 352 352 352 352 352 352 351 351 352 352 352 353 353 353 353 353 353 353 353 353 353 354
351 351 352 352 352 352 351 351 352 351 352 352 352 352 352 352 352 352 352 352 352 352 353 353 353 353 352 352 352 352 353 353 353 353 353 353 353 353 353 353 354 353
351 351 352 352 352 352 351 352 352 352 352 352 352 352 352 352 352 352 352 352 352 352 352 353 353 353 353 353 353 353 353 353 353 353 353 353 353 353 353 353 354 354
352 352 352 353 352 353 353 353 353 352 353 352 352 353 353 353 353 352 352 352 352 352 352 352 352 352 352 353 353 353 353 354 354 354 354 354 354 354 354 354 354 354
353 352 352 353 353 353 353 353 353 353 353 353 353 353 353 353 353 353 353 353 353 352 352 351 352 352 351 352 352 352 352 353 353 354 354 354 354 354 354 354 354 355
353 354 353 353 353 353 353 354 353 353 353 353 354 353 354 353 353 353 353 353 353 353 353 352 352 352 351 351 351 351 351 352 352 353 353 353 353 353 353 354 354 354
354 354 354 354 354 354 354 354 353 354 353 354 354 354 353 354 353 354 354 353 353 353 353 352 352 352 352 351 351 351 351 351 352 352 352 352 352 353 353 354 354 354
354 355 355 355 355 354 354 354 354 354 354 354 354 354 354 354 354 353 353 353 353 353 353 353 352 352 352 352 352 351 351 351 351 351 352 353 352 353 353 353 353 353
355 355 356 355 355 355 355 355 355 355 355 354 354 354 354 354 354 354 354 354 353 353 353 353 353 352 353 352 352 352 352 352 352 352 352 352 352 352 353 353 353 353
356 357 356 356 356 356 356 356 356 356 356 355 355 355 355 355 355 354 354 354 354 353 353 353 353 353 353 353 353 353 352 352 352 352 352 352 352 352 353 353 353 353
357 358 357 357 357 357 356 356 356 356 356 356 356 356 355 355 355 355 355 354 354 354 354 353 353 353 353 353 353 353 352 352 352 352 352 352 352 352 352 353 353 353

ECMWFNIL_925_thetae_045.txt.gz
Theta_e
351 350 350 351 350 350 350 350 349 349 349 350 352 351 351 350 349 349 349 349 350 350 350 349 350 349 349 350 349 352 354 354 353 352 352 354 355 354 355 355 354 354
351 351 350 351 351 350 350 350 349 349 348 348 350 351 350 349 349 349 348 349 350 350 350 349 349 349 350 350 349 353 357 356 356 355 354 355 356 355 355 355 355 355
352 352 351 352 352 351 351 351 350 349 349 348 349 350 350 349 349 349 348 349 349 350 350 349 349 349 349 350 349 352 356 357 357 356 355 355 356 356 355 356 356 356
352 353 352 353 353 352 352 353 352 350 351 350 349 350 350 350 350 350 349 349 349 350 350 349 350 349 349 349 349 351 356 357 357 357 356 355 356 356 355 356 357 357
353 353 353 353 354 354 354 353 353 352 351 351 350 350 350 350 350 350 350 350 350 350 350 350 350 349 350 349 349 352 355 357 357 357 357 357 356 355 354 354 355 356
354 353 353 354 354 355 354 353 353 353 352 352 351 351 351 350 350 351 350 350 350 350 351 351 350 350 350 349 349 351 354 357 357 356 356 358 357 356 353 352 352 354
355 355 354 355 355 354 354 354 354 353 353 353 352 351 351 351 351 351 350 350 350 350 350 350 350 350 350 350 349 350 352 354 356 356 357 358 358 358 356 352 351 352
356 356 355 355 355 355 355 354 354 353 353 352 352 352 351 351 351 351 351 350 350 350 350 349 349 349 350 351 350 350 351 353 353 355 357 357 358 358 357 355 352 352
356 356 356 355 355 355 355 355 354 354 353 352 353 353 352 352 351 351 351 351 351 350 350 349 349 349 349 350 350 349 350 352 352 352 353 355 356 356 356 355 353 352
356 356 356 356 355 355 355 355 355 355 354 353 353 353 353 352 351 351 351 351 351 350 350 349 349 349 350 350 349 349 349 350 351 350 350 352 353 354 355 355 354 353
356 356 356 356 355 355 355 355 355 355 354 354 354 354 354 353 352 351 351 351 351 351 350 349 349 349 350 350 350 350 349 350 350 349 350 350 351 352 354 353 353 354
356 356 356 356 356 355 355 355 355 355 355 354 354 354 354 354 353 352 352 352 351 351 350 350 350 350 350 350 351 351 351 350 350 350 350 350 351 352 353 353 353 353
356 356 356 356 356 355 355 355 355 355 355 354 354 354 354 354 354 353 352 351 351 351 351 350 350 350 350 350 351 352 352 351 351 351 352 352 352 353 354 355 355 354
356 356 356 356 356 356 355 355 355 355 355 355 354 354 354 354 354 353 353 352 352 352 352 351 351 351 351 351 350 351 352 352 351 352 353 354 354 353 354 355 356 356
356 356 357 356 356 356 355 355 355 355 355 355 355 354 354 354 354 354 354 353 353 353 353 353 354 353 353 352 351 352 352 353 354 353 354 355 355 355 355 356 356 357
356 356 356 356 355 355 355 355 355 355 355 355 355 355 354 355 355 355 355 354 354 354 354 355 355 354 352 351 351 352 353 354 355 354 354 355 356 356 357 357 357 357
356 356 356 355 355 355 355 354 355 355 355 355 355 355 355 355 355 355 355 355 355 355 355 355 355 353 351 351 350 351 352 354 356 355 355 355 356 357 357 358 358 357
356 356 356 355 355 355 354 354 355 355 356 355 355 355 355 355 355 355 355 355 355 355 355 355 355 353 351 351 351 350 351 352 355 356 356 356 357 357 357 358 358 357
356 356 356 356 355 355 354 354 355 355 355 355 355 355 355 355 355 355 355 355 355 355 355 355 355 354 352 351 351 351 350 351 353 355 357 357 357 357 357 357 358 358
355 356 356 356 355 354 354 355 355 355 356 355 355 355 356 356 355 355 356 356 355 355 355 355 355 354 353 352 351 351 351 351 352 353 356 357 357 357 358 358 357 358
356 356 356 356 356 355 355 355 355 356 356 355 355 356 356 356 355 356 356 356 356 356 356 355 355 354 353 352 352 351 351 351 352 352 354 356 357 357 357 358 357 358
356 356 356 356 356 356 356 356 356 356 356 355 355 356 356 356 356 356 356 356 356 356 356 356 355 354 353 352 352 351 351 351 352 352 353 355 356 357 357 357 357 357
356 356 356 356 357 357 357 357 357 357 356 356 356 356 356 357 357 356 356 357 357 356 356 356 356 355 353 352 352 352 351 351 351 351 352 354 355 355 356 356 356 356
356 356 357 357 357 357 357 357 357 357 357 357 356 357 357 357 357 357 357 357 357 357 357 357 357 356 354 353 353 352 352 351 351 351 352 353 353 354 354 354 354 353
357 357 357 357 358 358 357 357 357 357 357 357 357 357 357 357 357 357 358 358 357 357 357 356 357 357 355 354 353 353 352 352 351 351 353 353 354 354 354 354 353 353
357 358 358 358 358 358 357 357 358 357 358 358 358 357 358 358 358 358 358 358 358 358 357 356 356 357 356 355 354 353 353 352 352 352 353 354 354 354 355 355 355 354

ECMWFNIL_925_thetae_048.txt.gz
Theta_e
357 357 357 357 356 354 355 356 355 354 354 352 352 352 354 356 357 357 357 359 359 358 359 358 358 357 357 356 356 357 357 356 357 357 358 358 358 358 356 355 355 356
358 358 357 357 357 357 356 356 356 355 355 354 352 353 355 358 359 358 358 358 358 358 358 358 358 357 357 357 356 357 356 357 357 356 357 358 358 357 356 355 355 356
358 357 358 357 357 358 356 357 357 357 356 357 355 354 356 358 359 359 358 358 358 357 357 358 358 358 357 357 357 357 356 357 357 356 357 358 358 357 356 356 355 355
359 359 359 358 357 358 357 357 358 358 357 358 358 356 356 357 358 358 359 359 357 357 357 358 357 357 358 358 358 357 356 357 358 357 358 358 358 358 357 356 355 355
359 359 359 359 357 358 359 357 358 359 358 358 358 358 357 357 357 358 359 360 359 357 357 357 358 357 358 358 358 357 356 356 357 359 359 358 358 359 357 357 357 356
360 360 359 359 359 358 359 359 358 359 358 358 359 359 359 359 358 358 359 359 358 356 355 356 357 357 356 358 358 357 357 355 356 358 359 359 359 358 357 357 358 359
360 360 359 359 359 358 359 359 359 359 359 359 359 359 359 359 360 359 358 359 358 357 356 356 357 358 356 357 359 359 358 357 356 358 359 360 359 359 359 358 359 360
360 360 359 359 359 358 359 360 360 360 359 359 359 359 359 360 360 359 359 359 358 358 358 357 359 359 358 357 358 359 359 358 357 359 360 360 360 360 360 359 360 361
359 360 360 359 359 358 359 360 360 360 360 360 359 359 360 360 359 359 359 359 359 359 359 360 360 360 359 358 359 360 361 358 358 359 360 360 360 360 360 360 361 362
360 360 360 360 359 358 359 359 359 359 360 360 359 358 359 360 360 359 360 360 360 360 361 360 361 361 360 359 360 361 361 360 359 359 360 361 360 360 360 360 361 361
360 360 359 360 359 358 358 358 358 358 359 360 360 358 358 359 360 359 360 361 362 361 360 361 361 361 361 360 359 360 361 361 359 360 360 361 360 360 360 360 361 361
361 361 359 360 360 358 358 358 357 357 358 359 360 359 358 359 360 360 360 361 362 361 361 362 361 361 362 361 359 358 359 359 359 359 360 360 360 360 360 360 361 360
361 360 359 360 360 359 358 358 357 357 357 359 360 359 358 358 359 361 360 361 362 361 361 361 362 362 362 362 360 358 359 360 359 359 359 360 360 360 359 359 360 360
361 361 361 360 361 360 359 358 358 358 358 359 360 360 359 358 358 361 361 361 362 361 361 360 361 362 362 362 362 359 358 359 359 359 358 358 359 359 359 358 358 359
360 361 361 361 361 361 361 359 360 359 358 359 360 360 359 358 358 359 361 361 361 361 361 360 361 361 361 362 362 361 359 358 359 360 358 357 359 359 359 359 358 357
361 361 362 362 361 361 362 361 360 361 360 360 361 360 360 359 359 358 359 361 361 361 361 360 360 360 360 359 359 360 360 359 358 359 360 359 360 359 359 359 359 358
362 362 363 363 362 363 363 363 362 362 361 362 362 361 362 361 360 360 359 359 361 360 361 360 360 360 359 358 356 355 357 360 360 360 360 361 361 361 361 360 359 359
363 363 363 364 364 363 364 363 363 363 362 363 362 362 362 361 361 361 360 359 359 359 360 360 360 360 358 356 353 351 352 356 359 361 360 361 362 361 361 361 359 359
364 364 364 365 365 365 364 364 363 363 363 363 362 362 362 362 362 362 361 361 360 359 359 360 360 359 358 355 353 350 349 351 355 358 360 360 362 362 362 362 361 361
365 365 365 365 366 364 364 365 364 363 363 363 362 362 363 362 362 362 362 362 361 360 360 359 360 359 358 356 354 352 350 350 352 356 358 359 361 361 362 363 363 363
366 366 365 366 365 365 365 365 364 364 363 363 362 362 363 363 362 362 362 362 361 361 360 360 359 359 358 357 356 353 352 352 352 354 357 358 360 361 362 363 363 363
366 366 365 366 366 365 365 364 364 364 363 363 362 362 362 362 363 362 362 362 362 361 360 360 359 359 358 358 356 355 354 353 352 354 357 358 359 360 361 362 362 363
365 365 365 365 365 365 365 365 364 364 364 362 362 361 361 362 362 362 362 361 362 362 361 360 360 359 358 357 356 356 354 354 354 355 357 358 360 360 361 362 363 363
364 364 364 365 365 365 364 364 364 364 363 362 362 361 360 360 361 362 362 361 361 362 362 361 361 361 359 358 356 355 355 354 355 357 358 359 360 360 362 362 362 362
364 364 364 364 365 364 364 364 363 363 363 363 362 361 360 360 361 361 362 361 361 361 362 361 361 361 360 358 357 356 354 354 355 358 359 360 360 361 361 362 362 361
363 363 364 363 365 365 364 363 363 363 362 363 362 361 361 360 360 360 361 361 361 361 362 361 361 361 361 359 358 357 356 355 355 358 359 360 360 361 361 362 363 362

ECMWFNIL_925_thetae_051.txt.gz
Theta_e
355 355 354 352 350 347 347 352 354 353 349 348 349 351 351 351 352 353 354 357 358 358 359 359 361 361 359 359 359 359 358 358 357 356 357 358 359 359 358 357 357 356
358 358 357 355 354 353 351 353 353 353 352 349 348 350 351 351 352 354 354 357 359 359 359 359 361 361 360 358 358 359 359 359 359 356 356 358 358 358 358 357 356 356
360 359 358 356 355 356 354 353 354 354 353 352 350 349 351 352 353 355 355 356 358 359 358 358 359 360 360 359 358 359 359 360 360 357 356 358 359 358 357 357 356 355
360 360 360 357 356 356 356 354 355 356 355 354 354 351 350 351 354 357 357 357 357 356 357 357 358 358 359 359 359 359 358 358 360 358 357 358 359 358 357 356 355 355
362 361 360 359 357 357 357 356 355 357 356 354 355 354 352 352 355 357 358 358 357 357 355 356 357 358 358 359 359 359 357 357 359 359 360 359 360 359 357 356 356 356
362 362 361 361 358 358 358 358 356 358 358 356 356 356 355 355 356 357 358 358 357 355 355 355 357 358 358 358 359 359 358 356 356 358 360 361 360 358 355 354 356 357
363 363 363 361 360 358 359 360 359 358 359 357 356 356 356 356 358 357 357 358 357 354 353 354 356 356 356 358 358 359 359 358 356 357 360 361 361 358 356 355 356 358
363 364 363 361 360 359 359 360 360 359 359 358 357 357 357 357 358 358 357 358 358 356 354 354 355 356 356 356 357 359 360 359 357 357 359 361 361 360 360 358 358 358
363 363 362 361 360 359 359 359 359 360 360 360 357 357 357 358 358 358 358 359 359 356 355 355 356 357 357 356 356 358 360 358 357 356 358 361 361 361 361 360 359 359
363 362 362 361 359 358 358 357 359 360 360 361 359 356 356 358 359 359 359 361 361 359 358 356 357 358 359 358 357 357 359 359 357 357 357 359 360 359 360 360 360 359
361 361 361 361 358 357 358 357 357 357 358 360 360 357 355 357 360 360 360 362 362 361 360 360 359 360 360 359 357 357 359 359 359 358 358 360 360 360 359 360 360 359
360 359 360 361 359 357 356 357 357 355 356 359 360 358 356 355 360 361 361 362 364 362 362 362 361 361 361 360 357 357 358 359 359 358 359 360 360 360 360 360 360 359
360 359 359 359 359 357 356 356 356 354 355 357 359 359 356 354 357 361 362 362 365 364 363 363 363 363 363 363 359 357 357 359 358 358 359 360 360 360 360 359 359 360
359 360 359 359 360 358 357 356 357 355 353 355 357 359 358 355 355 360 362 362 363 365 363 363 365 364 364 364 363 359 357 358 360 358 357 358 358 358 358 357 356 356
361 360 360 360 360 359 358 357 357 357 355 355 357 359 358 356 353 356 360 361 362 364 364 363 364 364 363 364 365 363 359 358 360 360 358 357 357 357 358 356 356 353
362 362 361 361 361 361 360 358 357 358 356 356 357 360 359 357 355 354 357 360 362 363 364 363 362 363 363 363 364 364 362 358 359 360 360 358 356 356 356 356 355 354
364 363 363 363 363 363 362 361 360 359 359 357 357 360 361 359 358 355 355 358 360 361 362 362 361 360 361 362 362 362 362 360 359 359 361 361 359 357 357 356 354 354
366 365 366 365 364 364 364 363 361 361 360 360 359 361 363 362 361 359 357 357 359 359 360 361 361 360 359 361 360 358 358 359 360 358 359 361 361 360 358 358 356 354
366 367 367 367 366 366 367 365 364 363 363 362 362 362 364 365 363 361 360 359 358 359 359 359 359 359 359 359 360 357 355 355 358 359 358 359 360 361 360 359 358 357
368 368 368 368 368 367 368 367 366 365 365 364 364 364 365 366 365 362 362 362 361 360 360 360 358 358 360 359 358 358 355 353 355 359 359 358 359 360 361 360 360 360
369 368 368 370 369 369 369 369 367 367 366 365 364 364 365 367 365 363 363 363 362 361 361 362 360 357 359 360 359 358 356 354 355 358 360 360 360 362 362 362 362 362
369 369 370 371 371 369 370 370 368 368 367 366 365 364 365 367 366 365 365 364 364 362 361 361 360 359 359 360 360 359 357 356 356 357 359 360 360 361 361 363 364 364
370 370 371 371 371 370 371 370 370 369 369 367 365 363 364 366 366 365 364 364 365 364 362 361 360 359 359 360 360 360 358 357 357 358 360 361 361 361 361 362 363 363
370 370 371 371 372 372 370 371 370 370 369 368 366 363 362 364 365 365 364 363 365 365 364 363 360 359 360 359 359 359 359 357 358 359 360 361 362 363 362 363 363 361
370 371 371 372 372 371 370 370 370 369 369 368 366 364 361 361 363 364 364 363 362 364 365 363 360 358 359 359 359 359 358 358 359 360 361 361 363 363 364 363 364 363
371 371 371 372 373 371 370 371 370 369 369 368 366 363 361 361 360 361 363 363 361 362 363 364 362 359 360 360 359 359 358 357 359 361 361 362 363 364 364 364 364 365

ECMWFNIL_925_thetae_054.txt.gz
Theta_e
344 342 342 342 342 342 344 347 347 347 347 348 350 351 351 351 352 354 354 355 355 357 359 359 360 360 360 360 359 359 358 358 358 357 357 359 359 359 359 358 356 356
345 343 342 342 342 341 342 346 349 350 349 348 348 350 350 349 350 352 353 355 355 356 358 359 360 361 361 362 361 359 359 359 359 358 357 357 358 359 359 358 357 357
346 345 343 342 342 341 341 343 347 350 352 350 347 348 350 349 349 350 352 353 355 357 358 359 359 361 362 362 360 359 360 361 361 359 357 357 357 359 358 358 357 357
347 347 345 343 342 342 342 341 344 349 351 352 349 346 348 350 351 351 351 354 355 357 359 359 359 360 362 362 361 359 360 360 361 360 359 357 357 358 359 358 357 356
348 348 347 345 344 344 343 341 344 347 350 352 351 348 346 348 351 352 352 354 355 357 359 359 359 359 361 362 360 360 359 359 360 359 360 358 358 359 359 358 357 356
350 349 348 347 346 346 346 344 344 347 349 350 352 351 348 347 350 353 353 355 355 357 359 359 359 358 359 360 360 360 359 359 358 359 360 359 359 359 360 359 357 356
355 352 351 351 350 348 349 350 349 349 351 352 351 352 352 350 350 352 354 356 357 357 358 357 358 357 358 359 360 359 359 359 358 358 359 359 360 361 360 358 356 355
359 355 354 354 353 351 351 353 352 351 352 354 353 352 353 352 351 352 354 357 358 358 357 357 356 357 358 358 359 359 360 360 359 357 358 358 359 361 361 359 357 355
360 359 356 356 356 354 352 354 355 355 353 354 355 354 355 354 353 353 355 357 359 358 357 355 355 356 357 358 358 358 359 360 359 358 357 358 359 361 361 360 360 358
361 361 360 358 357 356 354 354 356 357 355 356 357 356 355 356 356 355 355 357 358 359 358 356 354 355 356 357 358 357 358 358 359 358 357 358 359 361 362 361 361 361
362 362 360 360 358 356 356 355 356 358 358 357 358 357 356 357 357 356 357 357 358 359 359 356 355 355 355 356 356 357 357 357 359 359 358 358 358 360 361 361 361 360
363 361 362 361 359 358 357 357 357 359 359 358 358 357 357 357 358 358 358 358 358 359 359 357 355 355 355 356 356 356 357 358 359 359 359 358 357 358 360 360 361 360
362 361 362 362 360 358 357 357 357 358 358 359 359 358 357 356 358 358 358 359 358 358 360 359 357 355 356 356 357 357 357 358 359 359 360 359 357 358 359 360 360 360
362 361 362 362 360 358 356 357 357 357 358 360 360 359 358 356 357 359 359 360 360 360 360 361 358 357 356 356 358 358 357 358 358 358 360 359 358 358 359 360 360 359
363 363 361 361 360 358 356 357 357 357 357 358 360 360 359 358 356 358 360 360 360 362 362 362 361 359 359 358 359 359 357 357 357 358 360 359 358 358 359 359 358 358
363 362 361 361 361 359 357 357 356 357 357 357 358 359 359 359 357 356 360 361 361 363 364 363 362 362 361 360 360 359 358 356 356 357 359 358 358 358 358 358 358 357
363 362 361 361 360 360 358 357 357 357 357 357 359 359 359 360 357 355 358 361 361 363 365 365 364 363 363 362 362 360 359 356 354 355 357 358 358 358 358 357 356 356
362 362 361 361 360 361 360 358 357 358 358 357 357 358 358 359 358 357 356 359 362 363 364 365 364 362 362 362 363 362 361 358 357 356 356 358 359 359 358 357 356 355
363 363 362 360 361 362 360 359 358 358 360 358 358 359 359 358 359 358 356 357 360 362 362 363 364 362 361 361 362 363 360 359 359 358 356 357 359 359 359 358 357 355
364 364 363 362 362 362 362 361 360 359 360 360 358 358 358 360 360 359 358 356 357 360 361 361 363 362 361 360 361 362 360 359 358 358 358 357 357 358 360 359 358 357
365 365 364 364 363 363 363 363 361 361 361 361 359 358 359 361 361 359 360 357 357 358 360 361 361 361 360 360 360 360 360 358 357 357 359 359 358 359 359 359 360 359
367 366 366 366 364 364 365 364 363 362 361 360 359 358 359 361 362 362 361 360 358 357 358 359 359 359 360 360 360 359 360 360 358 357 357 358 359 360 359 359 360 360
368 367 368 367 366 366 367 365 365 363 362 361 360 359 359 361 363 364 363 362 361 359 359 359 359 359 359 359 359 359 358 359 359 358 358 358 358 359 360 360 360 361
368 368 368 369 369 368 367 367 365 364 363 363 362 362 361 362 364 365 364 364 362 362 361 360 360 359 360 359 358 358 358 359 359 359 360 360 358 358 358 359 360 361
368 369 370 370 370 369 368 368 368 366 365 364 363 362 361 363 364 365 365 364 363 362 363 362 361 360 360 360 359 358 358 359 358 359 360 360 359 359 359 358 358 358
370 370 370 370 370 370 369 370 369 368 366 364 364 364 363 362 363 364 366 366 363 363 364 363 362 360 360 360 359 359 359 359 359 360 360 360 360 360 360 360 359 359

ECMWFNIL_925_thetae_057.txt.gz
Theta_e
345 346 347 349 346 343 342 342 342 343 343 347 350 352 352 353 353 354 354 356 355 354 356 358 358 358 357 357 356 356 356 356 356 357 357 358 358 358 358 358 358 356
346 346 346 348 347 344 342 339 340 342 343 344 346 348 350 349 351 354 354 354 355 354 353 356 358 359 358 358 357 356 356 356 357 358 357 357 357 357 358 359 358 357
346 347 346 346 346 345 343 341 339 339 341 343 345 346 347 347 349 353 354 353 354 354 353 354 356 358 358 358 358 357 355 354 355 356 356 357 357 356 357 357 357 357
346 346 346 345 344 344 343 343 342 339 339 342 344 346 347 346 348 351 353 353 353 354 354 354 355 357 358 358 359 359 357 355 353 352 355 358 357 356 357 357 357 357
347 346 345 344 342 342 343 344 345 342 341 340 341 345 347 346 346 348 351 353 353 353 354 354 355 357 359 358 358 360 359 357 355 354 355 357 357 357 357 357 357 357
347 346 344 343 342 340 341 342 344 345 346 344 342 344 347 349 348 347 348 351 351 352 354 355 355 357 359 359 358 359 359 357 356 357 356 355 356 357 358 357 357 357
348 346 345 343 342 341 339 339 340 343 345 347 347 346 346 348 350 350 348 349 349 351 353 354 356 357 358 359 359 359 359 357 356 358 357 355 355 356 357 358 359 357
348 346 345 344 342 341 340 339 338 339 341 345 348 349 348 346 347 349 349 350 350 351 352 353 356 357 358 359 359 359 360 358 357 358 358 357 356 356 355 357 359 359
347 347 346 345 344 342 341 340 339 338 339 342 345 347 350 349 346 345 348 351 351 351 352 353 355 357 358 358 359 359 359 358 357 357 358 358 358 356 355 355 356 357
349 348 346 345 345 343 342 341 340 339 339 340 343 344 347 350 349 346 346 350 353 352 353 353 354 356 358 357 357 357 358 358 357 357 356 358 358 357 356 356 355 355
350 349 347 346 346 344 343 342 342 341 341 340 343 346 347 349 351 349 348 350 353 353 353 353 354 355 357 357 356 356 357 358 357 356 356 355 356 355 357 357 357 356
354 351 349 347 346 345 344 344 344 344 344 344 344 347 349 350 351 351 350 350 353 354 354 355 355 356 357 356 356 356 357 357 357 357 357 357 355 354 356 356 358 359
356 354 353 350 348 347 346 346 346 346 347 347 347 348 351 352 352 352 352 351 353 354 355 356 356 356 356 356 355 355 356 358 358 357 357 356 357 357 357 356 357 358
358 357 355 353 351 350 349 349 348 348 349 350 350 351 352 353 353 354 353 353 353 354 355 356 357 357 356 355 354 354 356 357 357 357 356 355 356 357 357 357 357 357
360 358 357 356 354 352 351 350 350 349 350 352 353 352 352 354 354 355 355 354 354 355 355 356 358 358 357 356 355 354 354 355 356 357 357 356 355 356 356 356 356 357
360 359 359 357 356 354 353 352 352 351 351 352 355 354 354 354 354 356 356 356 356 357 357 358 358 358 358 356 355 354 354 355 356 356 357 357 357 357 356 356 356 356
361 360 360 358 358 356 355 354 354 353 353 354 356 356 356 355 355 356 356 356 356 357 357 358 359 359 359 357 356 355 354 355 355 357 357 357 358 359 358 358 357 356
362 361 360 359 359 358 356 355 355 354 355 356 357 358 357 356 356 357 357 357 357 357 358 358 358 359 359 359 357 356 355 355 355 357 358 358 357 357 358 359 358 357
363 361 361 360 359 359 358 357 356 356 356 356 357 358 358 357 358 357 357 358 358 358 358 359 359 359 359 359 358 357 356 355 355 356 357 357 357 357 358 357 358 357
363 362 361 361 360 360 359 358 356 357 357 356 358 359 359 358 359 358 357 358 358 358 358 359 360 359 359 360 360 360 358 356 356 356 356 356 357 357 357 357 356 357
364 363 361 362 361 360 360 359 358 357 357 357 357 358 359 359 359 358 357 358 359 359 359 359 360 360 360 361 360 360 360 358 358 358 358 356 355 356 357 357 357 357
364 363 362 362 361 361 361 360 359 358 357 358 358 357 359 359 359 359 358 357 359 359 360 360 361 361 361 361 361 361 361 361 360 359 359 359 357 356 356 357 357 357
364 363 363 362 362 362 361 361 360 358 358 358 358 358 359 359 359 359 359 358 358 359 361 361 361 361 362 362 361 361 361 362 361 361 361 360 359 358 357 358 357 358
364 363 363 363 362 362 361 362 361 359 358 358 358 358 358 358 359 359 359 358 358 358 359 360 361 361 361 361 362 361 361 361 361 361 361 360 359 359 359 359 358 359
364 364 364 363 362 362 361 362 362 361 359 358 358 358 357 358 359 359 358 359 358 357 357 358 359 360 361 361 360 360 360 360 360 360 360 361 360 359 358 359 359 359
365 364 363 363 363 363 362 362 362 361 360 359 359 359 358 358 359 359 360 359 359 359 358 357 357 358 359 360 360 360 360 360 359 359 360 360 360 359 359 358 358 357

ECMWFNIL_925_thetae_060.txt.gz
Theta_e
345 346 346 345 344 344 342 342 343 345 347 349 350 350 349 351 353 355 355 354 355 356 357 355 354 355 355 356 356 357 356 354 354 354 355 355 354 354 356 356 356 356
345 345 346 345 344 343 342 343 343 343 344 347 347 347 348 350 352 353 354 355 355 355 356 356 356 356 355 355 355 356 357 355 354 355 355 356 356 354 355 356 357 357
345 346 346 345 344 342 342 345 345 343 342 344 346 345 348 350 351 351 352 353 354 354 355 356 358 358 356 355 355 355 356 356 356 356 356 357 356 355 355 356 357 358
344 344 345 345 344 341 340 343 345 344 342 343 345 345 347 349 350 351 351 352 353 354 354 355 356 357 357 357 355 355 354 355 356 357 357 356 356 356 355 356 357 358
344 344 345 345 345 343 340 341 344 344 343 343 344 344 346 348 350 350 351 351 352 353 354 354 354 355 357 357 357 356 354 353 353 355 356 356 356 357 356 356 356 357
345 344 344 345 346 345 343 342 343 344 342 343 342 343 344 347 349 350 349 348 350 352 353 353 353 354 355 356 357 357 356 354 352 352 354 353 353 356 356 356 355 355
346 344 344 344 345 347 346 344 342 342 342 341 342 342 343 345 346 347 345 344 346 351 353 353 353 353 353 354 356 358 357 355 354 354 353 351 351 355 357 356 356 355
347 345 344 343 345 345 347 346 344 342 341 339 340 340 341 342 342 342 343 342 344 349 351 352 352 353 353 354 355 357 357 357 357 358 356 353 352 353 354 355 357 355
347 347 345 344 343 344 344 345 345 344 342 341 339 338 338 339 340 340 340 342 343 346 348 350 352 353 353 353 353 356 357 357 358 358 357 356 354 353 352 353 356 355
347 347 346 345 344 344 343 343 344 344 343 343 341 340 339 338 338 338 339 342 345 346 347 348 351 352 353 353 353 354 356 357 357 357 357 356 354 353 353 354 355 354
348 347 346 346 345 343 343 342 342 341 341 343 342 343 342 341 340 340 340 343 347 348 348 348 349 351 352 353 353 353 354 356 357 357 357 355 353 352 353 355 355 354
349 347 346 346 345 344 343 342 341 341 340 341 342 343 343 344 343 343 342 344 345 348 349 349 349 350 351 352 352 353 355 355 356 357 357 356 354 352 353 355 356 354
349 347 347 346 346 345 344 342 341 340 339 338 338 339 342 343 344 345 345 344 344 345 346 349 350 351 351 352 352 353 355 356 357 358 357 357 355 353 353 355 356 353
350 349 347 346 346 345 344 343 342 341 340 339 338 338 339 340 341 343 345 345 345 345 345 346 349 351 352 352 353 354 355 356 356 357 357 356 356 355 353 353 354 353
351 350 349 348 347 346 345 345 343 342 341 339 339 338 338 339 339 340 343 345 346 346 346 347 349 351 352 352 353 354 355 355 356 356 356 356 356 356 355 354 353 353
354 352 351 350 348 347 346 345 344 343 342 341 341 339 339 340 340 341 343 344 345 347 348 348 349 351 352 352 353 353 354 355 355 355 356 356 355 356 355 355 354 354
356 356 354 353 351 349 348 347 345 344 343 343 342 341 341 341 341 342 343 344 346 347 348 350 351 351 352 352 353 353 353 355 355 355 356 355 356 356 355 354 354 354
359 358 357 356 354 353 351 349 347 345 344 344 343 343 343 344 344 344 345 346 347 349 350 350 352 352 352 353 353 354 354 354 355 356 355 356 356 355 355 354 353 353
362 360 360 358 357 356 354 352 351 348 347 346 345 344 345 346 347 346 347 348 349 351 351 352 352 352 353 353 354 354 355 355 355 355 355 355 355 354 354 354 354 353
363 362 361 360 359 358 356 355 353 351 350 348 347 347 347 348 349 348 349 349 350 351 352 353 354 354 353 354 354 354 355 355 356 355 354 355 354 354 355 354 354 354
363 363 362 361 359 359 357 356 355 354 352 351 349 349 349 349 350 351 351 351 351 352 353 354 354 354 354 354 354 355 355 356 357 356 355 355 354 354 355 354 355 355
363 363 363 362 360 360 359 358 357 356 354 353 351 351 350 351 351 352 352 352 353 353 353 355 354 354 355 355 355 355 356 356 358 357 355 356 355 355 355 355 355 355
361 363 364 363 362 361 359 359 359 357 356 355 354 353 352 353 353 354 354 353 354 354 354 355 355 355 355 356 355 356 356 357 358 357 356 356 355 356 356 355 356 356
359 362 363 363 362 362 360 360 359 358 357 356 355 355 353 354 354 355 355 355 355 355 355 355 356 356 356 356 356 356 356 356 358 358 357 356 357 356 356 356 356 355
356 360 363 363 363 362 361 361 360 359 358 357 356 356 355 355 355 355 356 356 357 357 356 356 356 356 356 357 357 357 357 357 357 358 357 357 357 357 357 357 357 357
356 359 362 363 363 363 362 362 361 360 359 358 357 356 355 356 355 356 357 357 357 357 357 356 357 357 357 357 357 357 357 358 357 358 357 357 358 358 358 358 358 358

ECMWFNIL_925_thetae_063.txt.gz
Theta_e
348 348 346 345 344 343 345 347 348 349 349 349 349 349 350 349 349 351 353 354 354 354 353 353 353 353 354 355 356 356 357 355 355 354 354 354 354 353 352 351 352 353
348 347 347 345 344 343 344 346 347 347 348 347 347 348 349 348 348 350 352 354 354 354 353 353 352 352 353 354 356 356 356 355 354 355 354 354 354 354 352 352 352 353
347 348 348 346 344 342 344 345 345 346 346 346 346 347 349 348 348 349 352 354 355 354 354 353 354 353 352 353 355 356 356 355 356 355 354 354 355 354 354 352 352 353
347 347 347 347 345 342 343 344 344 345 345 345 345 345 347 348 348 349 351 353 355 355 354 353 354 354 354 354 355 355 355 355 355 355 354 354 354 355 355 354 354 354
347 346 346 346 346 345 344 344 343 344 344 344 343 343 344 346 347 347 348 351 352 354 354 353 354 353 354 355 356 356 355 355 355 355 355 355 355 356 356 355 354 355
347 346 345 346 346 346 346 344 344 343 344 343 342 341 342 343 345 346 347 349 350 352 353 353 353 353 353 355 356 357 356 355 355 355 355 356 356 356 356 355 355 354
348 346 345 345 346 346 346 345 344 344 343 342 341 342 342 342 343 344 345 346 349 350 351 351 352 353 353 354 355 356 355 356 356 355 356 355 355 355 356 356 355 354
348 348 346 345 345 345 346 345 344 343 343 341 342 343 343 342 342 342 344 346 348 350 350 350 350 351 352 353 353 354 354 356 356 356 356 355 355 355 354 354 354 355
348 348 347 345 345 345 346 345 344 343 342 341 342 343 344 343 342 342 343 345 347 349 349 349 348 347 349 352 352 353 353 353 355 355 356 356 355 353 352 352 352 354
348 347 347 346 345 344 345 345 345 343 342 342 341 343 344 344 343 342 343 344 345 347 349 349 347 345 346 349 351 352 351 351 352 353 354 355 355 354 353 352 351 352
349 348 347 346 345 344 344 344 345 345 343 342 341 342 343 343 342 342 343 344 344 345 346 346 344 342 343 347 348 349 350 351 352 352 352 354 354 354 356 356 355 352
349 348 347 347 346 344 344 343 344 345 345 344 343 342 343 342 342 341 341 342 343 343 343 342 340 339 340 343 345 347 350 351 352 352 352 352 353 354 354 355 355 355
349 348 348 348 346 345 345 343 343 343 343 345 344 344 343 342 341 340 340 340 340 340 340 339 339 337 337 341 344 346 348 350 351 352 352 352 352 353 354 354 355 355
350 349 348 347 347 346 346 344 343 342 342 343 343 343 344 343 343 342 340 340 339 339 339 338 339 339 338 341 345 348 349 350 351 351 351 352 352 352 353 354 355 355
351 350 349 348 347 346 346 345 344 343 342 342 341 341 342 342 343 343 342 342 341 341 340 340 341 341 341 341 344 347 349 350 351 351 352 352 351 352 353 354 354 354
351 350 349 349 347 347 346 346 345 344 343 342 341 341 340 340 341 342 342 343 343 343 343 343 343 342 343 342 344 345 347 349 351 351 351 352 352 352 353 353 353 353
350 350 350 350 348 348 347 346 345 344 343 343 342 340 340 340 339 339 340 341 341 343 343 344 344 344 344 344 343 344 345 348 349 350 351 352 353 353 353 352 352 352
350 350 349 350 349 348 347 347 346 345 345 344 342 341 341 340 339 338 338 338 339 339 340 342 343 343 344 344 344 344 345 347 349 350 351 352 353 353 353 352 352 352
352 351 351 350 349 349 348 347 346 346 345 345 344 343 342 341 340 339 338 338 338 338 339 340 340 341 342 343 344 344 345 347 349 350 351 352 352 353 353 353 353 353
353 352 351 351 351 350 349 348 347 346 346 345 345 344 343 342 342 341 340 339 339 339 339 339 340 341 341 342 343 345 345 347 349 350 351 352 352 353 353 353 353 354
355 355 354 353 353 352 351 350 349 348 347 346 345 345 344 344 343 342 342 341 341 341 340 340 340 340 342 343 343 344 345 348 350 351 352 353 353 353 353 353 353 353
357 356 356 355 355 354 353 353 352 350 350 348 347 346 345 345 344 343 343 342 342 343 342 342 342 341 342 344 344 345 347 349 351 352 353 353 353 353 353 354 354 353
359 359 359 357 357 356 356 355 354 354 352 351 350 349 347 347 346 345 344 344 344 344 344 345 344 344 344 345 345 347 349 350 352 352 353 354 353 353 354 354 354 354
359 361 360 360 359 359 358 358 357 356 355 354 353 352 350 349 348 347 347 346 346 345 345 346 346 346 346 346 347 348 350 351 353 353 353 353 353 354 354 354 354 354
356 358 359 361 361 361 360 359 359 358 358 356 355 354 353 352 351 350 349 348 348 348 348 348 347 347 348 348 349 350 350 352 353 353 353 353 354 354 354 354 355 355
352 355 356 358 360 361 361 361 360 359 358 358 357 356 355 354 353 351 351 350 350 350 349 350 349 350 350 350 350 350 351 352 353 353 353 353 354 354 354 355 355 355

ECMWFNIL_925_thetae_066.txt.gz
Theta_e
352 352 351 350 349 348 346 345 345 345 345 345 346 346 348 348 348 349 348 348 349 350 352 353 353 353 354 354 355 355 355 354 355 355 355 355 355 354 355 355 354 353
351 351 350 350 348 346 345 345 345 345 345 345 346 346 348 348 349 349 349 348 349 351 352 353 354 354 354 354 354 354 355 355 355 356 354 354 354 354 354 354 354 354
350 350 349 349 348 347 345 345 344 345 345 344 346 347 347 347 348 349 348 348 350 351 353 353 353 354 354 354 353 353 354 356 356 355 355 354 354 354 354 354 354 354
349 349 349 349 348 347 346 345 344 344 344 344 346 347 347 347 347 347 347 347 348 349 351 353 353 353 354 354 354 353 353 354 355 355 355 354 354 353 353 354 355 355
349 349 349 348 347 347 346 345 345 344 343 343 345 347 347 346 345 346 347 347 346 347 348 352 354 353 353 353 354 354 353 354 354 355 355 354 354 354 353 354 355 355
348 348 348 347 347 347 346 345 344 343 343 343 344 345 346 346 345 345 346 347 346 347 347 349 351 353 353 353 353 354 353 354 355 355 355 355 354 354 354 354 354 355
348 347 347 347 347 347 347 345 345 344 343 343 343 344 345 345 345 345 344 344 345 346 346 347 349 350 351 352 352 352 353 354 355 355 355 355 355 354 354 354 355 355
348 348 347 347 347 346 346 346 345 344 343 343 342 343 344 345 344 344 343 342 342 344 345 346 347 348 349 350 351 352 352 353 353 354 354 355 354 354 353 354 354 354
348 347 347 347 346 346 346 346 345 344 343 343 342 342 342 343 343 343 343 342 342 343 343 344 345 346 347 348 349 350 351 352 352 353 353 353 353 353 352 352 352 352
348 348 347 346 346 345 345 345 344 344 343 343 343 344 344 343 343 343 342 342 342 342 342 342 343 345 346 346 347 347 348 349 350 352 352 352 352 352 351 352 351 350
348 348 347 347 346 346 345 345 344 343 343 342 343 344 345 344 344 343 343 342 343 343 342 342 342 343 344 345 344 344 345 345 346 348 350 351 351 351 351 351 351 350
348 347 347 347 346 346 345 345 344 343 342 343 343 344 344 344 344 343 342 342 343 343 343 342 342 342 343 343 342 343 343 342 342 343 346 348 349 349 350 351 351 350
348 348 347 347 346 346 346 345 344 344 343 343 343 344 344 343 343 342 342 342 343 343 344 343 343 344 343 343 343 343 342 341 339 340 342 345 345 347 349 350 350 350
348 348 347 348 347 346 346 346 345 344 343 343 343 344 344 343 343 342 341 342 342 342 343 343 344 344 344 344 343 343 342 340 338 338 340 343 344 345 347 348 349 350
349 348 348 347 347 347 347 346 346 344 343 344 343 343 343 343 343 343 342 342 341 342 341 342 342 343 343 343 343 342 341 339 338 337 338 341 344 346 347 349 349 349
349 349 348 348 347 347 347 346 346 345 344 344 343 343 343 343 343 343 343 342 342 342 341 341 341 341 341 341 340 340 340 340 339 337 337 339 343 346 348 348 348 349
349 349 349 349 348 348 347 347 347 346 345 344 343 343 342 342 342 342 343 343 343 343 342 342 342 341 341 339 339 339 339 339 339 339 339 340 342 345 346 347 347 348
349 350 349 349 349 348 348 348 347 346 346 345 344 343 342 342 342 341 341 342 342 342 342 342 342 341 340 340 339 340 339 340 340 340 342 342 343 343 344 345 346 347
349 349 350 349 349 349 349 348 347 347 347 345 345 344 343 342 341 341 341 340 341 341 341 341 341 341 340 340 340 340 340 340 341 342 343 343 344 344 343 344 346 347
350 350 350 350 350 350 349 349 348 347 347 346 346 345 344 343 342 341 341 341 340 340 340 340 339 339 339 339 339 339 339 340 341 342 343 343 344 344 344 344 345 346
351 351 350 349 350 350 349 349 349 348 348 347 346 346 345 344 343 342 342 341 341 340 339 339 339 339 338 338 338 338 338 339 340 342 343 343 344 344 345 345 345 346
352 351 351 350 350 350 349 349 349 349 348 348 347 346 346 345 345 344 343 342 342 341 340 339 339 339 339 338 338 338 338 339 340 342 342 344 344 344 345 345 345 347
353 353 352 351 351 350 349 349 349 349 349 348 348 347 346 346 345 345 344 343 343 342 341 341 341 341 340 339 339 338 338 339 340 341 343 344 344 345 345 345 346 347
351 353 354 353 352 351 351 350 350 350 349 348 348 348 347 347 346 346 345 344 344 343 343 343 343 343 342 341 341 340 340 340 340 342 343 344 345 345 346 346 347 348
345 350 353 355 355 353 353 352 352 351 350 350 349 349 348 348 347 347 346 346 345 345 345 344 344 344 344 343 342 342 341 341 341 342 344 344 346 347 347 348 348 349
343 346 350 354 356 356 356 354 353 353 352 352 352 350 350 349 349 349 348 348 347 347 346 346 346 345 346 345 344 343 343 342 342 344 344 345 346 347 348 349 349 350

ECMWFNIL_925_thetae_069.txt.gz
Theta_e
351 350 350 350 350 349 349 349 349 349 348 347 347 346 346 345 345 347 348 347 346 346 346 349 352 353 354 355 355 355 355 354 356 356 355 354 355 357 358 358 358 358
350 350 350 350 350 350 349 349 349 349 347 346 346 346 345 345 345 347 347 348 346 346 346 347 350 352 353 355 354 354 355 354 355 356 355 355 355 356 357 358 358 359
350 350 350 350 351 350 350 349 349 349 348 347 346 345 345 345 345 346 347 348 348 348 347 346 349 352 354 354 354 355 355 354 355 356 355 355 356 356 357 358 358 359
349 349 349 350 350 351 351 350 349 349 348 347 345 345 345 344 345 346 347 348 349 349 348 347 349 352 353 353 353 354 355 353 354 355 355 355 355 355 356 357 357 358
348 348 349 350 350 351 351 350 350 349 348 347 346 345 344 344 345 346 347 348 348 349 348 348 349 351 352 353 353 354 355 355 354 352 352 355 355 355 356 356 356 357
349 349 348 349 350 350 350 350 350 349 348 347 345 345 344 344 344 345 347 347 347 347 348 348 348 349 352 353 353 353 355 356 356 352 351 354 356 357 357 355 355 356
349 349 348 349 350 349 350 349 349 349 348 347 346 344 344 344 344 344 346 345 346 346 347 347 347 347 349 351 353 353 352 353 354 353 352 355 356 357 357 356 355 356
350 350 349 349 350 350 349 348 349 348 347 347 345 344 344 343 343 343 344 345 345 344 345 345 345 346 347 349 351 352 353 354 354 352 353 355 356 355 356 356 355 355
351 351 350 350 350 350 349 348 348 347 347 347 346 345 344 343 343 343 343 344 344 344 344 343 343 344 345 347 348 350 351 354 354 352 352 354 356 355 356 356 355 355
352 351 351 350 350 350 349 349 348 347 347 346 346 346 345 344 343 342 342 343 343 343 343 343 343 342 342 344 345 347 348 349 350 349 349 352 353 354 355 355 355 355
352 351 351 350 350 350 349 349 348 348 347 346 346 346 345 344 343 342 342 341 341 342 342 342 342 341 341 343 343 344 345 346 346 346 345 345 346 348 349 350 352 353
351 351 351 350 350 349 349 349 348 348 347 346 345 346 345 345 344 342 341 340 339 341 341 342 343 341 341 341 342 343 343 345 345 345 344 343 342 342 343 344 345 347
352 351 351 351 350 350 349 349 348 348 348 347 346 345 345 345 344 343 341 341 341 341 342 341 342 342 341 340 342 343 342 343 345 345 346 345 342 341 342 343 344 345
351 351 352 351 351 349 349 349 348 348 348 347 346 345 344 344 344 343 342 341 342 343 343 342 341 342 341 341 340 342 342 342 343 343 346 347 346 343 342 343 343 344
351 351 351 351 351 350 349 348 348 348 347 347 346 346 345 344 344 344 343 342 342 342 342 342 343 342 341 340 340 341 342 342 342 342 344 345 346 345 344 343 341 343
351 350 350 351 350 349 349 349 349 349 348 347 346 346 345 345 344 343 344 344 343 343 342 342 343 342 340 339 339 340 340 342 342 341 342 343 344 344 345 345 344 344
351 350 350 350 350 349 349 348 348 349 348 347 347 346 345 345 345 344 343 344 344 344 344 344 343 342 339 338 339 340 340 341 342 342 342 342 342 342 343 344 346 346
351 350 351 350 350 349 349 348 348 348 348 347 347 346 346 345 346 345 344 344 345 345 345 345 344 342 339 339 339 340 341 341 343 344 344 343 343 343 342 342 345 348
350 351 351 350 350 349 349 349 349 349 348 348 348 347 346 346 346 346 345 345 345 345 345 345 344 342 341 340 340 340 341 341 342 343 345 345 344 343 342 342 343 345
352 351 352 351 350 349 350 350 350 349 349 350 349 348 347 346 346 346 346 345 345 346 346 345 345 344 342 341 341 341 341 341 342 341 343 344 344 344 343 343 342 342
354 353 352 352 352 351 351 351 351 350 350 350 350 350 349 348 347 347 346 345 345 345 346 346 346 344 343 343 341 341 341 341 341 341 341 343 344 343 343 342 341 341
351 353 354 353 353 353 353 353 352 351 350 351 351 350 350 349 348 347 347 346 345 345 345 345 345 344 344 342 342 342 341 341 341 341 342 343 344 343 342 341 340 341
344 348 352 354 355 355 354 354 354 352 351 351 351 351 350 350 350 349 348 347 347 346 345 345 345 345 344 344 342 341 340 340 341 341 341 342 342 342 342 341 340 340
340 342 346 350 354 356 355 354 354 354 353 353 352 351 351 351 350 350 349 349 348 347 347 346 346 346 345 344 344 342 340 340 340 340 340 341 341 341 341 342 340 340
337 340 343 345 349 353 356 355 354 354 354 353 353 352 352 351 351 351 350 350 349 349 348 347 346 347 346 346 345 344 342 340 339 340 340 342 342 343 344 344 342 340
334 338 341 343 345 348 352 355 355 354 353 354 353 353 352 352 352 351 351 350 350 349 349 348 348 347 347 347 346 345 344 342 340 340 340 342 344 346 347 347 346 343

ECMWFNIL_925_thetae_072.txt.gz
Theta_e
358 358 357 356 356 355 355 355 354 355 354 353 352 354 355 356 356 357 357 359 358 357 357 358 359 360 360 362 361 361 362 361 360 360 361 361 359 359 358 358 357 356
359 358 358 357 356 356 356 356 355 354 354 354 352 353 355 356 357 357 357 358 357 356 356 357 357 358 360 360 361 361 362 362 360 358 360 362 361 360 358 358 359 359
359 358 358 356 355 356 355 355 355 354 354 354 353 353 354 354 355 357 357 357 357 356 356 357 357 357 358 359 360 360 360 361 360 358 361 362 361 360 360 358 358 359
360 358 357 355 352 353 354 353 354 355 354 353 353 353 353 353 353 356 357 357 356 355 357 357 356 356 357 358 359 359 359 360 360 360 361 362 360 360 360 359 358 358
360 359 357 355 352 352 354 354 354 354 353 353 353 353 353 354 353 354 356 357 356 356 356 357 356 356 357 358 358 358 358 359 359 359 360 360 360 360 359 359 359 359
360 359 358 356 354 353 355 354 354 354 353 353 353 353 353 354 354 352 354 356 355 354 355 355 356 354 355 357 357 357 357 357 357 359 359 359 359 358 358 359 360 359
359 360 359 356 355 354 355 355 354 354 353 352 353 354 353 354 354 353 353 355 354 353 353 354 355 355 354 356 357 358 358 357 357 359 359 358 358 357 358 357 358 359
358 359 359 356 355 354 355 354 354 355 354 353 353 353 353 353 352 352 353 354 353 353 354 354 355 356 355 354 356 357 358 357 356 358 359 359 358 358 359 358 358 358
358 357 359 358 355 353 354 352 352 354 354 354 352 351 353 353 351 351 352 354 354 354 355 355 355 356 354 353 355 357 358 356 355 356 358 359 358 359 359 358 358 358
357 357 357 358 355 352 352 352 351 352 353 354 352 350 350 351 352 351 352 355 356 354 356 357 355 355 355 353 355 356 357 357 357 357 357 357 356 356 357 357 357 358
357 357 356 356 355 353 352 351 350 349 351 353 352 349 348 350 352 352 351 355 356 355 355 356 356 356 355 354 354 355 356 355 356 356 356 356 355 355 356 356 356 356
356 356 356 355 355 354 352 351 350 349 349 352 352 350 348 348 351 352 352 354 356 354 353 356 356 356 356 355 353 352 354 354 352 353 354 354 354 353 354 354 354 354
355 355 355 355 355 355 353 352 351 350 350 351 352 351 350 347 348 351 352 353 354 354 352 353 356 356 356 356 353 352 353 354 352 351 352 353 352 351 350 350 350 351
354 355 355 355 355 355 354 354 352 352 351 351 352 352 350 349 348 349 352 351 351 352 351 351 354 355 356 356 355 352 351 353 353 352 350 350 351 350 349 348 346 346
354 354 355 355 356 356 356 355 354 354 353 352 353 353 351 351 350 349 350 351 351 350 351 350 351 352 353 355 356 354 351 351 351 352 350 349 350 350 349 349 348 346
354 355 355 355 356 357 357 357 355 354 355 354 354 354 353 352 352 350 350 350 351 351 351 349 348 349 350 351 351 351 352 351 350 351 352 351 351 351 350 349 348 347
354 356 356 356 357 358 358 359 356 356 355 355 355 354 354 353 353 352 351 350 351 351 351 351 348 346 348 347 344 341 344 350 352 352 353 355 354 353 353 351 348 347
353 356 357 357 357 358 359 359 358 357 356 356 355 355 355 355 354 353 352 351 350 350 350 350 349 347 347 346 342 336 335 341 347 350 352 353 354 353 353 352 351 349
353 355 356 357 357 358 359 360 359 358 357 356 356 355 356 355 355 354 354 352 352 351 351 351 350 349 348 346 344 339 335 337 342 346 348 350 352 354 353 353 353 352
353 354 355 357 358 358 359 359 359 359 358 356 356 355 356 356 355 355 355 354 353 352 352 352 351 350 349 348 346 344 341 340 340 343 347 348 348 351 352 352 353 353
351 353 354 355 357 358 358 358 359 359 359 357 356 355 355 356 356 355 355 354 355 354 353 353 352 351 350 349 348 346 345 344 343 343 347 348 348 350 350 352 352 353
346 350 353 355 355 356 358 358 358 359 359 358 357 355 355 356 355 355 356 355 354 354 354 353 353 352 350 349 348 347 346 346 344 343 346 349 349 350 351 352 352 353
340 345 350 354 355 355 357 357 357 358 359 360 358 356 356 356 355 356 356 355 355 355 355 355 354 353 352 351 349 348 347 346 345 345 347 349 350 350 350 352 352 353
338 340 344 349 352 354 355 356 356 355 357 358 359 357 356 356 356 356 356 356 355 355 355 355 355 354 353 351 351 349 348 347 345 347 349 350 351 351 351 352 352 352
338 338 340 342 347 351 353 354 354 353 354 355 356 356 356 356 356 356 356 356 356 356 355 354 355 355 353 352 351 349 348 346 346 349 350 350 351 352 352 353 353 352
337 338 339 341 344 347 349 351 351 352 352 353 353 353 352 353 355 356 357 357 356 356 356 355 354 354 354 353 351 350 349 347 346 348 350 350 352 352 352 353 354 354

ECMWFNIL_925_thetae_078.txt.gz
Theta_e
356 356 356 356 358 358 357 357 356 355 355 356 356 357 358 356 356 356 358 359 358 360 360 360 361 360 359 359 357 356 357 358 358 357 359 361 359 358 358 356 354 354
357 357 356 356 357 358 357 356 355 354 354 355 354 354 356 356 355 355 357 359 359 359 360 360 362 361 360 360 360 358 358 358 356 355 359 360 359 358 358 357 355 355
357 358 356 356 357 358 357 356 354 353 353 355 353 352 354 355 356 356 356 359 359 357 358 359 360 361 360 361 360 359 359 358 354 356 358 359 360 358 357 356 355 356
358 357 357 356 356 356 357 356 354 354 353 354 353 353 354 354 356 357 356 358 358 357 357 358 359 359 360 360 360 360 358 355 356 358 359 359 360 359 358 359 357 356
360 358 357 356 354 354 355 355 354 355 354 353 354 353 353 354 355 356 356 356 357 357 356 356 357 357 358 359 359 360 358 356 358 360 360 361 360 360 359 359 358 359
361 359 358 356 354 352 353 353 354 354 355 354 352 353 352 352 354 356 356 356 357 357 356 356 357 357 357 357 358 358 358 357 358 358 360 360 360 359 359 358 357 360
358 358 358 356 354 352 352 353 352 353 354 352 352 352 351 351 353 354 355 356 356 356 355 355 356 356 356 357 357 358 358 357 357 357 359 360 359 358 358 358 358 360
357 356 356 356 355 352 351 352 352 352 353 353 351 351 351 352 352 353 354 355 355 355 354 353 354 355 355 356 356 358 359 358 357 357 358 360 359 358 357 358 358 359
357 356 356 356 355 353 351 351 352 352 352 352 352 350 351 351 352 353 353 354 355 354 353 353 352 354 354 354 355 356 358 358 356 356 357 359 360 359 359 358 357 358
357 355 357 358 356 352 352 350 350 352 351 352 351 350 350 351 352 353 354 353 354 354 354 353 353 353 354 354 354 354 355 357 356 354 355 357 358 358 358 358 357 357
358 357 357 359 358 354 351 350 349 350 351 352 352 351 349 350 351 352 353 353 353 354 354 354 353 353 355 355 354 354 355 355 356 355 354 355 356 356 356 357 356 356
358 357 356 358 359 356 353 350 349 347 348 350 351 350 348 350 350 351 352 353 354 354 354 355 354 354 355 356 355 355 354 354 356 356 354 353 355 355 355 355 355 355
355 354 354 356 358 358 355 353 351 347 347 347 349 350 348 347 348 350 351 352 353 354 354 355 355 355 355 356 356 355 354 354 355 355 354 354 354 355 355 355 354 354
352 352 352 353 357 359 357 355 352 349 347 346 347 349 348 346 346 347 350 350 352 353 354 355 355 355 356 356 357 356 355 354 353 354 353 352 353 354 354 353 353 351
351 351 352 354 355 356 357 357 358 356 353 350 347 346 347 347 345 345 347 350 350 351 353 354 355 355 356 356 357 358 357 355 352 352 352 351 352 352 352 350 349 348
352 351 352 354 353 351 351 354 357 358 355 351 350 349 347 346 346 344 344 347 350 351 352 353 354 355 354 355 356 356 357 357 353 351 351 351 351 351 350 349 348 346
352 353 353 354 353 352 352 353 355 356 355 353 353 354 352 349 347 345 344 344 346 349 351 353 353 352 351 352 354 355 356 357 355 353 351 351 352 352 350 349 347 347
350 351 351 351 351 351 353 355 356 356 355 354 353 353 354 353 351 349 348 346 345 346 348 350 351 350 349 349 349 351 353 354 355 355 352 351 351 352 352 350 349 347
347 349 347 348 351 353 353 354 355 355 355 355 355 353 353 353 352 351 351 350 350 348 347 348 348 349 348 347 346 347 349 350 352 353 353 351 349 349 351 352 350 349
344 347 347 348 350 351 352 353 353 353 353 354 355 355 354 354 352 352 352 352 352 352 352 352 350 349 348 346 345 344 346 347 348 349 350 350 349 348 349 350 349 349
342 345 348 349 347 346 350 352 353 353 354 355 355 355 355 354 353 351 351 352 352 353 354 355 354 352 350 348 346 344 343 344 345 346 347 347 346 346 346 347 347 348
338 342 345 348 346 344 346 348 350 351 353 354 355 355 354 354 354 354 352 352 352 352 353 355 357 356 354 353 350 347 344 343 344 345 347 346 345 344 344 343 343 344
334 336 342 346 346 344 343 343 347 350 350 352 354 355 355 354 353 354 354 353 353 352 352 353 356 357 356 355 355 352 348 345 344 345 348 348 348 347 345 344 342 342
333 333 337 341 343 344 344 344 348 349 348 348 350 353 355 356 355 355 355 355 355 354 353 353 356 358 357 357 357 355 353 350 347 345 348 350 350 350 350 348 347 347
335 334 334 334 335 337 340 342 344 344 344 345 348 350 350 352 355 355 356 356 356 356 355 355 356 357 358 358 357 357 356 354 350 348 348 350 352 352 352 352 352 352
332 334 335 334 333 333 334 334 336 338 338 339 342 348 350 350 352 354 355 356 356 356 357 357 356 356 357 359 359 357 358 356 352 351 351 352 353 354 354 354 355 355

ECMWFNIL_925_thetae_081.txt.gz
Theta_e
352 354 354 355 355 354 353 351 353 356 357 356 356 356 357 357 356 356 357 356 357 358 356 354 353 354 355 355 354 355 355 357 359 358 358 359 358 356 358 357 355 354
353 354 354 355 356 356 355 354 354 356 356 356 356 355 357 358 356 356 358 357 356 358 358 357 356 355 356 356 355 354 356 357 357 357 357 360 359 357 357 357 356 355
355 354 354 355 356 357 357 356 356 356 355 355 355 355 356 357 356 355 357 358 356 358 359 358 357 355 356 359 356 353 355 356 355 354 356 359 359 358 357 357 356 356
356 355 355 355 355 356 358 358 357 356 355 355 354 355 355 355 355 355 355 358 357 357 359 358 356 354 355 359 360 356 353 354 352 353 356 358 359 359 357 357 358 357
357 356 356 356 355 355 357 357 357 355 355 354 353 354 355 354 355 355 355 358 358 357 358 358 357 356 354 356 360 358 354 353 353 353 357 358 358 358 357 357 358 358
357 357 356 356 356 355 356 356 356 355 354 354 352 353 353 353 355 355 355 357 357 357 358 357 357 358 357 356 357 357 355 354 354 355 357 358 358 358 357 359 358 357
359 358 357 357 356 355 356 356 356 355 354 354 354 353 352 353 355 355 355 356 356 356 357 357 356 357 357 357 356 356 356 355 355 357 357 357 357 357 357 359 358 357
360 359 358 358 357 356 356 355 354 355 354 354 354 354 352 352 353 355 356 356 355 356 356 356 356 356 356 357 356 357 356 356 357 357 356 356 358 358 357 358 358 357
360 361 360 359 358 357 356 354 353 353 353 354 354 353 353 352 352 353 355 355 355 355 356 355 356 356 356 356 356 356 356 356 356 357 357 357 358 359 358 357 357 357
359 360 359 358 357 356 355 353 352 351 352 352 353 353 352 351 351 351 352 354 355 355 355 354 354 355 355 354 355 355 355 355 354 356 357 356 356 358 359 358 357 357
353 354 354 354 354 353 352 350 350 351 351 351 352 353 352 351 351 352 351 352 354 355 355 355 354 353 354 353 353 354 355 355 353 354 356 356 356 356 356 356 356 356
348 351 353 354 354 354 354 352 349 348 349 351 351 351 352 351 350 351 351 352 352 353 354 354 354 353 354 354 353 353 354 355 354 354 354 354 355 355 355 355 356 356
349 352 354 354 355 355 354 353 351 349 348 350 352 351 351 351 351 350 351 352 353 353 353 353 353 353 354 354 354 354 354 354 354 354 354 354 353 353 354 355 354 355
350 351 352 352 353 353 354 354 353 351 348 349 352 352 350 350 350 350 350 350 352 353 352 352 352 353 353 353 354 355 354 354 354 354 354 354 354 354 352 353 353 354
350 350 351 352 351 351 353 353 352 351 349 350 353 353 350 350 350 349 350 350 350 352 353 353 352 352 353 352 353 354 354 355 355 355 354 354 354 354 353 352 353 354
351 351 352 353 353 352 353 353 353 353 352 353 355 353 350 351 349 348 350 349 350 351 352 353 353 353 353 354 353 353 354 355 354 354 355 354 353 353 352 352 352 352
350 350 351 352 353 353 353 353 354 353 354 355 355 352 351 352 351 350 350 350 350 350 350 352 352 352 353 353 354 354 354 355 355 354 354 354 354 352 351 351 351 351
347 348 348 350 352 353 353 353 353 353 354 355 355 353 352 352 351 352 351 351 351 350 350 350 351 351 351 351 353 354 354 355 355 355 353 353 354 352 350 350 350 350
346 346 347 347 348 351 353 353 353 354 354 354 355 354 353 353 352 352 352 351 351 351 351 351 351 352 351 351 351 353 353 354 354 354 354 353 353 353 352 351 350 349
345 346 347 346 345 348 351 350 350 353 353 353 355 355 355 355 354 353 353 352 351 350 351 351 351 351 352 352 352 352 351 352 352 353 353 352 352 351 351 351 351 350
342 344 345 344 343 344 345 345 347 351 352 353 355 355 355 355 354 354 355 354 353 352 351 351 350 351 352 353 354 353 352 350 350 352 352 352 351 350 349 349 350 350
335 339 341 342 342 343 343 343 346 349 350 351 352 353 354 355 355 354 354 354 354 353 352 351 351 350 351 352 353 354 354 352 349 349 352 353 352 351 350 350 350 350
332 334 336 338 339 337 338 342 346 348 347 347 348 350 351 353 354 354 355 355 355 354 354 353 352 352 352 352 351 353 355 355 351 347 348 351 352 351 350 350 350 349
332 333 333 334 334 331 332 337 340 341 341 342 344 347 349 350 351 352 352 354 355 355 355 355 355 355 354 353 351 351 353 355 354 350 348 347 349 350 350 349 349 347
328 331 333 334 334 333 334 335 334 334 334 335 336 340 343 346 348 350 351 353 354 355 356 355 356 355 354 353 352 352 352 354 356 356 353 349 348 348 349 349 348 346
324 326 330 332 333 335 335 335 335 335 335 335 335 334 336 338 339 341 343 344 346 349 353 355 355 355 354 354 354 354 353 354 356 357 356 354 350 348 348 350 349 348

ECMWFNIL_925_thetae_084.txt.gz
Theta_e
350 353 353 352 353 352 349 351 353 353 353 354 355 355 354 355 355 356 356 356 356 355 355 354 353 353 354 355 354 354 356 355 356 356 356 357 355 354 355 356 356 355
350 352 353 352 353 352 349 350 351 353 354 355 355 355 355 355 356 356 356 356 356 355 356 357 354 352 353 355 354 354 354 355 356 357 358 358 358 356 356 356 356 356
350 352 354 353 354 352 351 350 351 351 353 356 356 355 356 356 356 357 355 356 356 355 355 357 356 353 354 355 355 354 354 355 356 357 357 357 357 357 356 357 357 355
350 351 353 354 354 353 353 353 352 351 352 355 356 355 355 355 356 357 356 355 356 356 354 355 357 356 355 356 356 356 355 354 355 356 355 355 357 358 357 357 356 357
352 351 351 354 354 355 356 356 355 354 353 354 355 355 355 355 356 356 356 356 356 357 355 355 356 356 356 357 357 358 357 355 354 354 353 354 357 358 357 357 357 357
355 353 352 353 354 355 356 356 357 356 355 355 354 355 354 354 356 356 355 355 355 357 356 356 356 357 355 355 356 358 358 357 355 353 352 353 356 357 357 357 357 358
356 355 355 354 353 354 355 355 356 357 357 355 354 354 354 354 355 356 355 354 354 356 356 356 357 357 356 355 355 356 356 355 355 355 354 354 356 357 356 356 357 358
357 357 356 356 356 355 355 355 355 356 356 356 355 354 353 353 353 354 355 355 354 356 356 356 357 357 356 355 355 355 355 355 355 355 355 356 356 356 355 355 356 358
356 355 355 356 357 356 356 355 355 355 355 355 355 354 353 352 353 352 354 355 355 355 355 355 356 357 356 355 355 356 356 355 355 354 354 356 356 356 356 356 356 356
355 354 355 355 355 356 355 355 355 354 355 355 354 354 353 353 353 351 352 354 355 355 355 354 356 356 356 356 355 355 355 355 355 355 353 353 355 356 356 356 356 356
355 353 353 354 355 355 355 354 354 353 353 354 354 354 353 353 353 352 351 353 354 355 354 355 355 355 355 355 356 355 354 354 354 354 353 352 353 356 356 356 356 355
355 354 353 354 354 355 354 353 353 351 351 352 352 353 353 353 353 352 351 352 352 353 353 354 355 354 354 355 355 355 354 353 353 353 353 353 352 355 356 355 355 355
353 354 354 354 354 354 354 353 353 352 350 349 350 351 352 352 352 352 352 351 351 350 351 353 353 354 354 354 354 355 354 354 353 353 353 354 353 354 354 354 354 354
353 353 353 353 354 355 354 355 354 353 352 349 349 349 350 351 351 352 351 351 351 351 351 351 352 353 354 354 353 354 354 353 352 353 354 354 354 353 352 352 352 354
350 350 350 351 353 353 354 354 354 354 353 350 347 347 349 350 351 351 351 351 350 351 350 350 351 352 352 353 353 353 353 354 353 353 353 353 354 353 353 352 352 351
350 350 350 351 351 351 351 352 352 352 352 352 350 348 348 351 352 351 351 350 351 351 351 351 351 351 352 351 352 352 352 353 353 353 354 354 353 354 353 353 352 352
351 351 352 352 352 352 351 352 353 352 352 351 350 349 352 353 352 352 350 350 350 350 351 352 351 351 352 351 351 351 351 351 352 353 354 354 354 354 354 355 354 354
348 349 351 352 352 352 352 353 354 353 353 353 351 352 353 354 352 352 351 350 350 350 351 352 352 353 353 352 352 352 351 351 351 352 352 352 352 353 352 353 353 353
346 346 346 347 350 352 352 353 353 353 353 353 354 353 354 354 353 353 352 351 351 350 350 350 351 353 354 353 354 353 352 353 353 352 353 352 352 353 351 350 350 351
346 345 343 343 345 347 348 349 350 351 352 353 355 355 355 354 354 353 354 353 353 352 351 351 350 351 352 352 352 352 352 353 353 353 354 354 354 352 352 350 349 349
342 342 342 343 342 342 344 346 348 349 350 351 352 353 355 355 355 355 354 354 354 353 353 352 351 351 351 351 351 352 352 352 353 352 353 354 354 354 354 352 351 350
336 336 337 337 336 335 337 343 346 348 349 349 349 350 351 353 354 354 354 354 354 354 354 353 352 351 351 350 350 350 351 352 352 353 353 353 353 354 354 354 353 352
330 332 334 334 333 332 333 337 339 340 341 343 344 346 348 349 350 351 352 352 353 354 354 354 354 353 352 353 352 351 351 351 351 351 352 352 353 353 352 352 353 353
325 327 331 332 332 332 334 335 335 335 335 336 337 338 340 343 346 347 347 350 353 353 353 353 353 353 354 354 354 353 353 353 352 352 352 352 353 354 353 352 351 351
323 324 325 326 325 326 327 330 331 333 334 335 335 335 335 335 337 338 338 340 345 349 352 353 353 354 355 355 355 354 354 354 354 354 353 353 353 354 355 355 353 352
323 324 324 323 321 320 320 322 325 327 329 332 334 336 336 335 336 336 336 337 337 339 342 345 346 348 349 350 352 352 353 355 354 354 354 354 353 353 354 355 355 355

ECMWFNIL_925_thetae_087.txt.gz
Theta_e
350 349 348 349 350 350 351 352 351 351 351 351 351 351 352 353 353 354 354 355 355 354 352 351 351 352 352 352 353 354 355 354 355 355 355 355 356 354 352 352 355 356
350 350 350 350 350 350 350 350 350 350 351 350 350 352 353 354 354 354 354 355 355 354 354 354 353 353 352 352 353 354 353 354 354 355 355 355 357 357 355 354 355 356
350 350 350 351 351 351 351 351 351 350 351 352 351 352 353 354 355 354 355 355 355 355 354 354 355 355 354 351 352 354 353 354 354 355 355 356 357 357 356 356 356 356
350 349 350 351 351 352 352 352 352 350 351 352 353 353 354 354 354 354 355 355 355 355 355 354 355 355 355 353 352 353 354 354 354 354 355 356 356 355 355 356 356 356
349 350 349 350 351 352 352 353 351 350 350 351 352 353 355 355 355 355 355 356 355 355 355 355 355 355 356 356 353 353 354 354 354 353 354 354 354 354 355 356 356 356
349 348 348 349 351 353 353 354 352 352 351 351 351 352 353 355 354 354 354 355 356 356 355 356 356 355 356 357 355 354 353 354 354 354 353 352 352 352 354 356 356 356
350 350 349 349 351 352 353 353 354 354 354 354 353 353 354 354 355 354 354 355 355 356 355 355 355 355 355 356 357 355 353 353 354 355 354 352 351 352 353 355 356 354
352 351 350 350 351 351 352 353 354 354 355 355 356 355 355 354 353 354 353 354 355 356 354 355 355 356 355 356 356 355 354 353 354 355 354 353 352 354 354 354 354 354
353 353 351 351 351 351 352 353 353 354 354 355 356 356 356 354 353 353 353 353 354 355 354 354 355 355 355 356 356 356 354 354 355 355 355 353 353 354 355 355 354 353
354 353 353 352 353 353 353 354 354 353 354 354 354 355 355 355 355 354 353 352 353 353 354 354 354 355 355 356 356 356 355 354 354 354 355 354 354 353 353 355 355 354
355 354 355 354 355 355 355 355 355 355 355 354 353 354 355 355 355 354 353 353 352 352 353 354 354 355 355 355 355 355 355 355 354 354 354 354 354 353 352 352 354 355
355 354 355 355 354 355 355 355 355 355 355 355 354 354 355 354 355 354 353 353 353 352 352 353 354 354 354 354 354 354 354 355 355 354 353 353 353 353 352 352 353 354
355 354 355 354 354 354 354 355 355 355 354 354 353 352 353 354 354 354 353 353 353 353 351 352 353 354 354 354 354 353 353 354 354 355 354 354 353 352 353 352 352 353
355 355 354 354 354 353 353 354 354 354 354 353 351 350 350 351 352 352 353 352 353 353 352 352 352 352 353 353 354 354 353 353 353 353 353 354 353 352 352 352 353 353
351 353 354 354 354 354 354 355 354 353 354 353 352 351 350 349 349 350 351 351 352 352 352 352 351 352 352 351 352 352 353 353 353 353 353 353 353 352 352 352 352 352
348 349 351 351 351 352 353 353 353 354 354 354 354 354 352 350 348 348 349 350 350 350 351 351 352 351 350 350 350 351 352 353 353 353 353 353 353 353 352 352 352 352
349 349 350 349 350 351 350 351 352 352 352 352 352 352 353 350 348 348 349 350 350 350 350 351 351 351 351 350 350 350 351 352 352 352 353 353 353 352 352 353 353 353
350 349 350 350 350 351 351 352 353 352 352 352 352 351 351 351 349 350 351 351 351 350 350 350 350 351 350 350 350 350 350 352 352 352 352 352 352 352 352 352 353 352
346 347 347 348 349 349 350 351 353 353 353 353 354 353 352 353 352 352 353 352 351 350 350 349 350 350 350 349 350 350 350 352 352 351 352 352 351 351 351 351 352 351
342 343 342 343 343 344 346 348 349 351 352 352 353 354 355 355 354 354 353 352 352 352 351 350 349 349 350 350 350 351 351 352 352 352 352 352 352 352 351 351 352 352
336 337 337 336 336 337 341 344 346 348 350 349 350 351 353 353 354 354 355 354 354 354 352 352 351 351 351 351 351 351 352 352 352 352 352 352 352 352 351 351 351 351
331 334 334 333 333 334 336 339 340 341 342 343 343 343 345 348 350 351 352 353 353 354 353 354 353 353 353 352 352 351 351 351 351 351 351 352 352 352 352 351 352 351
327 329 329 327 327 329 330 332 334 336 336 337 337 337 338 341 344 347 348 349 350 351 351 352 352 353 353 353 353 353 352 352 351 351 351 351 351 351 351 351 352 352
324 324 324 322 322 322 322 324 327 330 331 332 334 335 337 337 338 340 342 344 345 345 345 346 349 351 352 353 353 353 353 354 353 352 353 352 352 352 352 351 352 351
323 322 322 321 320 319 320 322 323 324 325 327 329 332 335 336 337 338 337 336 336 336 337 338 341 344 346 348 349 349 349 352 353 353 353 353 353 353 353 353 353 353
321 321 321 321 321 321 322 323 324 324 324 325 326 327 329 331 334 336 336 334 333 334 336 335 336 339 342 343 343 344 346 349 350 351 352 352 353 353 353 353 353 353

ECMWFNIL_925_thetae_090.txt.gz
Theta_e
350 350 350 349 349 349 349 349 350 351 351 351 351 351 351 350 351 352 353 354 354 355 354 351 350 352 353 352 352 352 353 354 353 353 354 354 354 353 353 354 354 355
350 350 350 349 348 349 349 348 350 350 350 351 350 350 350 350 351 352 353 354 354 354 355 353 351 351 351 352 352 352 353 353 353 353 354 354 354 354 355 355 355 355
350 351 350 349 348 348 349 348 349 350 350 350 349 349 350 350 351 352 353 353 353 354 355 354 353 352 353 353 352 352 352 353 353 353 354 354 354 355 355 355 355 356
350 350 350 350 349 349 349 349 349 350 350 350 349 350 350 351 352 353 354 354 354 354 354 354 354 354 354 355 353 352 352 353 353 352 354 354 354 354 354 354 354 355
350 350 349 350 349 349 350 350 350 350 350 351 350 349 350 351 352 353 354 354 354 355 355 355 354 354 354 355 355 353 352 353 353 353 353 353 353 353 354 354 354 355
349 349 349 350 349 350 350 350 350 350 351 351 350 350 350 351 352 353 354 354 354 355 355 355 355 355 355 355 355 356 355 354 354 354 354 353 353 352 352 353 353 355
348 347 348 349 349 349 349 349 350 350 351 351 350 350 350 350 351 352 353 354 354 354 355 355 355 355 355 355 355 355 356 355 354 355 355 355 354 352 350 351 352 354
348 348 347 348 349 349 349 349 350 351 352 352 353 353 352 352 352 352 353 354 354 354 354 354 355 355 355 355 355 355 355 356 355 354 354 354 354 352 351 351 353 354
349 349 348 347 347 347 347 348 349 352 353 353 354 354 354 354 354 354 354 353 353 353 353 353 354 354 355 355 355 355 355 355 355 354 354 354 354 353 352 353 354 354
350 350 349 348 348 348 348 348 349 351 352 352 353 353 354 354 355 355 355 354 353 353 353 352 353 353 354 354 354 355 355 355 355 355 354 354 354 353 353 353 353 353
351 351 350 350 350 351 350 349 349 349 350 351 352 353 353 353 354 355 354 355 354 353 353 352 352 352 352 353 354 354 354 354 354 355 355 354 354 353 353 353 353 352
353 353 353 353 353 353 352 352 351 351 351 352 352 353 353 353 353 353 354 354 355 354 353 352 352 352 351 352 353 354 354 354 354 354 353 354 354 354 353 353 352 352
353 354 354 354 353 353 353 354 354 354 354 353 353 354 354 354 353 353 353 354 354 354 353 353 353 352 352 351 352 353 353 353 353 354 353 353 353 353 353 353 352 352
353 354 354 354 354 353 352 353 353 354 354 354 354 353 353 353 353 353 353 353 353 353 353 353 352 352 352 352 352 352 353 353 353 353 353 352 353 352 353 353 353 352
351 352 353 353 353 353 352 352 352 352 353 353 353 353 352 352 351 350 350 350 351 351 351 351 351 351 352 352 352 351 352 352 352 352 353 353 352 353 352 352 352 352
347 349 350 349 350 350 350 351 351 352 352 352 353 353 353 352 351 351 350 349 349 349 349 350 350 350 351 351 351 352 351 352 352 352 352 352 352 353 352 352 352 352
346 347 348 347 347 348 348 349 350 350 350 350 352 352 352 353 352 352 351 350 349 348 348 349 349 349 350 350 350 351 351 351 351 351 351 351 351 352 352 352 352 352
347 347 347 347 348 348 349 349 350 350 350 350 351 352 352 352 352 352 351 351 350 350 350 350 350 349 349 350 350 350 350 350 351 351 351 351 351 351 351 351 351 351
347 347 346 347 348 349 350 351 351 351 351 351 353 353 352 352 352 352 352 352 352 352 351 351 351 350 349 349 349 349 350 350 350 350 351 350 351 351 351 351 351 351
342 341 341 342 344 346 347 349 349 349 349 350 352 353 353 353 353 353 353 353 353 353 352 352 352 351 350 350 350 350 350 351 351 351 351 351 351 351 352 352 352 352
336 335 335 336 338 341 342 342 343 343 344 346 348 350 351 351 351 351 351 352 353 353 353 353 352 352 351 351 351 350 350 351 351 351 352 351 352 352 352 352 352 352
328 328 328 330 331 334 335 336 337 338 339 341 343 344 346 347 347 347 348 349 350 352 352 353 353 352 352 352 352 352 352 352 351 351 351 351 351 351 351 351 351 351
323 323 323 323 324 325 328 329 331 333 334 336 338 339 339 340 341 341 343 345 347 348 350 351 350 349 349 351 352 352 352 353 353 352 352 352 352 351 351 351 351 351
322 321 321 321 322 323 323 324 326 327 328 331 334 336 336 337 338 338 338 339 340 341 343 346 346 345 345 347 350 350 350 351 350 350 351 351 352 352 352 352 352 352
321 321 321 322 323 323 323 324 324 325 325 327 329 331 333 334 336 337 338 337 337 338 340 339 338 340 341 344 346 347 346 346 347 348 350 351 351 352 352 352 353 352
321 322 322 323 323 323 323 323 324 324 325 326 327 328 329 331 333 335 336 335 335 338 341 340 339 342 343 343 343 344 345 346 348 349 349 349 349 349 350 351 351 352

ECMWFNIL_925_thetae_093.txt.gz
Theta_e
350 351 351 351 351 350 349 349 349 349 351 352 353 353 352 351 351 352 352 353 353 354 354 355 354 352 352 354 354 352 352 353 356 355 354 355 357 357 357 357 358 357
350 350 350 351 351 350 349 348 348 349 349 350 351 351 351 350 351 351 351 352 353 354 354 354 354 352 352 353 352 352 352 353 356 356 354 356 357 357 357 357 358 358
350 351 350 351 351 350 349 348 348 348 348 350 351 350 350 350 350 350 350 352 352 354 354 354 355 354 352 353 352 354 354 353 356 357 355 355 356 357 357 357 357 358
350 350 350 351 351 350 348 348 348 348 349 349 350 350 349 349 350 350 351 352 353 354 354 354 355 354 353 354 354 355 354 352 353 354 354 355 356 356 357 357 357 357
349 349 350 350 351 350 348 348 348 348 349 349 350 350 350 350 350 351 352 353 353 354 354 354 354 354 354 354 354 355 355 355 354 353 354 356 356 356 357 357 357 357
348 348 348 349 350 350 349 349 349 349 350 351 351 350 351 350 350 350 352 353 354 355 356 356 355 355 355 354 354 355 356 357 357 354 355 358 358 358 358 357 357 357
348 347 346 348 349 349 349 349 349 350 350 350 350 350 350 350 350 350 351 352 354 355 356 355 355 355 355 355 355 355 355 356 356 355 355 358 359 359 359 358 356 355
348 347 346 348 350 350 350 350 350 350 349 349 350 351 351 351 351 351 351 352 353 354 354 354 354 354 355 355 355 355 355 357 357 356 356 358 358 358 358 358 357 356
348 347 347 348 350 351 351 352 352 351 349 348 351 353 353 353 353 354 353 353 354 354 354 353 353 353 353 354 354 354 355 357 358 357 358 358 358 358 358 358 357 357
350 349 349 348 349 350 351 351 352 352 350 349 352 354 354 354 354 355 355 355 355 354 354 353 353 353 352 353 353 353 354 356 356 357 357 357 358 358 358 358 358 358
350 351 351 350 349 349 349 350 352 352 351 351 352 354 355 354 354 353 353 354 355 355 355 354 354 353 352 352 353 353 353 355 356 356 355 356 356 356 355 356 357 357
349 352 352 351 351 350 349 349 351 353 353 353 353 353 354 354 354 353 353 353 353 353 354 354 354 354 353 352 353 353 353 354 355 356 355 355 355 354 355 355 356 356
349 353 354 353 352 352 351 351 352 354 354 353 353 353 353 354 354 354 353 353 353 353 353 353 353 354 353 352 353 353 353 353 354 355 356 356 355 354 355 355 355 355
351 352 352 353 353 352 353 353 353 353 354 354 354 353 353 353 353 354 354 354 353 353 353 353 353 353 353 352 352 352 352 352 353 354 356 356 355 354 354 354 354 354
350 351 351 352 351 351 352 353 353 353 354 353 354 354 354 353 353 353 353 353 352 351 351 352 352 352 352 351 351 351 352 353 352 352 354 355 355 355 354 353 353 354
349 350 351 351 350 350 352 352 352 353 353 353 354 353 353 353 352 352 352 353 352 351 351 351 351 352 350 349 350 350 351 354 354 352 352 353 353 354 354 354 353 354
349 349 350 349 348 349 351 351 350 351 352 352 353 352 353 353 352 352 353 354 353 352 352 352 352 351 349 348 348 348 350 352 354 355 354 353 354 354 354 355 355 354
347 347 347 347 346 348 349 350 350 351 351 351 352 351 352 353 354 354 354 354 354 354 354 354 352 350 349 348 348 348 349 350 352 355 356 356 356 356 355 356 356 356
347 347 346 346 346 347 348 349 350 351 351 352 353 353 352 353 354 355 355 355 355 355 355 355 352 350 350 350 349 349 349 349 349 351 353 355 356 356 356 356 356 356
346 345 345 346 347 347 349 349 350 351 351 351 352 353 353 353 353 354 354 354 355 355 356 354 352 351 351 350 350 350 349 349 349 349 351 353 354 354 355 355 355 354
341 342 342 343 344 345 346 347 349 349 349 350 351 351 351 351 351 351 352 351 352 354 355 353 350 351 351 351 351 350 350 349 349 349 350 350 351 352 352 353 352 352
336 337 338 339 339 340 341 343 344 345 344 346 347 348 349 349 349 349 350 349 350 350 352 351 349 349 350 350 351 351 351 351 351 351 351 350 351 351 350 351 351 351
329 330 332 334 335 335 336 337 338 340 340 341 342 343 344 346 347 348 347 347 347 347 348 348 347 346 347 348 350 351 351 351 351 352 352 352 352 352 351 351 351 351
324 324 326 329 329 329 329 330 332 333 335 338 340 341 341 342 344 345 343 342 342 342 343 344 344 344 344 345 346 348 349 349 350 352 352 352 353 353 353 353 352 352
323 323 324 325 325 325 325 326 327 328 330 333 337 340 341 341 342 343 342 341 341 342 341 342 343 342 342 343 343 344 346 347 349 350 351 351 352 352 353 353 353 352
322 323 323 323 323 324 324 325 326 327 328 330 333 336 339 339 340 341 341 340 340 340 340 340 340 338 337 338 339 340 343 346 348 349 349 349 349 349 350 351 351 351

ECMWFNIL_925_thetae_096.txt.gz
Theta_e
356 356 357 357 357 356 357 356 356 357 357 356 356 356 357 357 358 358 357 359 360 361 363 362 360 360 360 360 360 359 359 359 359 359 358 357 357 355 355 356 355 355
356 356 356 355 356 357 356 356 355 356 356 357 356 356 357 357 358 358 358 359 359 359 363 362 361 360 359 360 360 359 360 360 359 358 358 358 358 356 356 355 355 355
356 356 356 355 355 355 355 354 354 355 355 355 356 356 356 355 357 358 358 359 359 359 361 361 361 361 359 360 360 359 360 361 360 359 359 359 358 357 356 355 355 356
356 356 356 354 353 353 353 353 354 354 353 354 355 355 354 354 356 357 358 358 359 360 361 361 362 361 360 361 360 359 361 360 359 359 360 360 359 358 357 355 355 355
356 356 356 354 352 353 353 353 354 353 353 353 354 354 355 355 356 356 357 358 359 359 360 360 361 360 360 362 361 360 360 358 358 359 359 360 360 358 356 357 357 356
356 356 355 354 353 354 354 353 353 353 353 353 353 353 355 355 355 355 356 357 358 358 358 359 360 360 360 361 362 361 360 358 359 360 360 360 359 358 357 358 358 358
354 355 355 354 353 353 353 352 352 353 353 353 354 354 354 355 355 355 356 356 356 357 358 359 361 361 360 361 362 363 361 359 359 360 360 360 360 360 359 359 360 359
353 352 353 353 351 351 352 351 352 353 353 353 353 353 353 354 355 355 356 357 356 357 358 359 361 361 360 360 361 363 362 359 358 360 360 360 360 360 360 359 360 359
353 352 352 351 349 349 349 349 350 350 352 352 351 350 351 354 355 355 357 358 358 359 360 360 361 361 359 360 361 362 362 360 359 359 360 360 360 360 359 358 359 359
356 354 353 351 349 348 347 347 346 347 349 350 349 347 348 353 355 355 358 360 360 360 360 360 360 360 360 360 360 361 361 360 360 360 361 360 359 359 359 358 358 358
358 356 355 354 353 352 350 348 346 345 346 347 348 346 346 351 356 356 358 360 360 359 360 359 359 360 360 359 358 359 360 360 360 360 360 360 360 360 359 358 358 358
355 354 354 355 356 356 354 352 349 347 346 347 347 347 346 348 353 354 356 358 358 358 359 359 360 360 360 360 358 358 359 359 359 360 360 360 360 359 359 358 358 358
352 355 356 356 358 358 358 356 353 349 348 349 349 348 348 347 349 352 353 355 356 356 356 358 360 360 360 360 359 358 358 359 358 358 358 359 358 358 357 357 356 357
348 352 354 356 357 358 358 358 357 354 353 353 352 351 350 349 348 349 351 352 353 353 354 356 359 359 359 359 358 358 358 358 357 357 357 357 357 357 356 356 355 354
344 345 349 351 352 352 353 355 357 358 356 356 355 354 352 351 349 349 350 352 352 353 353 354 356 357 357 357 357 357 357 357 357 356 356 356 356 356 355 355 355 354
343 344 347 349 348 348 348 350 353 356 357 357 357 356 355 354 353 352 352 352 352 354 353 353 353 353 354 355 355 356 356 357 357 357 357 357 356 357 356 355 355 354
346 347 349 350 350 349 347 348 350 352 354 356 356 356 356 356 357 356 354 353 353 353 352 351 352 352 353 353 352 351 351 354 356 357 358 358 358 357 357 356 355 354
349 349 351 351 350 350 349 349 350 350 352 354 355 356 356 357 358 358 357 357 355 354 353 352 353 354 353 352 352 350 349 350 353 354 355 357 358 357 357 356 355 355
351 350 350 350 351 351 351 351 351 351 352 353 354 355 355 356 358 358 359 359 357 357 357 356 356 355 354 352 352 350 349 348 350 353 353 354 356 357 357 357 357 357
351 351 350 350 350 350 350 351 352 352 352 352 353 355 355 356 358 358 358 359 358 359 359 357 355 354 353 352 351 350 350 348 350 354 356 354 355 356 356 357 358 359
346 347 347 348 349 349 349 349 351 352 351 351 353 354 355 356 357 357 358 357 357 358 357 354 351 352 352 351 351 351 350 349 352 356 358 357 357 358 359 359 359 360
341 342 343 344 345 346 348 348 349 350 350 351 352 353 354 354 354 354 355 355 355 356 354 350 349 350 350 350 351 352 351 352 356 359 359 358 359 360 360 360 360 360
337 338 339 339 340 340 342 344 346 346 347 349 350 351 352 352 351 351 351 352 352 354 353 350 347 348 347 348 350 351 351 355 358 358 358 359 360 359 358 359 359 358
334 335 335 334 335 335 336 337 339 341 343 344 346 347 348 349 349 348 348 348 348 350 350 347 344 344 344 345 348 349 350 355 357 357 357 358 358 358 358 358 357 355
329 331 331 332 332 333 333 334 335 336 338 340 342 343 344 345 347 346 346 346 346 346 345 342 339 340 341 342 344 346 347 351 354 355 355 355 356 356 356 356 355 354
326 326 328 330 331 331 331 333 334 334 335 337 340 341 342 343 344 344 344 344 343 342 341 338 336 335 335 336 339 341 344 348 352 352 351 353 355 355 354 354 354 352

ECMWFNIL_925_thetae_099.txt.gz
Theta_e
358 358 360 359 358 357 358 357 357 357 357 355 354 355 357 358 357 358 358 360 360 361 364 363 361 361 361 360 360 359 361 360 358 359 359 359 357 356 354 355 354 353
358 358 358 358 359 359 359 357 356 356 357 357 356 356 357 359 359 359 360 361 359 360 364 364 361 360 360 361 362 360 361 361 359 359 360 359 358 357 355 355 354 354
358 358 357 356 357 357 358 357 357 356 356 356 357 357 357 356 357 358 360 361 359 358 362 363 362 360 359 361 362 359 360 361 358 359 362 361 359 358 357 356 355 355
357 357 357 355 353 354 355 356 356 356 355 355 356 356 355 355 356 358 359 359 359 360 362 362 362 360 359 361 361 359 361 361 359 360 362 361 360 359 357 356 355 355
357 356 356 355 353 353 354 354 354 354 353 354 356 354 355 356 356 357 358 358 359 360 361 362 362 360 361 362 359 359 360 358 358 359 360 360 360 359 356 356 357 356
357 356 356 355 355 354 353 353 353 353 353 353 353 353 354 356 355 355 356 358 358 358 358 359 360 359 360 361 361 360 359 357 358 359 360 361 360 358 357 358 359 358
355 356 355 354 354 353 353 353 353 353 353 352 353 353 354 355 355 355 357 356 356 356 357 358 361 361 360 361 363 362 360 358 359 359 360 361 361 361 359 359 360 360
353 354 354 353 352 352 352 353 353 352 353 353 352 354 353 355 355 355 356 356 355 356 356 358 362 362 360 360 361 363 362 359 357 358 358 358 360 361 359 359 359 361
351 351 351 352 350 349 349 349 350 350 351 352 352 352 353 353 354 355 356 357 356 358 358 359 362 363 359 360 361 363 363 359 357 358 359 358 359 359 359 358 358 360
350 349 349 349 348 348 347 347 346 346 349 350 350 350 350 351 353 353 357 359 359 359 361 360 361 361 359 360 362 362 361 360 358 359 360 360 359 359 359 359 359 360
352 350 349 350 349 347 345 346 345 344 347 348 348 348 346 348 352 354 358 361 360 359 360 360 359 360 359 361 360 360 360 359 359 360 359 359 359 360 359 358 358 358
355 353 352 351 351 350 349 347 346 344 345 346 346 348 345 345 349 353 358 361 360 359 360 361 360 359 359 360 360 360 360 359 359 360 359 359 358 358 358 357 356 356
357 354 353 353 353 354 354 351 348 344 344 344 345 346 347 344 347 351 355 358 360 359 358 360 362 361 360 361 360 359 359 359 359 359 359 358 357 356 356 357 356 355
357 354 354 356 355 356 357 355 353 347 344 345 344 345 346 345 344 347 352 354 356 357 357 357 359 359 359 361 361 359 358 359 359 359 358 359 358 357 356 355 355 354
357 356 357 359 360 360 361 360 359 355 351 347 346 347 348 347 345 344 347 351 352 353 353 352 354 356 358 358 359 359 357 357 357 357 358 357 357 356 356 355 354 354
358 358 358 359 358 359 360 362 362 360 358 356 354 353 352 350 348 346 345 348 349 351 352 350 349 351 353 355 357 358 357 356 355 357 359 359 358 357 356 355 355 354
354 356 357 356 355 353 354 358 358 357 357 358 358 358 357 355 352 350 349 348 348 351 352 350 349 350 351 352 354 356 357 356 356 358 359 360 359 358 359 357 355 354
349 350 353 355 353 349 350 353 353 352 353 356 358 358 358 357 355 354 353 351 349 350 350 349 350 354 353 352 353 354 354 355 354 354 355 355 356 356 357 356 355 354
351 349 349 351 351 349 349 351 352 352 353 354 356 357 357 357 355 354 355 354 352 352 353 352 352 354 354 353 353 352 352 351 351 353 353 352 354 355 356 357 357 356
353 352 351 351 351 351 352 353 354 354 354 354 355 356 356 356 355 353 355 357 356 355 355 353 353 354 354 354 353 353 352 352 351 353 354 352 352 353 354 356 357 357
351 351 351 351 351 351 352 355 355 355 355 355 356 355 355 356 355 353 354 355 355 354 354 352 351 354 355 355 354 353 353 352 350 352 355 355 354 353 353 356 357 358
346 346 347 348 349 350 351 352 352 354 355 355 355 353 352 353 354 355 355 352 349 349 351 350 350 351 352 353 354 353 352 351 352 354 355 354 352 354 357 359 358 359
341 341 342 343 344 345 346 346 347 348 350 352 353 353 353 352 352 353 353 350 347 349 350 348 348 349 350 350 352 352 351 352 354 356 353 351 350 352 355 355 356 357
338 339 339 340 339 340 340 341 342 343 345 346 348 349 350 350 349 349 350 348 348 349 348 346 347 348 349 350 350 350 351 352 354 355 352 351 351 351 351 353 355 356
335 337 337 337 337 337 337 337 338 340 342 342 343 345 347 348 348 348 349 347 346 346 344 344 345 345 346 347 347 349 349 350 352 354 353 351 351 349 349 352 353 354
332 333 334 335 335 336 336 336 336 337 340 342 342 343 344 346 346 346 347 346 344 343 340 339 339 338 339 341 342 343 344 346 351 353 351 351 352 350 348 349 350 350

ECMWFNIL_925_thetae_102.txt.gz
Theta_e
356 359 359 359 358 356 356 357 357 357 356 357 357 356 356 355 354 355 356 355 357 359 357 356 358 358 358 360 359 357 358 358 357 357 357 358 357 357 355 354 354 352
359 359 359 358 357 356 356 356 356 356 355 356 355 353 355 356 356 356 356 357 358 358 358 357 359 359 359 360 359 358 359 358 358 358 357 358 358 356 355 355 354 353
358 357 357 358 358 358 357 356 355 355 355 355 354 353 355 356 357 357 358 359 358 358 358 358 359 360 358 359 359 358 359 359 358 358 359 360 359 358 356 355 353 353
357 356 357 358 358 358 357 357 357 356 355 355 355 354 355 355 355 355 358 358 357 359 360 358 359 359 358 359 360 358 358 359 359 358 360 361 360 359 357 356 354 354
357 356 356 356 356 355 355 355 356 356 355 355 355 355 353 353 354 355 357 358 357 359 360 359 361 359 357 358 360 358 358 358 358 358 359 360 360 360 357 354 355 355
357 357 356 355 354 353 353 354 355 354 353 353 354 355 354 354 355 355 357 358 358 358 358 359 360 359 357 359 359 358 358 358 358 357 358 359 359 359 357 356 357 357
356 357 356 355 354 354 354 354 353 353 353 352 353 354 354 355 356 354 355 357 356 356 356 356 357 358 359 359 359 359 358 359 359 358 358 359 359 359 358 358 358 359
356 356 356 355 354 354 354 353 352 352 353 352 352 353 353 354 354 353 354 355 355 356 356 355 356 359 359 358 359 361 360 359 358 358 358 358 359 361 361 359 359 360
355 355 355 354 353 352 352 351 352 352 353 353 353 352 352 353 354 354 354 355 355 355 355 355 357 361 360 358 359 361 361 359 358 357 358 357 357 359 359 358 358 358
353 354 355 354 352 351 350 349 349 350 351 352 352 351 352 353 353 354 354 355 356 356 356 357 358 361 361 358 358 359 360 361 359 358 358 358 358 358 358 358 358 358
351 352 352 352 351 351 350 348 347 347 348 349 350 350 350 351 351 352 352 356 358 357 358 359 359 360 360 358 358 358 360 360 359 358 358 358 359 358 358 359 358 358
350 351 351 350 350 350 349 348 347 345 345 346 347 348 348 348 348 350 352 356 359 359 358 359 359 358 358 358 359 358 358 359 358 357 358 358 358 358 358 358 358 357
351 351 350 350 349 349 349 348 348 347 345 344 345 346 348 347 346 348 351 354 359 360 358 358 358 359 359 358 359 359 358 359 358 357 358 358 357 357 356 355 356 356
355 353 353 352 351 351 351 351 352 352 349 345 344 344 345 346 346 346 348 352 357 360 359 358 358 359 360 359 359 359 358 357 358 358 358 357 357 356 355 354 354 354
358 357 355 354 353 353 353 354 354 355 353 350 348 346 344 345 345 344 345 348 352 357 358 357 356 357 360 359 359 360 359 357 357 357 356 355 355 355 355 355 355 354
360 358 357 358 358 360 361 360 360 360 359 357 356 352 348 346 347 347 346 346 347 351 354 354 353 353 354 355 355 358 358 357 356 355 354 354 355 356 356 356 356 355
361 360 360 360 361 362 363 364 364 363 362 360 358 356 354 352 352 352 351 348 346 346 348 350 350 350 351 352 354 355 356 355 356 356 354 354 355 357 357 358 357 354
359 359 360 359 360 360 360 360 359 357 357 357 357 358 358 357 356 356 355 353 350 348 350 350 349 350 352 352 352 353 354 355 356 356 354 353 353 353 354 355 355 353
356 357 357 357 356 356 357 357 354 351 351 352 353 354 355 356 356 358 358 356 353 349 349 351 352 351 353 353 352 352 353 354 355 354 353 353 352 352 352 351 351 352
353 354 354 354 353 352 354 354 353 352 351 352 351 350 352 354 356 358 358 357 355 351 348 350 353 353 353 353 353 353 353 354 353 352 353 354 355 354 352 351 350 351
351 352 352 351 351 352 354 354 353 353 352 353 354 352 352 354 355 357 357 355 353 351 350 350 351 353 354 354 354 354 353 353 352 353 354 354 355 354 352 352 353 351
347 349 349 349 349 350 351 351 351 352 352 352 352 352 352 354 356 357 356 355 353 351 350 350 351 352 353 353 354 354 353 353 355 356 355 353 354 354 352 353 354 354
343 344 345 345 345 346 346 346 347 348 349 350 351 352 352 354 355 355 354 354 354 351 350 349 350 351 351 351 351 352 352 353 354 356 356 355 354 354 352 353 354 355
340 341 341 341 340 339 340 343 344 344 346 348 348 349 350 351 353 354 353 353 352 350 348 347 346 347 349 349 350 351 351 352 352 355 355 355 355 354 352 353 354 354
336 337 338 338 337 336 337 339 341 342 343 344 345 346 347 349 351 351 350 350 348 346 344 344 344 344 345 345 347 348 349 350 351 353 353 353 354 353 352 352 351 351
333 334 335 335 335 336 336 338 341 342 343 343 344 345 345 346 348 348 347 346 343 341 340 340 340 340 340 341 342 344 346 347 348 350 351 352 352 352 352 352 351 350

ECMWFNIL_925_thetae_105.txt.gz
Theta_e
356 357 357 355 357 356 355 357 357 356 357 357 355 354 355 355 356 357 357 355 354 357 358 354 353 354 355 358 358 357 358 357 357 357 356 357 357 356 356 355 353 352
356 358 356 354 356 357 356 357 356 356 357 357 356 356 356 355 355 355 356 355 353 355 357 354 352 352 355 358 357 354 356 355 355 357 358 357 358 358 356 354 354 354
355 356 355 355 356 356 356 357 357 356 355 355 355 356 355 354 355 355 355 355 356 356 357 355 354 354 356 359 358 355 355 355 354 356 358 358 358 359 356 356 355 353
355 355 354 356 357 356 356 356 356 355 355 354 354 354 353 354 356 357 356 357 358 358 358 356 357 358 357 357 359 358 356 358 357 356 358 359 360 358 356 357 356 353
357 357 355 355 357 357 357 356 356 356 355 355 355 354 353 355 357 356 356 358 358 357 358 358 358 359 358 357 359 358 356 358 358 357 357 358 359 358 355 356 356 354
357 357 355 356 357 357 358 357 357 357 355 355 355 354 354 354 354 354 355 357 357 356 358 359 359 360 358 356 358 359 356 357 358 358 357 356 357 358 358 358 356 355
357 357 355 356 357 356 355 355 356 356 355 354 354 355 354 353 353 354 354 356 357 357 357 358 359 360 359 357 357 358 356 357 359 358 356 356 357 358 358 358 357 357
357 356 356 356 356 355 353 353 354 354 354 353 353 354 354 353 353 354 354 356 357 357 357 357 357 358 358 358 358 358 357 358 359 358 358 357 356 358 359 359 359 358
357 357 356 356 356 355 354 353 353 353 352 352 353 353 353 353 354 354 354 354 355 356 356 356 355 355 357 359 359 358 359 359 359 358 358 357 356 357 358 358 358 357
356 356 356 356 355 354 354 354 353 352 352 352 352 352 352 352 354 354 354 354 354 354 355 355 355 355 358 360 359 358 359 359 359 359 358 357 357 357 357 358 357 357
355 355 356 355 355 354 352 351 351 351 352 352 352 352 352 351 353 353 353 354 354 355 355 356 356 357 359 360 359 358 358 358 359 360 359 358 357 357 358 358 358 358
354 354 355 355 354 353 352 351 350 349 349 350 351 351 350 350 351 352 352 352 353 354 356 356 357 358 359 360 359 358 358 358 359 359 359 358 358 358 358 357 357 358
353 353 353 354 353 352 351 350 349 348 348 349 349 349 349 348 349 350 349 350 352 354 356 356 357 358 358 358 358 358 358 358 358 358 358 358 358 358 358 358 357 356
350 350 350 351 352 350 350 350 349 348 349 351 350 349 348 347 346 347 348 350 351 352 354 356 357 358 358 357 358 358 358 359 358 358 358 357 358 358 357 355 354 353
352 352 352 351 350 350 349 349 349 348 348 351 351 350 350 349 347 346 348 350 351 352 354 356 358 358 357 357 358 358 358 358 358 357 357 357 356 356 355 352 351 352
354 354 354 354 355 356 353 350 349 349 350 352 352 352 352 351 349 348 349 350 350 353 354 357 358 357 356 355 356 358 358 359 359 357 356 356 354 354 355 354 353 353
353 354 353 354 357 360 359 358 357 355 354 355 355 354 352 351 349 349 350 351 350 350 351 353 355 354 352 351 351 354 357 358 358 357 356 355 354 354 355 354 353 354
350 353 354 353 355 357 359 361 362 361 360 359 358 357 355 353 352 352 352 353 353 351 349 349 350 350 348 348 349 352 356 357 357 357 356 354 353 354 354 353 351 351
352 355 355 354 355 356 357 359 360 360 359 356 354 352 351 352 353 354 354 355 355 353 351 348 348 348 347 348 350 352 354 356 356 356 355 354 353 353 353 352 351 351
354 355 356 355 355 355 355 355 355 355 353 352 349 348 347 348 350 352 354 356 357 354 352 350 349 349 349 350 351 352 352 353 354 354 354 354 354 353 353 353 352 351
353 353 353 354 354 352 352 352 353 353 352 351 351 350 349 350 350 350 351 353 354 354 353 351 350 350 350 351 351 352 352 353 353 353 353 353 353 353 353 353 352 352
350 351 351 351 352 351 351 352 352 353 353 353 352 352 352 353 352 351 352 351 348 349 352 352 350 350 350 350 350 351 353 354 354 355 354 354 353 353 353 352 353 352
346 347 348 348 349 349 350 350 350 351 351 352 352 352 352 353 352 352 355 354 349 348 350 350 349 349 350 350 351 352 353 353 354 355 355 354 354 353 353 353 353 353
341 341 341 342 343 344 345 346 347 347 348 348 348 348 349 349 350 351 352 352 349 347 348 349 349 349 349 350 351 352 352 352 353 354 355 355 355 354 353 352 352 353
338 337 337 337 338 340 341 342 342 343 344 345 344 345 346 346 347 348 349 348 346 346 347 347 346 346 346 347 349 349 351 351 351 352 354 354 353 353 353 352 351 351
335 335 336 336 337 338 339 341 343 344 343 344 344 344 344 345 345 346 346 344 341 342 343 342 342 344 344 345 347 348 349 349 350 351 352 352 353 352 352 352 352 351

ECMWFNIL_925_thetae_108.txt.gz
Theta_e
353 352 354 354 353 353 354 354 355 355 355 355 354 355 355 355 355 355 356 356 355 355 357 356 356 356 356 356 356 356 356 355 355 356 356 356 357 356 356 355 355 354
353 352 353 354 354 355 356 356 356 356 355 355 355 354 354 354 355 355 356 356 355 354 357 357 355 354 354 354 355 356 357 355 353 354 356 356 357 357 356 356 355 355
354 354 353 354 354 356 356 355 356 356 356 355 355 355 354 354 354 355 356 356 355 353 355 356 355 352 353 355 357 356 355 355 353 353 356 357 357 357 357 356 356 355
355 355 355 355 355 356 355 355 356 356 356 355 354 354 354 354 355 354 355 355 355 354 354 356 355 353 353 356 358 358 356 355 356 355 356 357 358 358 357 356 356 356
355 355 355 354 354 355 355 355 356 356 356 355 354 353 353 354 354 355 355 354 355 356 356 357 357 355 356 356 357 358 357 356 356 357 356 356 357 357 357 356 356 356
356 356 355 354 354 355 355 355 356 356 355 355 354 354 353 353 354 355 355 356 356 357 357 357 357 357 358 357 356 357 358 357 355 357 357 356 355 355 355 357 357 357
356 355 354 353 354 355 355 355 356 356 355 355 354 354 353 353 354 355 354 354 355 356 356 356 357 358 358 358 357 356 357 356 355 357 358 357 356 355 355 356 358 357
355 355 355 354 354 355 356 356 357 356 356 355 354 354 354 353 353 353 353 353 354 355 355 356 357 357 358 359 358 356 356 356 355 357 358 357 356 356 355 356 358 358
354 355 356 356 354 355 356 357 357 356 356 356 355 354 354 354 353 352 352 353 354 355 356 356 356 356 356 357 357 357 357 357 357 357 358 358 357 356 355 355 357 357
355 355 356 356 355 355 356 356 355 354 355 355 355 354 353 354 354 353 353 353 354 355 355 356 356 356 355 355 356 357 357 357 358 358 358 358 358 357 356 356 357 357
358 357 356 356 356 356 356 355 354 352 353 353 353 352 352 353 353 353 353 353 354 354 355 355 355 355 354 354 356 358 358 358 358 358 359 359 358 357 357 357 357 358
358 358 357 356 356 356 356 354 353 353 352 352 352 352 352 352 352 352 352 353 354 354 354 354 354 355 355 355 357 358 359 358 358 358 358 359 359 358 357 357 356 357
357 357 357 356 356 355 355 354 353 353 352 352 351 351 352 352 351 352 352 353 353 353 354 354 354 355 355 356 357 358 358 358 358 358 358 358 357 357 356 355 355 355
356 356 355 355 355 355 354 354 353 351 350 349 351 351 351 351 351 351 351 352 352 352 353 353 354 355 355 357 357 358 358 358 358 358 358 356 355 355 355 354 354 354
354 354 354 354 355 354 354 353 352 350 349 349 350 350 350 351 350 349 349 351 352 352 351 353 355 355 356 357 357 357 357 358 357 358 358 357 356 355 354 353 353 352
352 353 353 353 353 353 352 352 350 350 350 349 349 349 350 351 351 349 348 348 351 351 351 353 356 356 357 358 357 357 356 356 357 358 358 358 357 355 353 353 353 353
352 353 353 352 353 353 352 351 350 350 349 350 350 350 350 351 352 350 348 348 349 350 352 355 357 357 357 357 357 356 355 356 357 358 359 358 356 354 354 353 352 352
352 353 354 353 353 355 356 355 354 353 352 351 352 353 353 353 353 352 351 350 349 350 352 355 357 356 356 357 357 356 354 353 353 356 359 358 355 354 353 352 352 351
354 354 355 353 353 355 357 358 358 359 358 357 356 356 356 355 354 354 354 353 352 350 350 352 352 352 353 353 353 352 350 349 350 354 358 358 355 354 353 352 352 351
355 355 355 355 354 354 355 357 358 359 360 359 358 356 354 352 351 352 354 354 354 351 350 349 348 349 349 349 349 349 348 349 352 356 358 357 355 354 352 352 351 351
354 355 355 355 355 354 355 356 356 357 357 357 356 354 352 350 350 351 353 354 354 354 353 351 349 348 348 348 348 350 350 351 353 356 356 355 354 353 353 352 352 351
352 353 354 354 354 354 354 353 351 352 354 353 353 352 351 351 350 351 353 354 354 353 353 351 351 351 350 349 350 351 352 352 352 353 354 354 354 353 353 352 352 351
350 351 351 352 352 352 352 351 349 350 351 351 351 351 351 351 351 351 352 353 353 353 352 350 350 349 348 348 350 351 352 353 353 353 353 354 354 353 353 353 352 352
346 348 348 349 349 350 349 349 348 348 349 349 349 350 349 349 349 349 350 352 352 352 351 349 348 346 345 345 346 348 351 354 355 355 355 354 354 353 353 352 353 353
342 343 344 344 345 344 344 344 344 345 345 346 346 346 346 346 346 346 348 350 350 349 348 347 345 344 344 344 345 347 350 352 355 354 354 354 353 353 353 352 352 352
338 338 339 339 340 342 342 342 342 343 343 344 344 344 344 344 345 345 346 346 344 343 342 341 339 339 340 342 345 348 349 351 353 354 353 354 354 353 352 351 351 351

ECMWFNIL_925_thetae_111.txt.gz
Theta_e
350 349 351 352 352 353 353 353 353 353 353 354 355 355 355 354 356 356 354 354 354 354 355 355 355 355 355 355 356 356 354 354 355 355 355 355 355 356 356 356 355 354
352 352 352 353 353 353 352 351 352 352 352 353 353 354 354 353 354 355 354 354 355 355 354 354 356 356 356 356 356 355 356 356 356 355 354 354 355 356 356 357 356 356
354 354 353 353 353 353 351 351 351 352 353 353 354 354 354 353 353 354 354 354 355 355 354 354 356 356 355 354 354 355 356 356 355 354 353 353 355 356 356 356 356 355
354 353 353 353 353 353 353 352 353 353 354 354 354 354 354 354 354 353 354 354 354 355 355 354 354 355 354 352 352 355 357 355 354 354 354 354 356 356 357 357 356 354
354 352 353 352 352 353 353 354 354 355 355 355 355 355 354 354 354 353 354 354 354 355 355 354 354 355 355 354 353 355 357 357 355 355 356 355 355 355 356 356 355 355
355 353 353 353 353 353 353 354 355 355 354 355 355 355 355 354 354 354 354 354 353 353 354 354 354 356 356 356 355 355 356 357 357 356 356 355 355 354 355 355 355 356
357 355 354 354 354 354 354 355 355 355 354 355 355 355 354 354 353 353 353 354 354 354 354 355 356 356 357 357 357 356 356 356 356 356 355 356 356 356 355 355 355 356
358 357 355 354 355 354 354 355 355 355 355 355 355 355 354 354 353 353 353 353 354 355 355 356 356 356 357 357 357 357 357 356 355 356 355 355 356 356 356 355 355 355
358 357 356 355 355 354 354 354 355 354 354 355 355 355 354 354 354 353 353 353 354 354 354 355 355 355 355 357 357 358 357 356 355 356 355 355 356 356 357 356 355 355
358 357 356 355 354 353 353 354 355 354 355 355 355 355 355 354 354 353 353 353 353 352 353 354 355 355 355 356 356 356 356 356 356 357 356 357 357 357 358 357 356 356
357 357 356 354 354 353 353 353 354 355 356 356 356 356 355 355 354 354 353 353 353 352 352 353 354 355 355 355 355 355 354 355 356 357 357 357 358 358 359 358 357 357
356 355 354 353 353 354 354 353 353 354 356 356 355 355 355 355 354 353 353 353 353 352 352 353 353 354 354 354 355 354 353 355 357 357 357 357 358 358 359 358 358 357
355 354 354 353 354 354 354 354 354 354 355 355 354 353 353 353 353 352 352 352 353 352 352 353 353 353 354 354 354 354 354 356 357 357 358 357 358 358 357 357 356 356
356 355 355 356 356 355 355 354 355 355 355 354 353 352 352 353 352 352 352 352 352 352 352 353 353 353 354 353 354 354 355 356 357 358 358 357 358 358 356 356 355 355
356 356 356 357 357 356 355 355 355 355 354 353 352 351 351 351 350 351 351 351 352 351 351 352 352 353 353 353 354 354 355 356 357 357 358 357 357 357 357 356 355 354
356 356 356 356 357 356 356 356 355 355 354 352 350 350 350 350 350 350 350 350 350 350 350 351 351 352 353 353 353 354 355 356 357 357 358 357 357 357 357 357 355 353
354 354 355 354 355 355 355 355 355 355 354 351 350 350 350 349 349 349 350 349 349 348 348 349 350 352 352 353 353 354 355 356 357 357 357 356 357 358 358 357 355 353
352 352 353 353 354 354 354 354 354 354 353 351 351 351 351 350 350 349 349 349 349 349 348 349 351 352 353 353 354 355 356 357 357 356 356 356 356 357 358 358 355 353
352 352 353 352 353 353 354 355 354 355 354 354 354 355 354 354 353 352 352 352 351 350 349 350 351 353 354 354 355 356 356 357 357 354 353 354 353 354 356 357 355 353
352 352 352 353 353 353 354 356 356 357 357 357 357 357 356 355 355 354 353 352 352 352 351 351 351 352 354 355 356 356 355 355 354 352 350 349 349 350 354 357 356 352
353 353 353 353 354 353 353 354 355 357 358 358 358 357 356 355 353 352 351 350 349 350 351 352 351 351 351 352 353 353 352 350 349 349 349 350 351 352 355 357 356 353
352 353 353 353 353 352 353 353 354 355 356 356 355 355 355 353 351 350 350 351 351 351 351 352 351 350 350 349 349 349 348 348 348 347 348 351 354 356 357 357 355 352
351 351 352 352 352 351 351 352 352 353 352 349 349 350 350 349 348 348 348 350 351 352 351 352 351 351 350 349 349 350 349 349 350 350 350 351 354 355 355 355 353 352
348 349 349 349 349 348 348 349 349 348 346 345 346 347 348 347 348 348 348 348 349 350 351 352 351 351 351 350 350 349 348 347 348 350 353 353 353 354 354 353 352 352
345 346 346 346 345 344 344 345 345 344 344 344 344 345 345 345 345 345 345 345 346 347 348 348 347 347 347 347 348 347 346 345 345 349 353 353 352 353 353 352 352 354
340 341 342 341 342 342 342 343 343 343 343 343 343 343 343 343 344 344 343 341 341 342 342 342 341 340 340 341 342 343 343 342 342 345 350 351 351 353 352 350 352 353

ECMWFNIL_925_thetae_114.txt.gz
Theta_e
351 350 350 350 350 350 350 349 351 353 352 352 353 352 353 354 355 355 355 356 356 355 354 354 354 355 354 354 354 354 355 354 354 355 355 355 355 354 355 355 355 354
351 350 349 349 350 350 350 350 352 352 351 352 353 353 353 353 354 354 354 356 356 355 355 355 355 355 355 355 355 354 355 355 355 356 355 355 354 355 355 356 356 355
352 352 351 350 349 350 350 351 352 352 351 352 352 353 353 353 354 354 354 354 355 354 354 355 355 354 355 356 356 355 354 354 355 355 355 353 352 354 356 357 356 356
352 353 352 351 350 351 351 352 352 352 351 352 351 352 352 353 354 354 353 354 353 354 354 354 354 354 354 355 355 354 353 354 355 355 354 353 353 354 356 356 357 356
353 353 353 353 352 353 352 353 353 352 351 351 351 352 353 354 354 354 354 353 353 353 353 354 354 354 353 354 355 354 354 354 356 356 355 355 354 354 355 355 355 354
353 353 353 353 353 353 353 353 353 353 352 352 353 354 354 354 355 354 354 353 353 353 353 353 353 353 354 354 356 355 355 355 355 356 356 355 355 355 355 355 354 354
354 353 353 353 353 352 352 352 352 353 353 354 354 354 354 355 355 354 354 353 353 353 354 353 353 354 354 355 356 356 356 356 355 355 356 356 355 355 355 356 355 355
354 354 353 353 353 352 352 352 352 353 353 354 354 353 354 354 354 354 353 353 353 353 353 354 354 354 355 355 356 356 356 356 356 356 355 355 354 354 354 355 356 355
354 354 353 354 354 353 353 353 353 353 353 353 354 353 354 355 354 354 353 353 353 352 353 353 354 354 355 355 355 355 356 356 357 356 356 355 355 354 354 355 357 357
354 353 353 354 355 355 354 354 353 352 352 353 353 354 354 354 354 354 353 353 353 353 352 353 353 353 354 354 354 355 356 356 356 356 356 356 356 356 356 357 357 357
354 354 353 354 355 355 354 354 353 352 352 353 353 353 354 354 354 354 354 354 354 353 353 352 352 352 353 354 354 355 355 355 355 355 355 356 356 356 357 357 357 358
355 354 353 353 354 354 354 354 354 352 352 353 353 354 354 355 355 355 355 355 354 353 353 352 352 352 352 353 354 354 355 355 355 354 354 355 357 356 357 357 357 358
355 355 354 353 353 352 352 353 353 352 352 352 353 354 354 355 355 355 355 354 354 353 352 352 352 352 352 352 352 353 354 354 354 354 354 355 357 357 357 357 357 357
355 355 354 354 352 351 351 352 352 353 353 353 352 353 354 354 354 354 353 353 353 352 352 351 351 352 352 352 352 352 353 353 353 354 354 355 356 357 356 357 357 356
355 355 355 354 353 352 351 352 352 353 354 353 353 353 354 354 354 353 352 351 351 351 351 351 351 351 351 351 352 352 352 353 353 353 354 355 356 356 356 356 356 356
355 355 355 355 354 353 353 354 355 355 354 354 354 354 354 354 352 351 351 349 349 350 350 350 350 351 351 350 350 351 352 353 353 353 354 355 356 356 356 357 356 356
355 356 356 355 355 355 354 355 356 356 355 354 354 355 355 353 351 350 350 349 350 349 349 350 349 349 349 348 348 350 351 352 352 353 354 355 356 357 356 357 356 356
356 356 355 355 356 356 355 356 356 356 356 355 355 355 353 351 351 350 350 349 349 349 348 349 348 348 347 348 348 350 352 353 353 353 354 355 356 357 356 356 356 355
354 355 354 354 354 354 354 354 354 355 355 354 354 353 351 351 351 352 352 351 351 350 350 349 349 348 348 349 350 352 353 354 355 355 356 356 356 356 356 355 353 353
352 353 353 352 353 353 353 354 354 354 355 354 353 351 350 350 350 351 353 353 352 352 351 351 350 350 350 349 351 353 354 354 355 355 355 355 354 354 353 352 350 350
351 351 351 351 352 352 352 353 354 352 350 351 351 350 350 350 350 350 352 352 352 351 351 352 351 350 350 350 350 351 353 353 353 353 352 351 351 350 350 350 350 350
350 350 351 351 352 352 352 352 352 348 346 349 350 348 347 349 350 350 350 351 351 349 348 349 351 351 350 349 349 349 349 349 350 349 349 349 349 348 349 349 350 351
350 349 349 349 349 350 351 349 349 349 348 350 350 346 345 347 348 348 349 350 350 348 346 347 350 350 349 349 348 348 348 348 348 348 348 349 349 349 349 349 350 351
348 348 347 347 348 348 347 345 347 349 348 348 347 345 345 347 347 346 346 347 348 347 347 347 348 348 348 348 348 349 348 348 349 349 349 349 348 348 348 348 349 351
346 346 346 346 347 346 344 344 345 346 346 345 344 344 344 345 344 344 344 344 345 345 344 345 345 345 344 345 346 347 346 347 347 347 347 348 347 347 347 347 347 350
341 342 342 343 344 343 343 343 343 343 343 343 342 342 342 342 342 342 341 341 340 340 340 340 339 339 339 339 339 340 340 340 341 341 342 343 343 343 344 345 346 348

ECMWFNIL_925_thetae_117.txt.gz
Theta_e
350 351 351 351 351 352 352 351 352 352 351 354 355 355 355 354 354 355 357 356 355 357 356 354 354 355 356 357 355 355 356 355 357 357 356 357 358 358 358 358 358 358
351 352 352 352 351 350 351 351 352 352 351 352 353 353 353 352 353 354 355 355 356 358 357 355 355 355 357 357 356 356 357 356 358 359 358 359 358 358 358 358 358 359
352 352 352 352 352 351 352 351 350 350 352 353 353 352 352 353 353 353 353 354 356 358 357 356 356 356 357 357 355 357 358 357 358 359 359 359 358 358 357 357 357 358
352 352 352 353 354 353 352 351 350 350 352 353 352 352 352 353 352 352 353 354 354 355 356 355 356 356 356 355 354 357 358 357 356 356 357 359 358 358 357 358 358 358
352 352 353 353 353 353 352 352 353 353 353 353 353 352 351 350 352 353 355 354 354 355 355 355 355 355 355 354 354 357 358 358 356 356 358 359 359 358 357 358 358 358
352 352 353 353 353 353 353 354 354 354 354 355 354 353 352 352 353 355 356 356 356 356 357 356 356 356 357 356 355 356 357 358 358 358 359 360 359 358 357 358 358 359
353 353 353 353 354 354 355 356 356 355 355 355 355 354 354 355 355 355 356 356 357 357 356 356 355 355 356 357 355 355 357 358 359 358 358 359 359 359 358 358 359 359
354 354 354 354 356 356 356 356 356 356 354 354 355 355 355 356 357 357 356 356 357 356 355 355 354 353 355 357 357 357 358 358 359 359 359 359 359 359 359 359 359 359
355 355 355 355 356 356 356 356 356 356 355 355 356 357 356 356 356 357 356 355 355 355 354 353 353 353 355 356 356 356 358 359 359 359 360 360 360 359 359 359 359 359
355 355 356 356 357 357 356 354 355 356 355 355 356 357 357 356 355 355 355 354 354 354 353 353 352 352 354 355 355 355 356 358 358 358 359 359 360 360 359 359 360 360
355 355 356 356 356 356 356 355 354 356 356 356 356 356 357 357 356 355 354 354 354 354 354 354 353 352 352 354 356 355 355 356 357 357 358 358 359 358 358 359 360 360
357 357 357 356 355 355 356 356 356 356 356 356 356 355 356 356 356 356 355 354 355 354 355 354 354 353 352 352 354 355 354 354 355 356 356 357 357 358 359 359 360 360
358 358 358 357 355 354 354 356 357 356 356 356 356 355 355 356 356 357 356 355 355 354 354 354 353 353 352 351 352 353 353 353 354 355 356 357 356 356 358 359 359 359
358 358 357 355 354 353 352 354 356 356 356 356 355 355 355 355 355 356 356 356 356 354 353 353 352 352 351 351 351 351 352 352 353 354 356 357 356 356 357 357 357 359
355 356 355 353 353 353 353 353 354 355 355 354 354 354 354 354 354 355 356 355 355 353 352 351 352 351 351 350 351 352 352 353 354 354 355 356 356 356 357 357 355 357
354 354 354 354 354 354 354 354 353 354 353 352 352 353 354 353 354 354 355 354 354 352 351 351 352 352 351 349 350 350 351 353 354 353 353 355 355 355 357 357 357 357
356 355 355 355 354 354 354 354 354 353 352 353 354 355 354 354 354 354 354 353 353 352 352 352 352 352 350 348 348 348 349 352 355 355 355 355 356 356 357 358 358 359
356 357 357 356 355 355 355 355 354 354 354 355 356 356 355 354 353 353 352 352 352 352 352 352 351 349 349 348 348 348 348 351 354 357 358 358 358 359 359 359 359 359
353 353 354 355 355 354 354 355 355 355 355 355 354 354 353 351 351 351 352 351 351 351 351 351 350 350 350 349 349 349 349 350 353 355 356 357 358 359 359 359 359 359
350 348 347 350 351 348 349 352 354 353 353 352 352 352 352 351 350 350 350 350 351 351 351 351 351 351 351 350 350 349 349 350 351 352 353 354 355 356 357 357 358 358
348 347 345 346 347 345 346 349 349 350 351 351 351 351 351 350 349 349 349 349 350 351 351 350 350 350 350 350 349 349 349 349 349 349 351 352 354 354 355 355 356 356
347 346 346 345 345 346 347 349 349 349 350 351 351 351 350 350 350 350 350 350 351 351 350 349 348 348 348 348 349 349 348 348 348 348 349 350 352 352 353 353 354 354
346 346 346 345 344 346 348 349 350 348 348 350 350 350 350 349 350 351 351 350 350 350 349 348 347 346 346 346 347 347 348 348 348 348 349 350 351 351 351 351 351 351
347 347 347 345 345 346 347 347 347 347 348 349 348 348 347 348 348 348 348 347 347 347 347 346 345 344 344 344 345 345 346 346 346 346 347 348 348 348 347 347 347 347
345 345 345 344 344 344 345 345 345 346 347 346 345 345 344 344 345 345 344 344 344 344 343 343 342 341 341 341 341 341 341 341 341 341 342 342 342 341 341 342 343 344
343 343 342 342 343 343 343 343 343 344 344 343 342 343 342 342 343 343 342 342 340 339 339 338 337 336 335 334 334 334 334 335 335 335 334 333 334 336 338 340 340 341

ECMWFNIL_925_thetae_120.txt.gz
Theta_e
354 355 355 355 356 356 356 357 356 356 356 356 356 356 356 356 356 357 358 360 361 361 362 362 360 360 359 360 363 361 360 361 359 359 360 360 360 357 355 356 356 356
355 355 356 355 356 357 357 356 356 356 357 357 356 356 357 358 357 358 359 360 360 359 362 362 361 360 359 360 363 362 361 363 359 357 359 360 360 358 357 356 356 357
356 356 356 355 355 357 356 356 356 356 356 357 357 357 357 357 357 358 359 359 359 358 360 361 360 360 359 361 364 361 361 364 361 358 359 360 359 358 357 357 355 356
357 356 356 355 354 355 356 356 356 356 355 356 357 357 356 356 357 358 359 360 360 359 360 361 361 360 359 362 363 360 361 362 361 359 360 359 358 358 357 356 355 355
356 355 355 355 354 355 356 356 356 356 355 356 356 357 357 357 357 357 358 359 360 359 359 359 360 359 359 362 362 359 359 359 358 360 360 359 359 358 356 356 356 356
356 356 355 355 356 357 356 356 356 355 355 355 356 356 357 357 357 356 356 358 358 357 357 357 358 357 357 360 361 360 359 357 358 361 361 360 360 358 357 356 358 359
356 355 355 355 355 356 357 356 356 356 355 356 356 357 357 357 357 357 357 357 356 356 356 357 359 360 358 358 361 362 361 358 359 362 362 359 359 359 359 357 358 361
356 355 355 354 355 356 356 355 355 356 356 356 357 357 357 357 357 357 357 357 357 357 358 358 360 361 359 358 359 360 361 359 358 361 362 360 359 360 360 358 358 361
356 355 355 354 354 355 354 354 354 355 357 356 357 356 356 357 356 356 357 358 359 359 360 359 360 361 358 358 360 360 360 360 358 359 360 360 360 360 359 358 358 359
356 356 355 354 354 354 354 354 353 354 356 356 355 355 355 356 356 355 358 361 360 360 361 360 360 360 358 357 359 360 360 360 360 360 360 360 360 359 359 358 358 358
357 357 356 355 356 355 355 354 352 352 355 355 355 355 354 356 356 356 359 360 360 359 359 360 360 360 359 358 357 358 359 359 360 360 360 360 360 360 360 359 358 358
357 357 357 356 357 357 356 355 353 352 354 354 355 355 355 355 356 357 358 359 359 358 357 359 360 360 360 359 357 356 358 358 359 359 359 359 359 359 359 359 358 359
358 357 357 357 357 358 357 356 354 353 353 354 354 355 355 354 355 356 357 358 359 358 357 358 359 360 360 360 358 357 357 357 357 357 357 357 358 358 357 357 357 357
359 358 359 359 359 360 360 357 355 354 354 354 354 355 354 353 354 355 356 356 357 357 357 356 357 358 359 359 359 357 356 356 355 355 356 355 356 357 357 357 357 357
362 361 362 362 362 362 362 359 356 355 355 355 355 355 354 353 353 353 354 354 355 356 356 355 355 354 354 356 357 356 356 355 353 353 353 352 352 354 355 356 358 358
365 365 365 366 366 365 364 361 358 355 355 356 357 356 355 355 355 354 354 354 354 355 355 354 354 353 352 353 353 353 354 356 355 354 354 353 353 353 354 355 356 356
365 365 365 365 364 363 363 363 362 359 359 359 358 357 357 358 357 356 356 355 354 355 354 352 354 354 352 351 349 348 350 353 356 357 357 358 359 357 355 355 354 353
362 362 362 361 358 358 359 363 364 363 363 362 360 359 360 359 359 358 358 357 355 354 353 353 353 353 350 349 348 348 347 350 353 354 355 356 357 357 358 358 356 355
360 359 357 355 355 356 357 359 362 362 362 360 359 360 361 361 360 358 357 357 356 356 356 353 351 351 350 349 349 349 348 349 352 355 355 354 355 356 357 358 359 359
358 356 354 353 353 354 356 357 359 359 359 358 358 359 359 360 358 357 358 359 359 359 357 351 349 350 350 350 350 350 349 349 352 355 357 355 356 357 357 358 359 360
356 355 354 353 352 352 354 355 355 356 356 356 356 355 355 357 356 357 359 359 358 358 355 349 347 349 349 349 349 349 348 349 352 355 356 355 356 357 357 358 359 359
354 353 352 352 351 350 350 351 351 352 353 354 353 352 352 354 355 356 359 358 357 358 355 350 348 349 348 347 348 348 347 349 352 354 354 354 355 355 354 354 355 357
349 348 348 349 349 347 346 347 348 349 351 353 353 353 352 353 354 355 356 356 355 355 353 349 346 346 346 345 346 346 346 348 351 352 352 353 353 353 352 352 353 354
346 345 346 347 347 346 345 346 346 348 350 351 352 353 353 353 354 353 352 351 350 350 349 345 342 342 342 342 343 343 343 345 348 349 349 350 350 350 350 349 350 350
344 345 346 345 345 345 345 345 346 347 348 348 349 349 348 349 349 348 346 346 344 343 343 340 338 337 337 337 336 335 336 338 340 341 342 343 343 344 345 346 346 346
345 344 344 344 345 345 344 344 344 344 344 345 344 344 344 345 345 344 342 341 339 339 338 337 334 331 329 329 327 326 326 326 326 326 327 328 331 333 336 340 341 341